GFSGL_con_lsi_018.txt.gz
Lid_Strength_Index
14 14 14 14 14 14 14 14 14 14 14 14 14 14 14 14 14 14 15 15 15 14 14 14 14 14 15 15 15 14 14 13 15 14 17 17 16 15 15 13 14 14 13
13 14 14 14 14 14 15 15 14 14 14 14 14 14 14 14 14 14 14 15 15 15 15 14 14 12 14 14 15 14 14 14 14 15 13 18 17 16 14 15 15 15 15
13 13 13 13 14 15 15 14 14 14 14 14 14 15 15 15 15 14 14 14 14 14 14 14 14 14 13 13 12 13 13 13 14 15 15 16 17 17 17 16 15 15 16
13 13 14 14 14 14 14 14 14 14 15 15 14 14 15 15 15 15 15 15 14 14 13 14 14 13 13 13 12 12 12 13 13 14 14 15 17 17 16 16 17 16 17
13 13 13 13 13 13 13 13 13 13 13 14 14 14 14 14 14 14 14 14 15 15 14 14 14 13 11 10 12 12 12 12 12 13 14 14 16 18 17 16 16 16 16
13 13 12 12 12 12 12 12 13 13 13 13 14 14 14 13 11 11 11 13 14 14 14 14 14 13 13 11 10 8 9 11 12 11 12 14 14 15 14 15 16 17 18
13 14 14 13 13 13 13 13 14 14 14 15 15 15 15 15 12 12 11 13 14 14 14 14 14 13 13 13 11 10 9 8 7 10 11 11 12 13 14 15 16 15 15
14 15 14 13 15 15 15 16 16 16 16 16 17 17 17 16 14 13 14 15 16 16 15 15 15 15 15 14 14 14 12 11 10 10 9 9 9 10 13 13 13 14 14
14 14 14 16 17 17 18 18 17 18 18 19 18 18 19 19 16 15 15 17 17 17 17 16 16 16 15 13 15 15 14 13 10 8 7 7 6 6 8 12 14 15 16
14 15 16 16 20 19 19 19 19 19 19 19 19 20 20 21 18 16 16 17 19 18 17 16 15 15 13 13 14 15 16 15 12 11 10 9 7 8 6 8 11 15 15
16 17 18 18 19 20 20 20 20 21 20 22 21 21 21 20 20 17 15 17 18 18 18 17 16 14 13 13 13 15 15 13 12 11 10 10 10 9 9 8 8 11 14
19 20 20 22 21 19 22 21 21 22 23 23 23 23 21 21 19 17 15 14 14 17 17 17 16 14 14 13 13 12 12 12 13 12 11 11 10 10 10 9 8 9 9
23 25 25 23 21 20 22 22 22 22 23 23 23 23 23 21 20 17 15 14 14 16 16 15 13 12 12 13 13 13 14 15 15 14 12 11 9 9 9 9 8 8 9
29 25 23 23 22 22 20 20 21 22 23 22 23 22 21 19 18 17 17 17 15 14 14 15 14 12 12 14 15 14 15 15 15 15 13 10 9 9 9 9 9 9 10
26 22 23 22 23 21 20 20 20 20 19 19 19 18 18 19 17 14 13 14 14 13 13 13 13 17 19 19 19 16 16 16 16 15 12 10 9 9 9 9 9 9 11
24 22 21 21 21 20 21 21 17 16 14 14 13 14 16 14 13 12 12 12 11 10 13 14 14 14 15 16 17 17 16 15 14 14 11 10 9 9 10 9 9 10 12
27 22 21 21 21 22 22 23 24 20 16 15 15 14 14 14 14 13 12 12 12 13 18 17 16 16 16 15 16 17 17 16 14 12 11 10 10 9 10 10 11 10 12
28 23 23 22 22 22 23 23 23 24 24 22 18 16 15 15 15 13 14 15 21 19 19 18 18 18 18 16 18 18 17 16 15 13 11 10 9 9 10 10 11 11 12
26 24 24 23 22 22 22 23 23 23 23 23 22 20 19 17 15 16 16 21 22 21 20 19 18 18 16 15 15 16 16 15 14 12 10 9 9 9 10 10 11 11 12
27 24 22 24 23 23 23 24 24 24 24 24 24 23 22 19 23 22 22 22 22 22 21 20 19 17 16 15 13 14 14 14 12 11 10 10 10 9 9 10 11 12 12
29 27 23 26 26 25 25 25 24 24 25 25 24 22 16 22 23 23 22 22 22 22 22 21 20 18 17 16 15 12 12 11 10 9 9 9 9 10 9 10 11 11 12
29 29 29 29 24 25 27 25 26 26 25 25 24 23 18 23 23 22 21 21 21 21 20 21 20 19 17 16 16 15 14 13 12 12 12 11 11 11 11 11 12 12 13
28 28 27 25 25 26 27 29 28 27 26 26 25 24 24 23 23 22 22 21 20 20 20 20 20 19 17 16 15 15 15 15 14 12 12 13 12 12 12 13 13 14 15
28 27 24 24 25 28 29 29 29 28 28 27 27 26 25 24 23 22 22 21 21 21 20 20 19 19 18 17 15 15 14 14 14 13 13 14 14 14 14 14 14 15 15
26 24 24 25 29 30 31 32 30 32 31 29 28 27 26 25 25 24 23 22 21 21 21 21 20 19 18 16 16 16 15 15 15 14 14 14 14 14 14 15 15 15 15
24 24 25 26 29 30 33 33 33 32 31 29 28 28 27 26 25 25 24 23 22 22 22 21 20 20 19 16 15 13 13 14 15 15 15 15 15 16 16 16 16 17 17

GFSGL_con_lsi_021.txt.gz
Lid_Strength_Index
13 14 14 14 14 14 14 15 16 15 14 14 14 15 15 15 15 16 16 16 16 15 15 16 15 14 14 14 14 14 13 14 16 15 14 15 16 16 15 14 14 13 13
13 14 14 14 14 14 15 14 14 14 14 14 14 14 15 15 15 16 16 16 16 16 15 15 15 14 15 14 14 14 14 13 14 16 14 14 16 16 15 15 14 14 14
14 14 14 14 15 15 14 14 14 14 14 15 14 15 15 15 15 15 16 16 16 15 15 15 15 15 15 14 14 14 13 12 13 14 14 13 13 15 16 15 15 14 14
14 14 14 14 14 14 14 14 15 15 15 15 15 15 15 15 15 15 15 15 15 15 15 15 15 15 15 14 14 14 13 13 13 13 14 14 13 13 14 14 15 15 15
14 14 14 14 14 14 15 15 15 15 15 15 15 15 15 15 14 14 14 15 15 15 15 15 15 15 13 13 14 14 14 14 14 14 14 14 14 16 14 13 13 13 14
14 14 14 14 14 14 14 14 14 14 14 14 15 15 15 14 12 12 12 14 14 15 16 15 15 15 14 13 13 12 13 14 14 13 13 14 13 13 13 12 12 13 15
15 16 16 14 14 14 15 15 15 16 15 16 16 16 16 16 14 12 13 14 15 16 16 16 16 15 16 16 14 13 13 13 12 12 12 12 12 11 11 13 12 12 12
15 16 15 14 16 16 16 17 17 17 17 17 17 17 17 17 14 14 14 15 16 16 17 17 17 17 16 16 16 16 15 15 14 13 13 12 11 10 9 10 11 11 11
14 14 15 16 18 17 19 19 18 18 19 19 18 18 19 19 16 15 15 16 17 17 17 17 17 17 15 14 15 16 16 15 12 11 11 10 10 9 8 9 10 11 12
14 14 15 16 20 20 19 19 19 20 19 19 19 19 20 21 17 15 15 16 18 17 16 16 14 15 13 12 14 15 17 16 15 15 14 12 11 11 9 8 9 10 11
16 17 17 18 20 20 21 20 21 21 20 22 21 21 21 20 19 15 14 16 17 18 17 17 15 13 13 12 12 14 15 14 14 14 15 15 13 12 11 9 9 9 10
18 18 19 23 22 21 26 23 24 23 23 23 23 22 20 19 17 15 14 13 13 16 16 16 16 13 12 12 12 11 11 11 13 14 16 16 15 13 11 10 8 8 8
21 22 25 24 22 22 26 23 23 24 24 23 22 22 21 19 18 15 13 13 12 14 14 13 11 11 10 11 11 11 13 15 16 18 18 18 16 14 12 10 9 7 8
23 23 23 24 24 24 21 21 22 22 22 22 22 21 20 17 16 15 16 15 13 13 13 13 12 11 10 11 13 12 13 13 14 16 17 16 15 15 14 12 10 9 9
23 22 23 24 25 22 21 21 20 19 19 19 17 16 17 17 16 12 12 13 13 13 12 14 16 16 17 16 15 15 15 15 17 17 17 17 16 16 15 13 10 9 10
22 21 22 22 22 21 21 21 16 14 12 12 12 13 15 13 12 12 12 11 11 11 16 20 21 19 19 18 18 17 15 16 16 16 16 16 16 16 14 12 9 9 10
25 23 23 21 22 22 22 23 23 19 14 14 14 14 13 13 13 13 12 13 14 16 22 22 21 20 19 19 18 17 17 15 15 16 16 15 15 14 13 11 10 9 9
27 24 25 24 24 24 24 23 23 23 23 22 18 16 15 14 14 13 14 17 24 22 23 23 22 21 20 19 18 16 14 15 16 16 16 15 14 13 10 11 9 9 9
27 25 25 25 25 23 23 22 22 22 23 23 23 20 20 16 15 16 17 25 24 24 23 22 22 21 21 20 18 16 15 14 15 15 14 14 13 12 10 10 10 11 10
28 25 24 26 25 26 24 24 23 23 24 25 24 24 23 20 23 23 23 23 23 23 22 22 21 21 21 20 19 17 16 14 13 13 12 11 11 10 10 9 10 11 11
28 29 25 27 29 28 27 26 24 23 25 26 25 23 16 21 25 24 24 23 22 21 21 21 20 21 20 19 18 17 16 15 14 13 12 10 9 9 9 10 10 10 10
28 28 32 30 28 27 27 25 24 25 26 26 25 24 18 24 25 25 24 23 22 21 20 20 20 20 19 19 18 17 17 16 15 14 13 14 14 12 12 11 11 10 11
28 29 30 30 28 27 27 26 26 27 28 28 27 26 26 26 26 25 25 24 23 22 20 20 20 20 19 18 16 16 16 16 15 14 14 14 14 15 15 14 14 13 13
29 29 28 28 28 28 26 25 26 27 28 29 30 30 27 27 27 26 25 25 24 23 22 21 20 20 20 19 16 14 15 14 15 15 15 15 15 14 14 14 14 14 13
32 29 28 28 29 27 26 27 28 32 31 31 30 32 30 29 27 27 26 25 25 24 23 22 20 20 20 19 18 15 14 14 15 15 15 16 15 15 15 15 14 14 14
24 26 27 28 27 26 26 28 29 31 31 31 31 31 31 29 28 27 27 26 25 25 25 22 22 22 21 19 18 14 13 12 15 15 16 16 16 16 15 16 16 15 15

GFSGL_con_lsi_024.txt.gz
Lid_Strength_Index
14 14 14 15 15 15 15 15 15 15 15 15 15 15 15 16 16 16 16 16 16 16 16 16 15 15 15 15 15 15 15 15 17 16 14 12 14 14 13 14 14 14 14
14 14 14 15 15 15 15 15 15 15 15 15 15 15 15 15 15 16 16 16 16 16 16 16 16 15 16 15 15 15 15 15 16 17 15 14 13 12 13 14 13 14 14
14 14 14 14 15 15 15 15 15 15 15 15 15 16 16 16 16 16 15 15 15 15 15 15 15 15 16 16 16 15 15 14 15 16 16 14 13 13 13 13 13 13 13
14 14 14 14 14 15 15 15 15 15 16 16 16 16 16 16 16 15 15 15 15 15 15 15 15 15 15 16 16 16 15 15 15 15 16 15 15 13 14 14 13 13 13
14 14 14 14 14 15 15 16 16 16 16 16 16 16 16 15 14 14 14 14 14 14 14 14 14 14 13 14 15 16 15 16 16 16 16 16 15 15 15 13 14 13 12
14 14 14 15 15 16 16 16 16 16 16 16 16 16 16 15 12 11 11 13 14 15 15 15 15 15 15 14 13 13 14 16 17 16 16 16 15 14 13 14 13 13 14
15 16 16 16 16 17 16 16 16 16 16 16 16 17 17 17 13 12 12 13 14 15 15 16 16 15 16 16 15 14 14 14 13 15 17 17 16 15 14 14 13 13 13
16 17 17 17 17 17 17 17 17 17 17 18 18 18 17 17 13 13 12 14 15 16 16 16 16 16 16 16 16 16 15 15 14 14 15 16 15 15 15 15 14 13 13
16 16 16 17 18 18 19 19 18 19 19 19 18 19 19 19 15 13 14 15 16 16 16 16 16 16 15 13 14 15 15 14 12 12 12 11 11 11 11 12 14 15 16
15 15 16 17 20 20 19 20 20 21 19 18 19 19 19 20 16 14 13 15 17 16 16 15 13 13 12 12 13 15 16 15 14 15 14 13 12 13 11 13 14 16 15
16 16 17 17 20 20 21 21 22 23 20 22 21 20 21 20 19 14 13 14 15 15 15 15 14 12 11 11 11 13 14 13 13 14 14 14 14 13 13 13 13 13 15
17 18 18 21 20 20 26 25 25 26 25 24 24 22 20 19 16 14 12 11 11 14 14 14 13 11 10 9 10 9 9 10 12 14 15 16 15 15 15 14 13 12 11
20 20 21 21 20 20 24 23 25 27 26 23 22 21 20 18 17 13 11 11 10 12 12 11 10 10 10 11 11 11 12 13 14 15 15 15 15 15 14 15 14 14 14
24 21 20 21 21 21 20 20 25 25 23 22 22 21 20 18 15 14 14 13 11 12 12 12 12 13 13 14 16 15 15 15 15 16 16 15 14 14 15 15 17 17 17
23 20 20 20 21 21 21 21 21 20 20 21 20 18 16 16 15 11 11 12 12 11 13 17 19 20 20 19 19 18 18 17 17 16 16 16 15 16 16 15 16 16 18
21 20 20 20 20 20 21 21 16 13 12 11 10 11 13 12 11 10 10 10 11 13 18 23 23 22 22 21 21 20 19 18 16 16 16 15 16 16 16 16 15 16 17
23 20 20 20 21 22 22 22 23 19 14 13 12 12 12 11 11 11 11 12 15 17 27 25 24 24 23 22 22 21 20 18 16 15 14 14 15 16 16 16 15 15 15
22 20 22 21 22 24 23 23 23 24 24 22 17 15 13 13 12 12 13 17 24 24 31 25 25 24 23 22 21 21 20 19 17 16 14 14 14 15 15 15 14 12 14
22 22 22 23 23 24 23 23 23 23 23 24 22 19 18 16 15 15 16 30 26 25 24 24 23 22 22 21 21 20 19 19 17 16 15 13 13 13 14 13 12 10 10
24 22 22 25 26 26 24 24 24 24 25 25 24 23 22 22 27 28 29 30 28 24 23 23 22 21 21 21 20 20 19 18 17 16 16 14 13 12 11 11 10 10 9
25 26 24 27 28 27 27 26 25 26 25 26 24 22 16 21 26 26 26 27 27 25 23 22 21 21 20 20 20 20 19 18 17 16 16 15 14 14 13 11 10 9 10
27 27 30 29 28 27 27 26 26 26 26 24 23 23 18 25 25 26 26 27 26 25 23 23 22 21 20 20 20 19 19 17 17 16 16 16 15 14 13 13 12 12 13
25 25 25 28 28 28 28 29 28 27 26 24 25 25 27 28 29 28 28 27 26 25 24 24 23 22 21 19 19 19 19 17 15 16 17 17 16 15 14 14 13 13 13
26 25 25 26 29 28 28 28 26 24 24 25 28 29 28 28 31 30 29 28 27 26 25 24 23 23 22 21 20 19 18 16 14 16 16 17 17 16 15 14 14 13 13
32 29 28 28 28 26 26 26 24 24 25 27 28 30 30 30 30 31 30 29 28 27 26 25 24 24 23 23 22 21 19 16 16 16 17 17 17 16 16 15 15 14 14
25 25 24 24 26 26 26 24 23 24 26 27 29 30 31 31 30 30 29 29 28 27 27 26 25 25 25 23 22 19 17 13 13 16 17 17 17 17 16 16 16 16 16

GFSGL_con_lsi_027.txt.gz
Lid_Strength_Index
14 14 14 14 14 13 13 13 13 13 14 14 14 14 14 15 14 15 15 15 15 15 14 14 14 14 14 14 14 14 14 14 16 15 14 12 12 12 11 10 9 10 11
13 13 13 13 13 13 14 14 13 14 14 14 14 15 15 15 15 15 15 15 15 15 14 14 14 14 14 14 14 14 14 14 15 17 15 14 13 12 12 12 11 10 10
13 13 13 13 13 13 13 13 13 14 14 15 15 15 15 15 15 15 15 15 15 15 15 15 15 15 15 14 14 15 14 14 14 15 16 14 14 13 13 12 11 11 10
13 13 13 13 13 13 13 14 14 14 15 15 15 16 16 16 16 15 14 14 14 14 14 14 14 14 15 14 14 14 14 14 14 15 15 15 15 14 13 13 13 11 11
13 13 13 12 13 13 14 14 15 15 16 16 16 16 16 16 14 13 13 13 13 13 13 13 13 13 12 13 13 14 14 14 15 15 16 15 15 15 15 13 13 12 11
12 12 12 13 14 14 15 15 16 16 17 17 17 17 17 15 13 11 11 12 13 14 14 14 14 14 13 13 12 12 13 14 16 16 16 16 16 16 15 16 15 15 16
13 14 14 14 14 15 16 16 17 17 17 17 17 16 16 16 13 11 11 12 13 14 14 14 15 14 14 15 14 13 13 13 12 14 15 15 15 15 15 16 17 17 17
13 14 15 15 16 17 17 17 17 17 17 17 17 17 16 16 13 12 11 13 14 14 14 14 15 15 15 14 14 14 14 14 13 13 14 14 13 13 13 13 14 15 15
14 14 15 16 17 17 18 18 17 17 17 18 16 17 18 18 14 12 12 13 14 14 14 14 14 14 13 12 12 13 13 12 11 10 10 10 9 9 10 12 14 15 17
14 14 15 16 18 18 17 18 18 19 17 17 18 18 18 19 16 13 12 13 14 14 13 13 12 11 10 10 11 12 13 13 12 13 12 11 11 11 10 11 12 15 16
15 16 16 17 18 18 19 18 20 20 19 21 20 19 19 19 18 13 12 12 13 13 13 13 12 10 9 9 9 10 11 10 10 10 11 11 11 11 11 12 12 13 15
16 17 18 20 18 19 22 21 22 22 22 22 22 20 18 17 15 13 11 10 10 12 13 12 11 9 8 8 9 10 10 10 13 14 14 14 13 13 12 12 11 11 11
18 20 21 21 20 20 22 21 20 21 21 21 19 19 18 16 16 13 11 10 9 10 10 10 9 10 10 12 12 12 13 15 16 16 17 16 14 13 12 12 12 12 12
21 20 20 21 20 21 18 19 20 21 20 20 20 20 19 17 16 13 13 12 10 10 10 12 12 14 14 15 17 16 16 16 17 18 17 16 15 14 14 14 14 14 15
20 20 20 20 21 19 18 18 18 18 19 22 21 19 18 17 13 10 9 10 10 10 13 17 19 19 20 19 19 19 18 18 19 18 18 17 16 15 14 13 14 14 16
20 20 20 20 20 19 19 18 15 13 12 11 10 10 10 9 9 9 9 8 8 11 19 22 22 21 21 21 21 20 19 20 19 19 18 17 16 14 14 13 13 14 15
20 20 20 19 20 20 20 20 20 18 15 13 12 10 10 10 9 10 9 9 12 15 23 23 23 22 22 21 21 21 21 19 19 18 17 16 16 14 14 14 13 13 14
25 21 21 21 21 21 21 21 20 21 23 21 17 14 13 11 11 10 10 14 22 22 24 24 23 22 22 21 21 20 20 19 19 18 17 17 16 15 14 13 13 13 13
24 23 23 23 23 22 21 21 21 22 22 22 22 19 17 14 13 13 15 23 25 24 23 23 23 22 21 20 20 20 20 19 19 18 17 17 16 15 15 14 12 12 11
26 23 23 24 24 23 22 23 22 22 23 23 22 22 22 22 21 22 25 26 26 25 24 24 23 22 21 21 20 19 19 19 19 18 17 16 16 15 15 15 13 13 12
27 27 24 25 25 26 25 23 22 23 23 23 23 21 15 16 20 23 25 25 26 26 25 24 23 23 22 21 20 19 20 19 18 18 16 16 16 16 15 14 14 13 11
30 29 28 27 25 24 24 23 24 24 24 23 22 21 15 20 22 24 24 25 26 26 25 25 24 23 23 22 21 20 20 20 19 18 16 16 17 16 16 15 14 13 12
27 26 27 27 26 25 25 25 25 26 25 25 24 23 23 23 24 25 26 26 26 26 25 26 25 24 23 22 21 21 20 20 18 18 16 17 17 17 16 16 15 14 13
29 29 27 27 26 25 24 24 24 24 25 24 25 25 24 24 26 27 27 27 27 27 26 26 26 25 25 24 22 22 21 20 18 16 15 17 17 17 16 16 15 14 13
33 30 28 27 29 27 27 24 24 24 25 24 24 24 24 26 28 28 28 29 29 28 27 27 26 25 26 25 25 24 22 20 18 14 15 17 17 18 17 16 16 15 15
31 30 28 25 24 24 25 24 23 22 22 23 23 24 26 27 28 28 29 30 29 28 28 27 26 27 26 25 24 21 19 16 13 15 17 17 18 17 17 18 17 16 16

GFSGL_con_lsi_030.txt.gz
Lid_Strength_Index
13 12 12 12 12 12 11 11 11 11 11 11 11 12 12 12 12 12 12 12 12 12 12 12 12 12 12 12 11 12 12 12 14 13 12 11 12 12 11 10 10 10 9
12 12 12 12 12 11 11 10 10 11 11 11 12 12 12 12 12 13 13 12 13 13 12 12 13 12 13 12 12 13 13 13 14 15 13 13 12 12 11 11 11 11 10
12 12 12 12 11 11 10 11 11 11 11 12 12 13 13 13 13 13 12 12 12 12 12 13 13 13 13 13 13 13 13 13 13 14 15 14 13 12 12 12 12 11 10
12 12 12 11 11 10 10 10 11 11 12 12 13 13 13 13 13 13 13 12 12 12 12 12 12 12 12 12 12 12 12 12 12 13 13 13 14 13 13 14 13 12 12
12 12 11 10 10 10 11 11 12 12 12 13 13 14 14 14 13 12 12 12 12 12 11 12 11 11 12 12 12 12 12 13 13 13 14 14 14 14 15 14 15 14 13
11 11 10 10 10 11 11 12 13 13 13 14 14 14 14 14 14 12 11 11 11 12 12 12 12 12 12 11 11 11 11 13 14 14 14 15 14 13 13 13 15 15 17
11 10 10 10 11 11 12 13 13 14 14 14 14 14 14 13 13 11 11 11 11 11 12 12 12 12 12 12 12 11 11 11 11 12 13 13 14 13 13 14 14 14 15
10 10 11 11 11 12 13 13 13 13 14 14 13 14 13 13 13 12 11 11 11 11 12 12 12 12 12 12 12 12 12 11 11 11 11 11 11 11 11 11 12 13 12
11 10 11 11 12 13 14 13 13 13 13 13 13 14 14 14 13 12 11 11 11 12 11 11 11 12 11 10 10 11 11 10 9 8 8 8 8 7 8 10 11 12 13
11 11 11 11 12 13 13 14 13 13 14 14 14 14 15 15 14 12 11 11 11 11 11 10 9 10 9 9 10 10 11 10 9 8 8 8 8 9 8 9 11 13 13
11 11 12 12 13 13 13 13 14 14 15 15 15 14 15 15 14 12 11 10 11 11 10 10 10 9 8 8 7 9 11 9 10 11 10 10 10 10 10 9 10 11 13
12 13 14 14 14 14 15 15 16 16 16 16 15 14 13 14 13 12 10 9 9 10 11 10 9 8 9 9 9 10 10 10 12 13 13 13 13 12 12 11 10 10 10
14 15 15 16 15 15 16 16 15 15 15 14 14 14 13 13 12 11 10 10 9 9 9 8 9 10 11 12 11 11 13 14 15 15 15 15 14 13 13 13 12 11 11
15 16 16 17 16 16 15 15 15 14 14 14 14 14 13 13 12 11 10 9 8 8 7 10 11 12 12 13 14 14 14 15 16 17 16 15 15 14 14 14 14 13 14
15 15 15 15 16 15 15 14 14 13 13 13 14 13 13 12 11 9 8 8 7 7 10 12 14 14 15 15 15 16 16 16 17 16 17 17 16 16 15 14 13 13 14
14 15 14 14 14 14 14 14 13 12 11 10 9 9 10 9 8 8 7 7 7 9 12 15 16 16 17 17 17 17 16 16 16 17 17 17 17 16 16 14 13 12 13
13 13 14 15 14 14 15 15 15 13 13 12 11 10 10 9 9 8 8 7 10 12 15 16 17 17 17 17 17 17 17 16 16 16 16 16 16 16 15 15 14 13 13
15 17 14 14 15 15 15 15 15 16 16 15 14 14 12 11 9 9 9 9 14 15 17 18 18 18 18 18 17 17 17 17 17 16 16 16 16 16 16 16 15 15 14
17 16 16 16 16 17 16 17 17 17 17 17 16 15 15 14 12 11 12 15 17 18 18 19 18 18 18 18 18 18 17 17 17 17 16 16 15 15 16 16 15 15 14
19 20 19 17 17 18 18 18 18 18 18 18 17 16 16 17 16 15 15 17 18 18 19 20 19 19 19 19 18 18 18 18 17 17 16 16 15 15 16 16 15 15 14
19 19 20 19 19 19 19 19 19 19 19 18 18 16 15 16 15 15 16 17 18 19 20 20 20 20 20 20 19 19 18 18 17 17 16 15 16 16 15 15 15 15 14
21 20 21 21 20 20 20 20 20 19 19 19 18 17 15 15 15 16 17 18 18 20 21 21 21 20 20 20 20 20 19 19 18 17 17 16 16 15 15 15 15 15 14
22 21 21 21 21 22 21 21 20 20 19 19 19 19 19 18 18 18 18 19 20 21 21 21 21 22 21 21 20 20 20 20 19 18 19 17 16 15 15 16 15 15 14
21 21 21 20 20 21 20 20 19 20 20 20 19 19 19 19 19 19 20 20 21 22 22 22 23 23 23 22 21 20 20 20 19 19 18 17 15 15 15 16 16 15 15
21 21 21 21 21 21 21 20 20 20 20 20 19 19 19 19 20 21 21 21 23 24 23 23 23 23 23 23 23 23 22 21 21 18 15 14 15 16 16 16 16 16 16
21 21 20 21 21 21 20 20 20 20 20 19 19 19 19 20 21 21 22 23 24 24 24 23 23 24 24 23 23 21 21 18 17 14 14 14 15 15 15 16 16 16 16

GFSGL_con_lsi_033.txt.gz
Lid_Strength_Index
13 13 13 13 12 12 12 12 12 12 12 12 11 11 11 11 11 11 11 11 11 11 11 11 11 11 11 11 11 11 11 12 14 13 12 11 12 12 11 11 11 11 11
13 13 13 13 12 12 12 12 11 12 11 12 11 11 11 12 11 12 12 11 12 12 11 12 12 11 12 11 11 12 12 12 13 15 13 13 13 12 12 12 11 11 11
13 13 13 13 12 12 12 12 11 12 11 12 12 12 12 12 12 12 12 12 11 11 11 12 12 12 12 12 12 12 12 11 12 13 14 12 12 12 13 13 13 13 11
13 13 13 12 12 12 11 12 11 11 11 12 12 12 12 12 12 12 12 11 11 11 10 11 11 11 11 11 12 12 12 12 12 13 13 13 13 12 12 14 14 13 14
13 13 12 12 11 11 12 11 11 12 11 11 12 12 12 13 12 12 11 11 11 11 10 10 10 10 10 11 11 11 12 12 13 13 14 14 14 14 14 13 14 14 13
12 12 12 12 12 12 12 12 12 12 12 13 13 13 13 13 12 12 11 11 10 11 11 10 10 10 10 10 10 9 10 12 13 13 14 14 14 13 13 13 13 15 16
13 13 13 12 12 12 12 12 12 12 12 13 13 13 13 13 11 11 10 11 11 10 11 11 11 11 10 11 10 9 9 9 9 11 13 13 13 12 12 13 13 13 14
12 12 12 12 12 12 12 12 12 12 13 13 13 13 13 12 11 11 10 11 10 10 10 11 11 11 10 10 11 10 10 10 10 10 10 11 11 10 11 11 12 12 11
12 12 12 12 12 12 13 13 12 13 13 13 13 13 13 12 11 11 11 11 11 10 10 10 10 10 9 8 9 11 10 10 8 7 7 7 7 7 7 9 11 12 13
12 11 11 11 12 12 12 13 12 12 13 13 12 12 13 14 12 11 10 11 11 11 10 10 8 8 8 7 8 9 11 11 11 11 10 10 9 9 8 9 11 13 13
12 12 12 12 12 12 12 12 13 14 13 14 14 13 13 13 13 11 10 10 10 10 10 10 9 7 7 7 7 10 11 10 11 12 13 12 12 11 10 10 10 11 13
12 13 13 13 13 13 14 14 14 14 15 15 14 14 13 13 12 11 9 8 8 10 10 9 8 7 7 7 8 9 9 10 14 14 14 14 14 13 12 12 12 12 12
14 14 14 14 14 14 15 15 15 15 14 13 13 13 12 11 12 10 9 8 8 9 9 8 6 8 8 9 9 10 11 13 14 16 16 15 14 13 13 13 13 13 13
14 15 15 16 15 15 14 14 14 13 13 13 12 12 11 11 11 10 10 10 8 8 7 8 9 9 9 10 12 12 12 13 15 15 15 15 14 15 16 15 15 15 15
14 15 14 15 15 15 14 13 13 12 11 12 12 12 12 12 10 9 9 9 9 8 7 10 12 12 13 13 13 14 14 14 15 15 16 17 16 16 16 15 16 16 17
14 14 13 13 14 13 13 14 11 10 10 10 10 11 11 9 8 8 7 7 7 8 11 13 13 14 14 14 15 15 15 15 15 16 17 16 17 17 17 16 16 16 17
13 13 13 14 13 13 13 13 13 12 10 10 9 9 8 8 8 8 8 7 8 11 14 14 15 15 15 15 16 16 16 15 16 16 16 17 17 17 17 16 16 16 16
14 16 13 14 13 13 13 13 14 14 15 14 12 11 11 10 10 9 8 8 12 13 16 16 16 16 16 17 17 17 17 17 17 17 17 17 17 17 17 17 16 17 17
15 15 15 14 15 15 15 15 16 16 16 16 15 14 13 12 11 10 9 13 15 16 17 17 16 17 17 18 18 18 18 18 18 18 18 17 17 17 17 17 16 17 17
19 19 18 16 16 17 17 17 17 17 17 17 17 16 15 18 18 16 15 15 16 17 17 17 18 17 18 19 19 19 19 19 19 18 18 18 17 17 17 17 16 17 17
18 19 19 18 18 18 18 18 18 18 18 18 17 16 14 18 17 16 15 14 15 17 17 18 18 18 19 20 20 20 20 20 20 19 19 18 18 18 17 16 16 16 16
19 19 19 20 19 19 19 18 18 19 19 19 18 17 14 15 15 14 14 15 16 17 19 20 19 19 20 21 21 21 21 21 21 20 20 19 19 19 18 16 16 16 16
20 20 20 20 20 20 21 20 20 20 20 19 18 18 18 18 17 17 17 17 17 18 20 20 20 20 21 21 21 21 22 22 21 20 21 21 20 19 17 16 17 17 17
20 20 20 20 19 20 20 20 19 20 20 20 20 19 19 18 18 18 17 17 18 19 21 22 21 23 23 23 22 22 22 21 21 21 21 21 21 19 16 17 17 17 17
20 20 20 20 20 20 20 20 19 19 19 19 19 19 18 18 18 18 18 18 19 20 22 22 22 23 24 25 25 25 24 22 23 22 21 20 18 16 16 17 18 18 18
20 20 20 20 20 20 20 19 20 19 20 20 19 18 18 18 18 18 18 19 21 22 24 23 23 24 25 25 25 23 23 20 21 19 17 15 15 17 20 20 20 19 19

GFSGL_con_lsi_036.txt.gz
Lid_Strength_Index
15 15 16 16 16 15 16 16 16 16 16 16 16 16 16 16 16 15 15 14 14 14 14 14 13 13 14 13 13 13 13 14 15 14 13 13 13 13 12 12 12 13 12
16 16 16 16 16 16 16 16 16 16 16 16 16 16 16 16 15 15 15 14 14 14 13 13 13 12 14 13 13 13 13 13 14 15 13 13 13 13 13 13 12 12 12
16 16 17 17 16 16 16 16 16 16 16 16 16 16 16 15 15 15 14 14 13 13 13 13 13 13 13 13 13 13 13 12 13 13 14 13 13 13 13 13 12 12 11
16 17 17 17 16 16 16 16 16 16 17 17 16 16 15 15 15 14 14 13 13 13 12 12 12 12 12 13 12 13 12 13 13 13 14 14 14 13 13 14 14 13 13
16 17 16 16 16 16 16 16 16 16 16 16 16 16 15 15 14 14 13 13 13 13 12 12 11 11 9 10 11 12 12 13 13 14 14 14 14 14 14 13 14 14 13
16 16 16 16 16 16 16 16 16 16 16 16 16 16 16 14 12 12 12 13 12 12 12 11 11 11 11 9 9 9 9 12 15 14 14 14 13 12 12 12 13 14 16
16 16 17 16 16 16 16 16 16 17 16 16 16 16 15 15 12 11 11 12 12 12 11 11 11 11 11 11 10 9 9 9 8 10 12 12 13 12 12 13 13 13 13
16 16 17 16 16 17 17 17 17 16 16 16 16 15 15 15 11 11 11 12 12 11 11 11 11 11 11 10 11 11 11 10 9 9 9 9 9 9 9 10 10 11 11
16 16 16 16 17 16 17 17 17 16 16 16 16 16 16 16 11 10 10 12 12 11 10 10 10 10 9 7 9 11 10 9 7 7 7 7 7 7 8 11 13 14 14
16 15 15 16 16 16 16 17 16 17 15 15 15 16 16 18 11 10 10 12 16 12 11 9 8 8 7 6 8 9 12 11 10 10 10 11 10 10 9 11 12 14 14
16 16 16 16 15 15 16 17 16 17 16 17 17 18 18 16 15 10 9 11 12 13 12 11 9 7 6 6 6 8 10 8 11 14 14 13 13 12 12 11 11 12 14
17 17 17 17 15 15 15 18 17 17 19 20 21 20 17 15 13 11 9 8 9 11 12 10 10 7 6 5 6 7 6 8 16 16 15 15 15 14 13 12 12 12 12
18 18 19 18 17 17 17 18 19 19 18 19 17 17 16 14 14 9 9 8 7 9 9 9 7 6 7 9 9 8 9 14 16 19 17 15 14 13 13 14 13 13 13
18 18 18 18 19 19 18 17 18 18 18 17 17 16 18 15 14 14 13 13 10 9 9 10 10 8 8 10 13 11 12 13 14 15 15 14 14 15 15 15 16 15 16
18 18 19 19 19 19 19 19 17 18 16 19 19 18 17 17 15 12 13 15 14 11 11 14 17 17 17 16 17 15 14 15 16 16 16 17 16 15 15 15 16 16 17
18 18 18 18 19 19 19 20 12 12 11 9 9 13 18 11 10 8 8 7 6 5 12 22 21 19 17 17 18 17 16 15 16 16 17 17 17 17 17 16 16 16 17
18 18 17 17 18 18 19 18 20 15 9 9 9 8 8 8 7 7 7 6 6 7 20 22 20 19 18 17 18 18 16 15 17 17 17 17 17 18 17 17 17 17 17
21 18 18 19 19 19 19 19 19 19 20 18 12 11 10 9 9 8 8 8 10 11 24 21 19 20 17 19 19 19 17 17 19 18 18 19 19 18 18 18 17 18 18
20 21 19 19 20 19 18 19 19 20 20 20 20 16 14 11 10 9 8 11 14 16 19 20 18 18 19 19 22 23 20 20 20 21 20 20 19 19 19 18 18 18 17
22 19 20 20 20 20 19 20 20 20 21 21 21 20 21 23 25 25 21 20 23 21 19 19 19 19 20 21 25 24 21 24 24 25 24 22 20 20 19 19 19 19 17
22 22 20 21 21 21 21 22 21 21 21 22 22 20 14 19 20 23 23 22 20 21 20 20 20 20 21 22 26 24 23 22 25 27 26 22 21 21 21 20 19 18 17
21 22 22 23 24 23 23 21 20 22 24 25 24 22 15 19 22 20 18 18 19 20 19 19 21 21 21 23 24 23 25 25 27 29 26 22 22 22 21 21 20 17 17
23 24 26 26 24 22 24 26 26 26 27 28 26 24 26 26 25 24 23 23 22 20 21 20 20 20 21 23 24 22 24 23 26 30 25 23 23 23 22 21 19 18 18
27 25 24 24 25 26 27 27 27 26 27 27 29 28 24 26 26 22 20 18 19 21 19 19 20 20 21 23 25 26 27 24 29 25 27 23 23 22 22 21 17 18 19
27 27 27 26 29 28 28 28 27 29 29 27 27 26 26 24 23 22 20 18 19 19 19 20 21 21 22 24 25 28 27 22 24 25 27 24 23 23 22 18 18 19 21
28 28 28 28 29 29 30 28 28 27 27 27 26 25 25 24 23 22 20 19 19 20 20 21 21 22 23 24 26 25 24 22 23 23 24 23 21 18 16 18 20 23 23

GFSGL_con_lsi_039.txt.gz
Lid_Strength_Index
16 16 17 17 16 17 17 17 18 18 18 17 17 17 17 18 17 18 18 17 17 17 16 16 15 15 15 15 15 14 14 15 16 15 14 12 13 13 12 12 11 12 12
16 17 17 17 17 17 17 18 18 18 17 17 17 17 18 18 17 18 17 17 17 16 15 15 15 13 15 15 15 15 15 14 15 15 13 13 13 12 12 13 11 11 12
17 17 18 18 18 18 18 18 18 18 18 18 18 18 18 18 18 17 17 16 16 15 14 14 14 14 14 14 15 15 14 13 13 13 14 12 12 12 13 12 12 12 11
17 18 18 18 18 18 18 18 18 18 18 18 18 18 18 18 17 17 17 16 15 14 13 13 13 14 14 14 14 13 12 13 13 13 13 13 13 12 12 13 13 12 12
17 18 18 18 18 18 18 17 17 17 18 18 18 18 18 18 17 17 16 15 15 14 14 13 13 13 11 10 11 12 12 13 13 13 13 13 13 12 13 12 13 12 12
17 18 18 18 18 17 17 17 17 18 18 18 18 18 19 17 14 13 14 14 13 13 14 13 13 12 11 9 8 8 8 12 19 17 12 12 12 12 11 12 12 13 14
17 18 18 17 17 17 17 17 18 18 18 19 19 18 18 17 12 11 11 13 13 13 13 13 12 11 11 11 10 8 8 7 7 8 10 11 11 10 10 11 11 12 13
17 17 17 17 17 17 17 18 18 19 19 19 18 18 17 16 12 11 10 13 13 13 13 12 12 11 11 11 10 10 10 9 9 8 8 9 9 8 9 11 12 13 13
16 16 16 16 17 17 18 18 18 18 19 19 18 18 17 17 11 10 10 13 13 13 12 12 11 11 9 7 9 11 9 9 7 6 6 6 6 6 8 11 14 15 16
16 16 16 16 16 17 17 18 20 19 17 17 17 17 17 18 12 10 10 13 17 14 13 11 9 9 7 6 8 11 11 11 10 12 12 11 9 10 9 10 12 16 15
16 17 17 16 16 16 17 19 20 18 18 19 18 18 17 17 16 10 9 12 13 15 14 12 10 8 7 6 6 8 11 9 15 16 15 13 12 12 12 11 11 13 15
17 17 17 17 17 18 18 21 20 19 18 19 19 19 18 17 15 11 10 9 9 14 14 11 11 8 7 6 6 7 6 8 19 20 19 15 14 13 13 12 12 12 12
18 18 19 20 19 19 18 19 19 18 17 18 18 18 18 17 16 11 10 9 7 9 10 9 8 7 6 7 8 7 10 16 18 21 18 15 13 13 13 13 13 13 13
19 20 21 20 21 22 19 18 17 18 18 18 18 18 19 18 16 15 14 12 9 8 8 10 9 8 8 9 13 11 13 15 15 16 15 13 13 14 15 14 15 15 16
21 21 21 21 20 21 20 19 18 19 17 20 18 19 20 19 16 13 13 16 16 13 13 19 18 14 13 15 17 17 16 16 17 16 15 15 15 16 15 15 16 16 17
20 20 20 20 21 21 20 21 14 14 12 11 11 16 19 13 10 9 8 8 7 8 11 12 15 13 14 15 17 17 16 17 15 16 18 17 17 17 17 17 17 17 18
19 20 20 20 20 20 21 20 20 18 11 10 10 9 9 10 9 8 7 6 6 6 9 14 15 16 16 15 16 17 16 15 17 19 18 19 18 19 19 19 18 18 18
22 19 19 20 20 21 21 21 21 22 21 20 14 12 11 10 9 9 8 8 11 11 16 18 17 17 17 17 17 16 17 17 20 20 20 23 24 21 20 20 20 20 19
22 22 22 22 23 21 21 21 22 21 21 20 18 16 16 13 12 11 11 17 19 17 19 19 19 18 18 18 18 19 20 20 22 26 26 26 26 24 21 21 20 20 20
23 21 22 23 23 22 22 22 20 20 21 21 23 22 23 24 25 24 25 25 24 23 23 21 21 21 19 20 21 21 22 22 23 28 25 26 26 25 21 21 21 21 21
25 24 23 24 24 23 21 21 21 22 24 26 25 22 15 22 23 25 27 26 24 23 21 23 25 25 23 21 22 22 22 21 22 28 27 28 29 26 24 21 22 22 21
26 26 26 23 22 22 23 23 24 26 28 27 26 25 16 25 27 29 28 27 26 22 21 20 21 22 20 20 20 20 21 21 23 29 28 28 28 26 26 23 23 22 21
24 24 25 26 25 24 26 29 29 30 30 31 29 27 29 30 28 27 26 25 26 25 24 22 21 21 21 19 19 20 21 21 23 28 29 29 29 28 29 24 24 23 20
25 26 27 29 28 30 30 31 31 29 30 30 32 31 27 27 27 26 25 25 26 26 27 23 21 20 20 19 20 22 22 23 27 28 29 28 26 26 26 24 23 22 19
31 30 29 30 32 31 32 32 30 32 32 30 28 29 28 27 26 26 26 25 24 26 26 25 21 20 20 21 21 22 23 21 24 27 31 32 28 28 25 24 23 22 19
29 30 31 32 32 33 32 31 31 30 29 28 27 28 28 27 26 26 25 25 25 26 27 24 21 21 22 22 22 22 22 21 24 24 27 28 28 26 24 23 20 19 19

GFSGL_con_lsi_042.txt.gz
Lid_Strength_Index
16 16 16 17 17 17 18 18 18 18 19 19 19 19 18 18 18 19 19 18 18 18 18 18 18 17 18 18 17 16 16 16 17 16 15 14 14 13 12 11 11 11 10
16 17 17 17 17 18 18 18 19 18 19 19 19 19 19 19 19 19 19 18 19 18 18 18 18 16 17 17 16 16 16 16 16 17 15 14 13 12 12 12 10 10 10
17 17 18 18 18 18 18 19 19 19 19 19 19 19 19 19 19 18 18 18 18 18 17 17 17 17 16 16 16 16 16 14 15 15 15 13 12 11 11 11 11 10 9
17 17 18 18 18 18 18 19 18 18 18 19 19 19 18 18 18 18 18 18 18 17 17 16 16 16 15 15 15 15 14 14 14 14 14 13 12 10 10 11 12 10 10
17 18 18 18 18 19 18 18 18 18 18 18 18 18 18 18 18 18 18 18 18 17 17 15 15 14 12 12 14 14 14 14 14 13 13 12 12 11 11 11 11 11 11
17 18 18 18 18 18 18 18 18 18 19 18 18 19 19 18 15 14 16 17 17 17 16 15 14 14 12 10 10 9 10 14 22 19 12 11 11 10 10 11 11 12 15
18 18 18 18 18 17 17 17 18 18 18 18 18 19 19 19 14 13 13 17 16 16 15 14 14 13 13 13 11 9 9 8 7 9 10 10 10 9 10 10 12 12 13
18 17 17 17 17 17 17 17 18 18 18 18 19 19 19 18 14 12 12 15 16 15 14 14 14 13 13 13 13 12 12 11 10 9 8 8 8 7 8 10 11 13 12
18 17 17 17 17 17 17 17 17 18 18 19 19 19 19 19 13 12 12 15 14 14 13 13 13 13 11 9 11 13 11 10 7 6 5 6 6 6 8 11 16 15 16
17 16 16 16 16 17 16 17 17 17 17 18 18 19 19 19 13 11 11 14 17 14 14 13 11 12 10 9 10 12 12 11 10 13 12 11 10 11 9 10 12 15 15
16 16 16 16 16 16 16 17 19 18 19 19 19 20 20 19 18 11 9 13 13 15 15 14 13 10 8 7 7 9 10 9 12 16 16 15 13 13 12 11 10 12 15
16 17 16 16 16 17 17 19 19 18 19 20 21 23 20 18 15 12 9 8 10 15 15 13 13 9 8 7 7 6 5 7 20 21 21 17 15 14 12 11 11 11 12
17 17 17 17 18 18 18 20 20 20 19 20 19 18 18 18 17 11 10 9 8 10 11 12 9 8 7 7 6 6 9 16 19 22 20 16 14 13 12 12 12 12 12
17 18 19 19 20 20 19 19 19 19 19 18 19 17 20 19 17 16 15 14 11 9 9 10 9 8 8 8 11 9 12 14 15 17 16 14 13 14 15 13 14 15 16
19 20 20 20 20 21 22 20 19 22 17 19 18 19 21 20 18 14 15 17 16 14 13 21 20 15 13 13 15 14 14 14 15 16 17 16 15 15 15 14 15 17 18
21 21 21 21 22 22 22 24 16 15 13 12 12 17 21 14 12 11 10 9 9 9 12 14 15 15 14 13 13 13 15 15 15 16 18 18 17 17 17 16 17 19 19
20 22 22 22 22 22 23 21 21 18 12 11 10 10 10 12 10 9 8 8 7 7 9 10 12 14 14 14 14 15 16 15 15 16 17 17 18 19 19 20 19 19 20
24 21 21 22 21 22 21 21 22 23 22 21 15 13 11 11 11 10 10 10 16 17 20 20 18 16 15 15 15 16 16 17 17 17 18 20 21 25 23 21 21 21 21
23 23 24 23 23 22 22 23 23 23 23 24 20 16 17 14 14 13 13 25 27 27 26 24 23 21 18 18 19 19 19 19 20 20 21 23 22 27 26 22 21 21 21
24 22 23 23 23 22 22 22 23 23 22 20 21 20 22 25 27 29 30 31 32 31 31 31 27 26 24 24 24 22 22 23 21 21 22 23 23 25 24 23 22 22 23
24 24 24 25 24 25 25 24 22 21 22 24 26 24 17 26 27 29 30 31 32 31 29 29 28 28 24 24 23 23 23 21 21 21 22 24 25 27 28 22 22 23 23
26 27 26 26 25 24 22 22 22 24 27 27 27 26 18 27 30 31 32 32 31 30 28 29 25 27 23 23 22 22 22 22 21 20 23 24 25 29 30 25 24 24 24
26 26 25 24 24 24 26 28 29 29 30 31 30 28 31 32 32 32 31 31 31 28 27 30 26 25 26 26 21 20 21 21 20 21 23 25 28 31 33 30 26 25 25
24 24 25 28 28 29 29 30 30 29 29 31 34 33 30 31 33 31 30 29 29 28 28 28 26 25 26 26 24 22 21 20 20 22 24 26 28 31 32 31 28 25 24
27 26 27 28 30 29 29 31 30 32 32 31 32 32 32 32 31 31 30 29 28 27 26 26 26 26 25 24 23 22 21 19 20 23 26 30 30 32 34 32 27 25 24
28 27 26 26 26 27 30 28 29 30 31 31 32 32 31 30 29 29 28 28 27 26 26 26 26 25 26 25 24 22 20 19 21 22 27 29 30 30 32 29 28 25 22

GFSGL_con_lsi_045.txt.gz
Lid_Strength_Index
16 16 17 17 17 17 17 18 18 18 19 19 19 19 19 19 19 19 20 20 19 19 19 19 19 19 19 19 19 19 19 18 20 18 16 16 15 15 14 13 12 12 10
16 17 17 18 18 18 18 18 18 19 19 19 19 19 19 19 19 19 19 19 19 19 19 19 19 18 19 19 19 19 19 18 18 19 17 16 16 14 14 14 12 10 9
17 17 18 18 18 18 18 19 18 19 19 19 19 19 19 19 19 19 19 19 19 19 19 19 19 19 19 19 19 19 18 16 17 17 17 15 14 13 13 12 11 10 8
17 18 18 18 18 18 18 19 18 19 19 19 19 19 19 19 18 18 18 19 19 18 18 18 18 18 18 18 18 18 17 17 16 16 16 15 14 12 12 12 12 10 10
17 18 18 18 18 18 19 19 19 19 19 19 19 19 19 18 18 18 18 18 19 19 18 17 18 17 15 16 17 17 16 16 16 16 15 14 14 13 13 11 11 11 10
17 17 17 18 18 18 18 19 19 19 19 19 19 18 18 18 15 15 17 18 18 18 18 18 18 17 15 13 11 10 12 16 21 20 14 14 13 12 11 11 11 12 13
17 18 18 18 18 18 18 19 19 19 19 19 19 19 18 18 14 14 14 18 18 18 18 18 17 16 16 16 13 10 10 9 9 11 13 11 12 11 10 10 11 12 12
18 18 18 18 18 18 18 18 19 19 19 19 19 18 18 18 14 13 13 17 18 18 18 17 17 16 15 15 15 15 14 13 12 11 11 10 10 8 8 9 11 14 13
18 18 18 18 18 18 18 19 19 18 19 18 18 18 18 18 14 13 13 17 16 17 17 17 16 15 13 11 13 15 14 12 9 7 6 6 6 6 7 11 20 22 17
18 17 17 17 17 18 18 18 18 17 17 18 18 18 18 17 14 12 12 16 18 17 16 15 13 13 11 10 11 15 15 12 12 13 12 11 10 11 9 11 13 20 16
17 17 17 17 17 17 17 17 17 17 17 18 18 18 18 18 18 12 12 16 15 17 16 15 14 10 9 8 8 11 12 10 12 12 14 14 14 13 13 12 11 12 15
17 17 17 16 16 16 16 16 17 17 17 18 18 19 19 19 17 14 12 11 12 16 15 14 14 11 9 8 8 7 7 7 15 18 21 17 16 15 13 12 11 11 12
16 15 15 16 16 15 15 16 17 17 18 18 19 19 19 20 19 14 12 10 9 10 13 12 10 9 8 8 7 7 7 13 15 17 16 16 15 14 13 13 13 13 13
16 16 16 16 17 17 16 18 18 19 19 19 20 19 20 21 20 18 17 15 12 10 10 12 10 8 8 8 11 10 10 12 13 15 16 15 14 15 16 14 16 15 16
17 19 19 18 18 20 20 20 19 22 18 19 20 20 22 22 20 16 17 19 20 15 15 22 20 16 13 13 12 12 12 13 14 14 15 17 16 16 16 15 16 19 20
19 20 20 20 21 21 21 23 17 17 15 15 15 18 22 15 13 12 11 10 10 9 14 16 15 14 14 14 14 13 15 14 14 15 16 18 18 17 17 18 17 19 20
19 21 21 21 22 22 23 21 21 20 14 13 12 12 13 14 11 10 10 9 9 9 12 16 17 17 16 15 15 15 14 15 14 16 16 17 20 20 20 21 19 19 21
23 23 23 24 23 24 23 22 21 20 20 22 14 12 12 12 12 12 11 15 20 19 21 23 26 24 21 19 18 17 18 17 17 18 18 19 20 21 24 23 21 25 23
23 24 25 25 25 23 23 23 23 23 24 25 23 19 19 14 14 14 16 25 29 30 31 30 31 30 28 27 24 23 22 21 20 21 22 21 22 24 24 22 22 21 21
24 23 24 24 25 24 24 24 24 24 24 23 24 23 23 22 24 25 31 33 33 33 34 34 33 34 33 31 29 27 27 27 25 24 22 22 23 23 22 23 23 22 26
26 26 25 26 26 26 26 24 24 24 24 26 23 21 18 23 27 30 31 32 33 35 34 34 33 34 32 31 31 30 31 28 27 23 22 23 23 25 23 22 23 25 23
28 28 27 27 26 25 26 25 26 25 24 24 24 23 17 26 30 30 32 34 34 35 34 35 33 32 31 30 28 28 28 27 27 22 21 23 23 23 23 24 25 27 25
26 26 27 28 27 26 28 29 28 27 27 27 28 27 29 32 33 33 33 34 35 33 33 34 33 30 30 32 30 25 24 26 25 21 21 22 22 23 25 27 31 33 29
27 27 27 29 29 29 29 30 27 27 30 31 33 33 30 32 34 33 33 33 34 33 34 33 32 30 29 30 31 29 26 25 25 22 21 22 22 24 26 31 33 31 28
29 28 28 29 30 29 28 30 28 31 33 31 32 32 32 33 33 33 33 33 33 33 30 29 30 29 27 27 27 29 29 21 23 22 23 24 24 27 33 34 33 32 29
30 28 29 30 30 30 28 27 30 30 30 31 32 33 31 30 30 32 31 32 30 29 29 28 29 28 27 26 26 25 24 20 21 20 23 25 28 30 34 33 34 31 28

GFSGL_con_lsi_048.txt.gz
Lid_Strength_Index
14 15 16 15 15 16 16 17 17 18 19 18 18 19 19 19 19 19 19 20 20 20 20 20 20 19 20 20 19 20 20 20 21 20 19 19 18 18 16 15 14 13 12
15 16 17 17 16 17 17 17 18 18 18 18 19 19 19 19 19 19 20 20 20 20 20 20 20 19 20 20 20 20 20 20 20 21 20 19 18 16 16 15 14 12 12
16 16 17 18 17 17 17 18 18 18 19 19 19 19 19 19 19 19 19 19 19 19 19 19 20 20 20 20 21 20 20 18 20 20 20 18 17 16 15 14 13 13 11
16 16 17 18 17 17 18 18 18 19 19 19 19 19 19 19 19 19 19 19 19 18 18 19 19 19 19 20 20 20 19 20 20 20 19 18 17 15 15 15 14 12 12
16 17 17 17 17 17 18 18 18 19 19 19 19 19 19 19 19 19 19 19 19 19 19 18 19 19 17 17 19 19 19 20 19 19 18 18 16 16 15 14 14 13 12
16 16 16 17 18 18 18 18 19 19 19 19 19 20 20 19 17 16 18 18 18 19 19 19 18 18 16 14 14 14 16 19 24 22 17 16 15 15 14 14 13 13 15
16 16 17 18 18 18 18 19 19 19 19 20 20 20 20 19 16 14 15 18 18 18 19 18 18 17 18 18 15 12 12 11 11 15 15 14 14 13 13 13 12 13 13
16 17 17 18 18 18 18 19 19 19 19 20 20 19 19 19 15 14 14 17 18 18 18 18 18 17 17 18 18 18 16 15 13 13 13 13 13 11 11 10 12 15 13
17 17 17 17 18 18 19 19 19 19 19 19 19 19 19 18 14 13 13 16 17 17 18 17 17 17 15 13 16 17 16 14 11 9 9 8 7 6 8 13 20 22 17
17 17 17 17 17 18 18 19 19 18 19 19 19 18 18 17 14 12 13 15 16 16 17 17 15 16 14 12 13 15 16 14 14 14 12 11 10 12 10 12 13 20 18
18 18 18 17 17 17 18 18 18 18 19 19 18 18 17 17 16 13 12 15 15 16 16 16 16 13 11 9 9 12 13 12 13 12 14 14 14 14 13 13 12 13 15
19 19 18 17 17 17 17 18 18 18 18 19 18 18 18 18 16 14 12 12 13 15 16 16 15 11 10 9 9 8 8 8 11 16 17 16 16 15 14 13 12 12 12
18 18 17 17 16 16 17 17 18 17 18 18 18 18 18 19 18 14 13 12 11 13 14 14 12 10 9 9 8 8 8 9 13 16 17 16 15 14 13 13 13 13 13
16 16 16 16 16 16 15 16 16 17 17 17 18 17 17 20 19 19 17 15 13 12 12 15 11 10 9 10 12 10 11 11 12 13 13 13 14 15 15 15 17 17 19
16 17 16 16 16 17 18 17 17 18 15 16 17 17 20 21 20 18 17 19 18 16 20 23 21 19 18 17 16 13 12 11 13 13 14 15 15 15 16 16 17 21 23
19 19 18 19 19 19 20 21 17 17 15 15 16 18 22 17 15 13 12 12 12 12 20 21 20 18 16 15 15 15 16 16 16 16 16 16 16 16 17 18 18 23 24
20 20 20 21 21 21 21 21 21 18 15 15 15 16 16 15 13 12 11 10 11 12 17 20 21 22 21 19 19 19 18 18 17 18 17 18 17 18 19 21 21 21 24
22 22 22 23 22 22 22 22 21 20 21 23 14 13 11 11 11 11 12 15 19 19 20 21 22 22 25 24 24 23 23 22 22 21 20 21 21 21 23 25 23 24 23
23 24 24 24 24 23 23 24 24 23 23 23 22 19 19 13 13 15 17 21 22 24 25 27 31 31 30 31 31 30 28 27 26 27 28 26 24 24 25 23 22 21 21
26 24 26 26 26 25 24 24 25 25 25 24 26 27 28 25 25 27 27 27 25 26 27 32 34 36 36 35 34 34 32 32 31 32 31 28 24 23 22 24 23 22 22
27 26 26 26 27 27 27 26 26 26 26 27 27 24 20 23 23 26 29 30 30 33 34 35 35 36 37 36 36 34 34 31 33 32 31 29 26 28 24 22 21 22 22
27 28 28 29 28 27 28 27 27 26 26 24 24 22 18 24 26 26 27 31 34 34 36 35 35 36 35 34 33 32 32 31 33 32 29 29 28 27 24 22 22 22 23
27 28 28 29 28 28 28 28 25 25 25 26 26 25 27 28 27 28 30 33 35 34 36 37 36 33 33 33 32 29 28 28 28 30 28 29 28 25 23 23 23 25 27
28 28 28 30 29 29 29 30 29 27 27 28 30 29 27 28 30 31 33 35 34 36 37 36 34 32 31 31 33 33 31 29 31 28 26 26 26 23 23 24 25 29 31
30 29 30 30 31 32 31 32 30 31 31 29 27 28 28 29 29 30 29 33 34 35 32 32 31 31 29 29 29 31 30 23 27 27 29 28 28 27 29 32 33 35 33
32 32 33 33 33 34 33 31 31 28 27 26 27 28 27 27 27 30 31 33 32 31 30 30 29 29 28 27 27 26 25 22 24 23 26 27 28 30 33 33 35 34 31

GFSGL_con_lsi_051.txt.gz
Lid_Strength_Index
11 12 12 12 13 14 14 14 16 17 17 18 18 18 18 18 17 17 17 17 17 18 18 18 18 18 18 18 17 18 18 17 18 17 17 17 17 16 16 15 14 14 13
12 13 13 13 14 15 14 15 16 17 18 18 18 18 18 18 17 17 18 18 18 18 18 19 19 19 18 18 18 18 18 18 18 19 18 18 17 16 15 15 15 14 13
13 14 14 15 14 14 15 16 17 17 18 18 18 18 18 18 18 18 18 18 18 18 18 19 19 18 19 19 19 18 18 18 18 18 18 17 17 16 16 15 14 13 12
14 14 15 15 15 15 15 16 17 17 18 18 18 18 18 18 18 18 18 18 18 18 18 18 18 18 18 18 18 18 18 18 18 19 19 18 17 16 16 16 15 13 12
14 14 15 15 15 15 16 16 17 17 18 18 18 18 18 18 18 18 18 19 19 19 19 18 17 17 16 17 17 18 18 18 18 18 18 18 17 17 17 15 15 13 12
14 14 14 16 16 16 16 17 17 18 18 18 19 19 19 19 16 16 18 19 19 19 19 17 17 16 16 14 14 15 16 17 18 18 17 17 17 16 15 14 14 14 14
14 15 16 16 17 16 17 17 18 18 18 19 19 19 19 18 15 15 16 19 19 18 17 17 17 17 17 16 14 13 13 13 14 16 16 16 15 14 13 13 13 13 13
15 15 16 17 17 17 17 17 18 18 19 19 19 19 19 19 15 15 16 19 18 17 16 17 17 17 17 17 17 17 16 15 14 13 14 13 13 11 11 11 12 13 13
16 16 16 16 17 17 18 18 18 18 18 18 18 19 19 19 15 15 16 18 17 16 16 17 17 17 16 14 16 17 16 15 14 12 11 10 9 8 7 11 13 14 13
17 16 17 17 18 18 17 18 17 17 18 18 19 18 18 19 15 15 14 15 15 16 16 17 15 16 14 13 14 15 16 15 15 14 12 11 9 10 9 10 11 14 14
17 18 18 17 18 17 18 18 18 18 19 19 19 19 18 18 16 13 12 14 14 15 15 15 15 13 12 12 11 13 14 13 13 12 13 12 11 12 12 11 11 12 14
18 18 18 18 17 17 18 18 17 18 18 19 19 19 18 18 16 14 13 12 12 14 14 14 14 13 11 11 11 10 9 9 9 11 12 13 13 12 12 12 12 12 11
19 19 18 18 17 17 17 17 18 17 18 18 18 18 19 19 17 14 13 11 10 12 13 13 12 12 12 11 9 8 9 9 9 12 13 13 12 11 12 13 12 12 12
16 17 17 17 17 16 16 16 16 16 16 17 17 17 17 18 18 17 15 13 12 11 11 13 13 12 11 10 11 10 11 11 11 11 11 11 12 13 13 13 14 15 16
15 16 15 15 16 16 16 16 16 15 14 15 16 16 16 17 16 15 15 16 16 16 21 19 18 16 14 14 14 14 13 12 12 12 12 13 13 14 14 14 15 16 17
17 17 17 16 16 17 18 19 15 15 13 13 14 15 18 16 15 14 14 14 14 14 19 18 17 17 16 15 15 15 14 14 14 14 14 14 15 15 15 15 16 17 19
20 19 19 19 19 19 19 19 20 17 14 15 15 15 16 15 14 13 12 12 11 12 17 17 18 17 18 17 17 17 17 16 16 16 16 16 16 16 17 17 18 18 19
24 23 23 23 22 21 21 21 19 17 17 17 14 15 14 13 12 12 11 15 19 19 19 19 19 19 19 20 20 19 19 19 19 18 18 19 19 19 19 19 20 21 20
23 24 25 24 23 23 22 22 22 22 22 22 19 17 18 12 14 16 17 20 20 20 21 21 22 23 23 23 23 23 24 22 21 22 21 23 22 21 22 22 21 21 21
24 24 25 25 24 24 24 24 23 22 22 23 22 23 24 22 25 26 25 24 23 24 24 24 26 26 26 25 25 26 25 24 23 24 23 23 22 22 21 22 22 22 21
27 26 26 26 26 26 25 25 24 24 24 25 25 24 21 24 24 24 25 25 24 25 26 25 27 27 28 28 27 26 26 24 25 25 25 24 24 23 23 21 21 22 21
27 28 27 27 27 26 27 26 26 26 26 25 25 21 19 24 24 25 26 26 27 27 28 27 27 27 27 26 26 25 25 25 25 25 25 25 24 23 23 22 22 21 21
26 27 28 29 28 28 28 28 27 26 26 26 25 25 25 26 26 25 26 27 27 27 29 30 27 27 27 29 28 26 25 25 24 25 25 25 25 24 23 23 23 23 23
28 28 28 30 29 29 29 29 28 29 28 29 29 29 27 28 28 26 26 26 27 27 29 29 28 27 27 28 29 29 28 26 26 26 25 24 24 25 23 24 23 24 24
31 30 31 31 33 32 32 32 30 33 32 30 31 29 29 28 27 27 26 28 27 28 26 27 28 28 27 27 27 28 29 23 23 26 27 25 25 25 25 25 25 26 28
32 32 35 34 34 35 34 32 33 31 32 30 30 30 29 29 28 27 27 28 27 26 26 26 27 27 27 26 26 25 25 22 23 24 25 25 26 26 27 28 29 29 28

GFSGL_con_lsi_054.txt.gz
Lid_Strength_Index
8 7 7 7 7 7 8 9 10 12 12 13 15 16 16 16 15 14 14 14 15 15 15 15 16 15 16 16 16 16 15 15 15 16 15 15 15 14 14 14 14 13 13
8 8 8 8 8 8 9 10 11 12 13 13 16 16 17 17 17 15 15 15 15 16 16 16 17 17 17 17 17 16 15 15 15 16 16 16 15 14 14 14 14 14 13
8 8 9 9 9 9 9 11 12 12 13 14 16 17 17 17 17 16 15 16 15 15 16 16 17 17 18 18 17 16 15 17 16 16 16 15 15 14 14 14 13 13 13
9 9 9 9 9 9 10 12 13 13 14 16 16 17 17 17 17 17 16 16 16 16 16 16 17 18 18 17 16 16 16 16 16 16 16 16 15 15 15 15 14 12 13
9 10 10 10 10 10 11 13 14 14 15 16 17 17 17 18 18 17 17 16 17 17 17 17 17 17 16 15 16 15 16 16 16 16 16 16 15 15 15 14 15 13 13
10 10 10 10 12 12 13 14 15 15 16 17 17 18 18 18 16 15 17 18 17 18 18 18 17 17 16 14 14 14 14 14 15 15 15 16 15 15 14 14 14 15 16
11 11 12 12 13 13 14 15 15 16 17 17 17 17 18 18 15 15 16 18 18 18 18 18 18 17 15 15 13 13 13 13 12 14 15 14 14 13 13 14 14 14 14
12 12 13 13 14 14 14 15 15 16 17 17 17 17 18 18 15 15 16 17 17 17 17 17 16 15 15 16 15 15 14 13 12 12 12 12 11 11 12 13 12 12 11
13 13 13 14 14 14 15 15 15 16 17 17 17 17 18 17 14 14 16 17 17 18 17 15 14 15 15 13 15 15 15 14 13 11 11 10 11 11 11 11 11 13 13
14 13 14 14 15 15 15 15 15 15 16 17 17 17 18 16 14 14 16 17 17 17 15 15 15 14 14 13 13 14 15 14 13 13 13 13 12 11 9 9 9 11 12
15 15 15 14 15 14 15 15 15 16 17 18 18 17 17 16 15 14 14 16 16 14 13 14 15 13 12 12 12 13 13 11 12 12 14 13 11 10 10 9 9 10 11
16 16 16 16 15 15 16 15 16 16 17 18 18 18 17 17 15 14 13 14 13 14 13 13 14 13 12 11 11 10 10 10 11 11 11 10 11 11 10 10 10 10 9
17 17 17 16 15 15 16 16 16 16 17 17 17 17 17 17 16 14 13 12 12 13 13 13 13 12 11 11 10 9 11 11 10 10 10 11 11 11 11 11 11 10 11
17 17 16 16 16 15 15 15 15 15 16 16 16 16 16 16 16 14 14 12 12 12 11 12 11 11 11 12 13 10 10 10 10 10 11 11 11 12 12 11 11 12 12
15 15 15 15 15 15 15 14 14 14 13 14 14 13 14 16 15 14 14 13 12 11 14 15 15 14 13 12 12 12 11 11 11 11 12 12 12 11 11 11 12 13 14
15 15 14 14 14 15 15 16 14 13 13 13 13 12 13 13 12 12 12 12 12 12 16 15 14 13 12 12 13 13 13 14 13 13 13 13 13 13 13 13 13 15 16
14 15 16 16 16 16 16 16 16 15 14 14 14 13 14 13 13 12 12 12 12 12 14 14 13 14 14 14 15 15 15 15 16 15 15 15 14 15 15 16 15 16 18
17 17 15 15 15 16 16 16 15 14 15 15 14 14 13 13 12 12 11 12 14 15 14 15 15 16 16 16 17 17 16 17 16 16 16 16 17 17 17 17 17 19 19
18 18 18 17 17 17 16 16 16 15 15 16 15 15 13 13 14 14 14 14 15 17 17 17 17 18 18 18 18 19 18 18 17 17 17 18 18 18 18 18 18 20 20
20 21 19 18 18 18 17 17 17 16 16 16 14 16 17 15 15 18 19 18 18 18 19 19 20 21 20 20 20 20 19 19 18 18 18 18 18 18 19 19 19 19 19
20 21 21 19 19 18 18 17 17 16 17 17 17 18 18 16 18 18 20 20 20 20 21 20 21 21 21 21 21 20 20 18 19 19 19 19 19 20 19 19 19 19 19
21 21 21 21 21 20 19 18 17 17 18 18 18 18 17 18 19 19 20 21 21 21 21 21 21 21 21 21 21 20 20 20 19 20 19 20 20 20 20 20 20 19 19
22 22 22 22 22 22 20 20 19 19 18 18 18 19 19 19 20 20 20 21 22 22 23 23 22 22 22 23 22 21 20 20 20 20 20 20 20 20 20 20 20 21 20
22 22 22 22 22 21 21 21 21 22 20 20 20 20 20 21 21 21 21 21 22 22 23 23 23 23 22 22 22 22 22 22 20 21 21 20 20 20 20 20 20 21 21
23 23 23 23 23 23 22 22 22 22 22 21 21 21 21 21 22 22 22 22 23 22 22 23 23 23 23 24 23 23 22 21 21 22 21 21 21 21 21 21 21 21 22
23 23 23 23 23 23 22 22 22 22 22 21 22 22 22 22 22 22 22 23 23 22 22 22 22 23 23 22 22 22 22 21 22 22 20 20 20 21 21 22 23 22 23

GFSGL_con_lsi_057.txt.gz
Lid_Strength_Index
6 6 6 6 5 5 6 5 6 6 7 9 10 11 12 13 12 12 13 13 13 14 14 15 15 15 16 16 16 16 16 16 16 17 15 14 15 15 15 15 14 14 14
6 7 7 6 6 6 6 6 6 7 8 9 10 12 12 14 14 13 14 14 14 15 15 16 16 16 16 16 16 17 16 16 16 17 16 16 16 14 14 15 15 14 14
6 7 7 7 7 6 6 6 7 8 11 11 13 14 14 15 16 15 15 15 15 16 15 16 17 17 17 17 17 17 16 18 17 16 16 16 15 15 15 15 14 13 13
7 7 7 7 7 7 7 7 8 10 12 12 14 14 14 15 16 16 16 16 16 16 16 16 17 17 17 17 17 17 17 17 17 17 16 16 16 15 15 16 15 14 14
7 8 8 8 7 7 8 8 10 11 12 13 15 15 16 16 17 16 16 16 16 17 17 17 17 16 16 16 17 17 17 17 16 16 17 16 16 16 16 15 15 14 13
8 8 8 9 9 10 10 11 12 13 14 15 16 16 17 17 15 14 16 17 17 17 18 18 17 16 15 15 15 15 16 15 15 16 16 16 16 15 15 15 15 15 16
9 11 11 11 11 11 12 13 13 14 14 16 16 16 17 17 15 14 15 17 17 17 18 17 17 16 16 16 15 15 14 13 13 15 16 15 15 14 14 14 14 14 14
11 12 12 12 13 13 13 13 14 14 15 16 16 16 16 17 14 14 15 17 17 17 17 17 16 17 17 17 16 15 14 14 14 14 14 14 14 13 12 13 13 13 13
12 12 12 13 14 13 14 14 14 15 15 16 16 16 17 17 14 14 15 16 17 17 16 16 15 16 15 14 15 16 16 15 13 12 11 11 10 10 10 12 14 15 15
13 13 13 13 14 14 14 15 15 15 15 16 17 16 16 16 14 13 15 16 17 17 16 16 15 15 13 12 15 16 17 16 15 15 14 13 12 12 10 11 12 14 13
14 14 14 14 15 14 14 14 15 16 17 17 17 17 16 15 14 13 14 16 16 17 17 16 15 13 13 12 12 14 14 13 13 13 14 13 13 13 13 12 11 11 12
15 15 16 15 15 15 15 15 16 16 17 17 18 18 17 15 14 13 13 14 14 16 16 15 14 13 11 11 11 11 11 12 12 12 12 12 12 12 12 11 11 11 10
16 17 16 15 15 14 15 16 16 16 16 17 18 18 17 16 15 13 12 13 13 14 13 13 12 12 11 11 10 10 11 11 11 12 12 11 12 13 13 13 12 12 12
16 16 15 15 15 15 14 15 15 15 16 16 16 16 16 16 16 14 13 12 13 12 12 12 12 12 11 11 11 11 12 11 11 11 12 13 13 14 14 13 14 14 15
15 15 15 15 15 15 14 14 14 14 13 14 14 14 14 15 15 14 13 13 12 11 12 12 12 13 13 12 12 12 11 12 13 13 13 14 14 14 13 13 14 16 17
14 14 14 14 14 14 15 14 12 12 12 12 11 12 13 12 12 13 12 11 11 10 13 13 13 13 13 13 13 13 13 14 14 15 15 15 15 15 15 15 16 18 18
13 14 14 14 15 15 15 15 16 15 13 13 13 13 14 13 13 12 11 11 10 10 14 13 13 13 12 13 14 14 15 16 17 17 16 17 16 16 17 18 18 18 20
13 13 13 14 14 14 14 14 14 15 15 16 14 14 13 13 13 12 11 12 14 13 13 14 13 14 14 15 16 17 17 18 18 18 18 18 19 19 20 20 20 22 22
15 15 15 15 14 15 15 14 14 14 15 16 16 15 14 13 13 13 13 14 14 16 16 16 16 17 18 18 18 19 18 18 18 19 20 22 22 22 23 22 21 21 22
18 18 16 16 16 16 16 16 16 15 15 15 15 17 18 17 16 18 18 17 17 17 18 18 19 19 19 19 20 20 20 22 22 22 21 22 22 22 23 24 24 23 24
19 19 18 18 18 17 16 16 16 16 17 16 18 18 17 16 17 18 19 19 19 19 20 20 21 21 21 21 21 21 21 20 21 22 22 22 24 25 24 22 23 24 24
20 20 20 20 19 20 19 19 18 18 18 18 18 17 16 18 18 19 19 20 21 21 21 21 22 22 23 23 22 21 22 22 22 22 22 24 25 25 25 24 24 24 24
20 20 21 21 21 21 20 20 20 18 18 18 18 19 19 20 20 20 20 22 22 23 23 24 23 25 24 25 23 22 22 22 21 22 22 24 25 26 25 25 25 26 26
21 21 22 22 22 22 21 21 21 22 21 20 20 20 20 21 21 22 23 22 23 24 24 26 26 25 25 25 25 25 25 23 21 23 24 24 26 25 26 25 25 25 24
22 23 23 23 22 22 21 22 22 22 22 21 21 21 21 22 22 23 23 24 25 25 25 26 25 25 26 26 25 24 22 20 22 23 24 26 26 27 27 27 26 26 25
22 22 22 22 22 22 22 22 22 22 22 22 22 22 22 22 22 23 23 24 25 25 25 24 24 24 25 24 24 23 22 20 22 21 23 22 23 25 26 26 28 27 27

GFSGL_con_lsi_060.txt.gz
Lid_Strength_Index
7 7 7 7 7 7 7 7 7 7 8 8 8 8 10 10 10 9 11 11 11 12 13 14 15 15 16 16 17 17 17 17 19 19 17 17 16 17 16 16 16 15 15
8 8 8 8 7 7 8 8 8 8 9 10 11 12 13 13 12 11 12 11 12 13 14 15 16 15 16 17 17 18 18 17 17 19 18 18 18 16 16 17 16 15 16
8 8 8 8 8 8 8 8 8 9 10 12 12 13 14 13 14 12 12 12 12 13 14 15 15 16 17 17 17 17 17 17 17 17 19 18 17 17 17 17 16 16 15
8 8 9 9 8 8 8 9 9 10 12 13 14 13 14 14 15 14 14 14 14 14 15 15 16 16 17 17 17 17 18 18 18 18 18 18 17 16 16 17 17 16 16
8 9 8 10 9 9 10 11 11 12 13 14 15 15 15 15 15 15 15 15 15 16 16 16 16 16 15 16 17 17 17 18 18 18 18 17 17 17 17 16 17 16 16
9 9 9 10 11 12 12 12 13 14 14 15 15 15 15 15 13 13 14 15 16 16 17 17 16 16 15 14 15 15 16 17 18 17 17 17 17 16 16 16 16 17 18
11 13 14 13 13 12 13 13 14 15 15 16 16 15 16 16 13 13 13 16 16 16 17 17 16 16 15 15 14 14 14 13 14 14 16 16 16 15 15 16 16 16 16
14 14 15 14 15 15 15 15 15 16 16 17 17 16 16 16 14 13 14 16 16 16 16 16 16 16 16 16 16 16 16 15 13 14 15 15 15 14 14 14 15 17 16
13 14 14 15 16 16 17 17 17 17 18 19 16 16 16 16 14 13 15 16 17 17 16 16 15 15 14 14 16 16 16 16 14 12 12 12 11 11 12 14 18 19 16
13 13 14 15 16 17 17 18 18 19 17 16 16 16 16 16 13 13 15 16 17 17 16 16 15 15 13 13 16 16 17 16 16 15 14 13 11 12 11 12 16 15 14
16 16 17 16 17 17 17 19 19 19 17 17 17 17 16 15 14 13 14 16 16 17 17 16 15 13 12 12 14 15 15 15 15 15 15 15 14 14 14 14 13 14 15
17 17 18 19 17 17 18 19 19 20 18 17 17 17 16 15 14 12 13 14 14 16 16 16 15 12 12 11 12 13 12 12 15 15 15 15 15 14 13 14 13 13 13
18 18 18 18 17 17 18 19 18 19 18 17 17 18 18 17 16 13 13 13 13 15 15 14 13 12 11 11 11 11 12 12 14 14 14 13 12 13 14 14 14 14 14
18 18 16 15 17 18 17 17 18 18 18 17 17 17 17 17 16 14 13 13 13 13 13 13 13 12 12 11 13 11 12 12 12 12 13 14 15 15 16 15 18 19 22
18 16 15 15 15 17 16 17 15 15 15 17 17 16 17 19 17 14 13 13 12 13 13 13 13 13 13 14 14 13 12 14 14 15 16 16 15 15 15 15 18 22 24
15 16 15 15 15 15 14 13 11 11 11 11 11 12 13 13 12 12 12 12 11 11 13 14 15 15 14 14 15 16 16 15 16 16 17 16 16 17 17 18 19 24 25
14 15 15 15 16 16 15 15 16 14 12 12 12 12 12 12 11 11 11 11 10 11 16 16 17 17 18 16 16 17 18 18 19 18 18 18 18 18 20 19 20 22 25
13 13 14 14 14 14 14 15 15 16 17 17 14 14 13 12 12 12 11 12 17 15 15 16 15 16 18 18 20 21 21 21 20 19 19 20 21 22 23 24 23 27 27
15 15 15 15 14 14 14 14 14 16 17 17 17 17 15 12 13 13 13 19 22 25 24 23 24 24 24 24 24 23 21 20 21 21 22 23 24 25 26 25 24 24 26
18 17 17 17 17 17 17 17 17 18 17 16 19 20 20 20 23 24 22 22 22 25 26 26 27 28 28 27 26 25 25 26 25 24 24 24 26 25 26 27 28 28 29
18 19 18 19 19 19 18 18 18 19 18 20 21 19 15 21 23 25 25 24 25 26 25 26 27 27 27 26 27 28 29 28 28 28 28 28 27 28 28 25 28 29 29
20 21 21 22 21 21 21 20 20 20 21 21 21 20 17 21 22 23 26 28 30 30 29 28 27 29 30 31 31 31 30 31 31 30 29 29 29 28 27 27 27 26 29
21 22 22 22 22 22 23 23 22 22 23 23 24 24 24 26 27 27 29 30 30 30 31 32 31 31 32 32 31 30 29 30 29 28 29 29 29 29 27 26 26 28 29
21 22 23 23 23 23 23 24 24 25 25 25 26 27 26 28 30 29 30 31 31 32 32 32 32 31 32 32 32 31 30 30 29 27 27 27 27 25 26 26 25 25 24
23 23 24 24 24 25 24 25 26 26 28 28 29 28 30 29 30 31 31 31 31 31 31 31 31 30 29 28 29 29 27 19 25 24 28 28 28 26 25 25 26 26 26
24 24 24 24 25 26 26 26 29 28 28 28 29 30 30 30 30 30 30 31 30 31 31 30 29 27 27 25 25 24 22 18 19 19 23 24 25 25 25 25 25 25 26

GFSGL_con_lsi_063.txt.gz
Lid_Strength_Index
8 8 8 7 7 7 6 6 7 7 7 7 8 7 7 8 8 7 7 8 9 9 9 10 10 10 12 14 15 16 16 16 18 18 17 16 16 17 17 16 16 16 15
8 8 8 8 8 8 7 7 8 7 8 8 9 9 9 8 8 8 9 9 10 10 10 11 11 14 14 15 15 16 15 16 17 18 18 18 18 17 17 17 17 16 16
8 8 8 8 8 8 8 8 8 8 9 10 11 11 11 11 10 9 9 10 10 10 11 12 12 15 15 16 15 16 16 16 17 18 19 18 18 18 18 17 16 16 15
9 9 9 9 8 8 9 9 9 9 10 12 12 12 13 14 12 12 11 11 11 11 11 12 13 15 15 16 16 16 17 17 17 18 18 18 18 18 18 17 17 16 16
9 9 9 9 9 9 10 11 11 11 11 12 13 14 14 14 13 13 13 12 13 13 14 14 14 14 14 14 15 16 16 17 17 18 18 18 18 18 18 17 17 16 16
10 10 9 10 11 12 12 12 12 13 13 14 14 14 15 14 12 12 13 14 14 14 15 16 15 15 14 14 14 14 15 17 17 17 17 17 17 16 17 16 16 17 18
12 12 13 13 13 12 12 13 13 13 14 14 15 15 16 15 13 12 12 15 15 15 16 16 16 15 15 15 13 13 14 13 14 15 16 16 16 16 16 16 16 16 17
13 14 13 14 14 15 15 14 14 14 15 16 17 17 17 16 13 12 13 16 15 15 15 15 15 16 15 15 15 15 15 15 14 14 15 15 15 15 14 14 15 16 17
13 13 13 14 16 16 16 16 16 17 18 18 17 17 15 16 13 13 13 16 16 16 16 15 15 15 14 13 16 16 16 15 13 13 13 12 12 12 13 14 18 17 19
14 14 14 15 17 17 16 17 18 18 17 16 15 15 15 15 13 12 14 16 17 16 16 16 15 14 13 13 15 15 16 16 15 15 14 12 12 12 10 12 14 16 15
16 16 16 17 18 18 18 19 19 17 16 16 16 16 16 15 14 12 13 15 16 16 16 16 15 13 12 12 13 14 14 14 14 15 15 15 14 14 14 14 14 14 17
17 18 19 20 17 18 19 21 21 18 16 17 17 16 16 15 13 12 13 14 14 16 16 15 14 12 12 11 12 12 12 13 15 15 16 16 15 15 14 13 13 13 13
18 16 18 19 18 19 18 19 20 19 16 17 17 17 17 16 14 12 12 12 13 15 15 14 13 11 11 10 10 11 12 13 15 16 16 15 14 13 13 14 14 15 15
15 15 15 16 18 20 18 18 18 19 17 17 17 17 17 17 16 14 13 12 13 13 13 13 12 12 11 12 13 11 11 12 13 14 14 16 15 16 16 16 17 17 19
14 14 14 15 17 18 17 15 15 15 15 18 19 18 18 19 18 13 12 13 13 13 13 13 13 13 13 13 13 13 14 16 14 16 16 17 16 16 16 17 18 20 20
14 14 14 15 16 16 14 13 11 11 11 12 12 14 14 14 12 11 11 11 10 11 12 13 13 13 13 13 14 17 17 16 17 17 17 17 16 16 18 18 18 20 21
13 14 14 15 16 15 15 15 16 14 12 11 11 11 11 10 11 11 11 10 10 10 14 14 14 14 15 15 17 18 19 19 19 18 17 18 18 17 18 18 18 20 23
13 14 14 15 15 15 15 16 16 17 17 16 12 12 11 11 11 10 10 13 16 16 15 15 16 16 16 19 20 21 21 20 21 21 19 19 19 20 21 20 21 25 25
14 14 14 14 15 14 14 15 17 17 17 18 17 16 16 13 14 14 15 19 20 21 23 21 22 23 25 23 23 23 23 22 22 22 22 22 22 23 25 24 23 23 25
15 16 15 16 16 16 16 16 17 17 18 20 20 21 22 22 23 24 24 25 26 28 30 28 29 29 28 26 25 24 24 23 21 22 23 24 27 26 27 29 27 27 27
17 18 18 18 18 18 18 18 18 19 20 21 21 17 18 23 25 27 27 28 28 29 29 31 30 30 30 30 30 28 27 25 29 31 31 31 32 31 31 27 28 27 26
19 19 19 20 19 19 20 20 20 21 21 22 22 19 18 23 25 26 29 31 33 32 33 32 32 33 33 32 33 33 33 33 34 33 31 32 31 30 29 27 26 26 26
19 20 20 21 21 21 22 22 22 22 23 24 24 24 25 27 28 29 30 32 33 33 35 34 34 33 35 35 35 33 32 32 30 29 29 30 30 29 28 24 25 27 27
20 20 21 22 22 22 23 23 23 24 24 25 26 28 27 30 30 30 31 33 33 35 36 35 35 34 35 35 36 35 34 32 33 28 25 27 27 27 25 25 26 26 24
21 22 22 23 23 23 24 24 25 26 26 26 29 28 30 30 31 32 33 33 34 34 33 34 35 34 33 32 33 33 32 23 27 27 27 26 25 24 23 22 22 23 25
23 23 23 23 24 24 25 25 26 26 28 29 29 31 31 31 31 33 33 34 33 33 34 34 34 32 31 30 29 27 24 21 22 21 25 25 25 25 25 23 22 22 26

GFSGL_con_lsi_066.txt.gz
Lid_Strength_Index
8 8 8 8 7 7 6 6 6 7 7 7 7 6 6 6 6 6 6 6 8 8 8 8 9 9 9 11 11 12 13 13 13 18 17 16 16 15 16 15 15 16 16
8 8 8 8 8 8 7 7 8 7 8 7 8 7 7 6 7 7 7 8 9 9 9 9 9 9 10 10 12 13 13 14 16 18 18 17 17 16 16 16 17 16 17
8 9 8 8 9 8 8 8 9 9 9 9 9 9 8 8 8 8 7 8 9 8 9 9 9 10 11 12 13 13 14 15 16 16 18 17 17 16 17 17 17 17 17
9 9 10 9 9 9 9 9 9 9 9 10 11 9 10 10 9 9 9 9 10 9 10 10 10 11 11 13 14 14 15 15 16 15 17 17 18 17 17 18 18 17 17
10 10 10 9 9 10 10 11 11 11 10 10 11 12 12 13 12 12 12 11 11 11 12 12 12 12 12 13 14 15 15 15 15 16 17 18 18 18 18 17 18 17 17
11 12 11 12 12 12 12 12 12 12 12 12 13 13 14 12 11 10 12 12 13 13 13 14 14 15 13 12 12 13 13 15 16 17 17 18 17 17 17 17 17 18 18
13 13 14 14 14 13 12 12 13 12 13 13 13 14 14 14 11 11 11 13 14 14 14 15 15 15 15 14 13 13 13 12 14 15 17 16 16 15 16 17 16 16 16
14 14 14 13 14 15 15 15 13 14 15 15 16 16 16 15 12 11 11 14 14 14 14 15 15 16 15 15 15 15 15 14 14 14 14 14 14 14 14 14 14 15 16
14 14 14 15 14 15 15 16 17 17 18 18 17 16 15 15 12 11 12 14 15 15 15 15 15 15 14 13 15 16 15 14 12 12 12 12 12 12 12 14 17 17 18
14 14 14 15 15 16 16 17 17 18 17 15 14 14 15 14 13 12 13 15 16 16 15 15 14 14 12 12 15 15 15 15 15 14 14 12 12 12 11 13 14 16 16
15 15 15 15 16 16 18 18 19 18 15 15 16 16 15 15 14 12 13 15 15 16 15 15 14 12 12 12 13 14 14 14 13 14 14 14 14 14 14 14 13 14 16
16 17 18 19 17 17 20 20 21 17 15 16 16 16 16 15 13 12 12 13 13 15 15 15 14 12 11 11 12 12 11 13 14 15 16 16 16 15 15 14 14 14 14
19 15 14 19 18 18 19 20 19 20 16 17 16 16 16 15 14 11 12 12 13 15 14 14 13 11 11 11 11 11 12 14 15 16 16 16 15 15 14 15 15 16 16
17 15 16 18 16 17 17 16 16 17 16 16 16 16 16 16 15 13 13 13 13 14 13 13 12 12 11 11 12 11 12 12 13 14 15 17 16 16 17 17 18 18 19
19 17 16 13 14 14 17 14 14 15 15 15 15 16 16 16 15 13 12 13 13 13 13 13 13 13 14 14 14 13 13 13 13 14 16 17 17 17 17 17 18 19 21
14 13 13 13 13 14 14 12 10 12 12 12 13 14 16 14 12 11 11 11 11 11 12 13 14 13 14 14 14 14 15 16 16 17 18 18 18 17 18 18 18 19 19
13 12 13 13 13 13 14 14 14 12 11 10 10 10 11 11 11 11 10 10 10 11 13 13 14 14 15 15 15 16 18 19 19 18 19 19 18 18 18 18 19 20 21
11 11 12 13 12 13 14 15 15 15 16 16 12 11 11 11 10 10 10 13 16 16 15 16 16 16 17 17 18 21 21 21 21 20 20 21 20 20 21 21 20 22 24
10 11 11 11 12 13 14 16 16 17 18 18 17 17 17 13 13 14 14 17 18 20 20 22 25 26 26 25 24 26 26 25 24 24 24 23 22 23 24 21 22 24 29
11 11 11 12 13 14 15 17 17 19 20 19 20 20 21 21 21 23 23 23 24 26 28 25 29 31 30 30 29 29 29 28 26 26 27 25 24 26 29 31 30 30 31
13 13 14 14 15 15 15 16 17 19 19 19 20 18 17 21 24 26 26 26 26 27 30 31 32 32 33 33 32 31 30 28 30 31 33 34 35 33 33 28 31 31 30
15 15 15 16 17 17 18 18 19 19 20 21 21 18 18 23 24 26 27 29 31 31 33 31 33 33 34 33 34 33 33 34 36 36 35 35 35 34 32 29 28 27 29
16 17 18 18 19 19 19 20 20 21 22 23 23 23 24 25 26 26 28 32 31 30 32 32 32 33 35 36 36 34 33 34 34 35 33 33 33 31 31 29 28 28 27
17 18 19 19 20 20 21 22 22 22 23 23 24 25 25 27 28 28 30 32 31 33 34 34 34 34 35 37 39 39 38 37 38 35 34 32 30 29 30 28 27 26 25
19 20 20 21 21 22 23 23 23 23 24 24 26 25 27 29 29 31 31 32 33 33 33 34 35 35 35 35 36 37 36 27 33 32 33 31 29 29 30 26 26 25 24
21 22 22 22 22 22 23 23 23 24 25 25 26 28 29 27 29 31 33 33 32 33 35 36 36 36 35 33 32 29 28 24 26 25 31 30 29 28 27 25 25 24 24

GFSGL_con_lsi_069.txt.gz
Lid_Strength_Index
9 9 9 8 8 8 7 7 7 7 7 7 7 7 7 7 7 5 5 5 6 6 6 7 7 7 8 8 9 10 10 10 10 12 16 15 15 15 15 14 14 14 14
9 9 9 8 8 8 8 7 8 7 8 7 8 8 7 6 6 6 6 6 6 7 7 8 8 8 9 8 10 10 11 11 11 11 17 16 16 15 15 15 15 14 15
9 9 9 9 9 9 8 8 9 9 9 9 9 9 8 7 6 6 6 6 7 7 7 8 8 9 9 9 10 10 11 12 12 14 17 16 17 15 16 15 16 16 16
10 10 10 10 9 9 9 9 10 10 10 10 11 10 10 8 8 7 7 8 8 8 8 8 8 9 9 10 11 12 13 14 15 14 17 17 17 16 16 17 18 17 17
12 12 11 11 11 11 12 12 12 12 11 11 12 12 12 11 9 10 10 10 10 9 11 11 10 10 11 10 12 13 14 14 15 15 16 18 18 18 18 17 17 17 17
13 13 13 14 14 14 14 13 13 13 13 13 13 13 13 12 10 9 10 11 12 12 12 12 12 13 12 10 10 11 12 14 14 15 17 17 18 17 17 17 17 17 18
14 14 14 14 14 14 14 14 13 13 13 13 13 13 14 14 11 10 11 13 13 13 13 13 14 14 14 13 11 11 12 11 12 14 16 16 17 16 16 16 16 16 17
13 15 15 15 15 15 14 15 14 14 15 15 15 15 16 15 11 10 10 13 13 13 13 13 14 14 14 14 14 14 14 14 14 14 14 15 15 14 14 14 15 15 16
14 13 14 15 15 15 16 15 15 16 17 17 16 17 17 13 12 11 11 13 14 14 14 14 14 14 13 12 14 15 14 14 12 12 12 12 11 11 12 14 16 16 17
13 13 14 15 15 14 14 15 16 18 16 16 14 13 13 13 12 11 12 14 15 15 15 15 14 14 12 12 14 14 15 14 14 14 13 12 12 12 11 13 14 16 17
15 15 16 16 16 16 16 18 18 18 17 17 15 14 13 14 13 11 12 14 15 15 15 15 14 13 11 11 12 14 13 13 12 14 14 14 13 13 13 13 13 14 16
15 16 16 15 17 16 21 20 21 20 19 16 14 14 14 13 12 10 11 13 13 14 14 14 13 12 11 11 13 11 11 13 13 15 15 15 15 15 15 14 14 14 14
16 16 14 13 17 19 21 20 21 22 20 17 15 15 15 14 12 10 11 12 13 14 14 13 12 11 11 11 11 10 13 14 14 15 15 16 16 16 15 16 16 17 16
18 17 14 14 17 20 18 18 16 16 14 14 14 14 14 14 13 12 12 12 13 13 12 12 12 12 10 11 12 11 12 12 13 14 14 15 15 16 17 17 19 19 20
17 17 15 16 18 18 16 16 16 16 13 13 13 13 13 14 13 11 12 13 14 13 13 13 13 13 13 13 13 13 13 13 13 14 15 17 17 18 18 19 19 20 21
14 14 13 13 16 16 13 13 10 10 10 10 10 12 13 12 10 10 11 11 11 11 12 13 14 13 14 15 15 14 15 17 18 18 19 18 19 18 19 19 19 21 21
14 12 12 13 15 16 14 13 12 10 8 8 9 9 10 10 10 10 10 10 10 11 13 14 14 15 15 16 17 18 20 21 20 19 20 20 19 20 21 20 20 20 21
18 15 12 13 16 15 13 13 13 13 14 15 11 11 9 9 9 9 10 12 16 16 16 17 17 18 20 21 23 24 24 23 23 23 23 24 25 24 22 20 20 23 22
18 15 12 13 12 12 12 13 14 14 16 17 16 15 16 12 13 12 13 15 17 19 22 24 25 26 27 27 28 27 27 26 28 28 28 27 25 24 23 22 21 22 25
18 15 12 11 11 11 13 14 15 16 17 18 18 18 19 18 21 22 22 22 23 25 25 25 28 30 31 31 30 31 29 30 30 30 29 27 26 25 24 27 28 28 30
17 14 11 11 11 12 13 14 16 16 18 18 18 17 17 21 23 23 24 25 26 27 27 27 29 30 35 35 34 33 33 32 34 33 34 35 35 33 35 30 32 31 29
16 14 13 12 13 13 14 15 16 17 18 18 19 17 17 21 23 24 26 28 31 31 33 31 33 34 34 32 34 34 34 35 37 36 35 37 37 36 35 31 29 27 29
16 15 15 14 15 15 16 16 17 18 19 20 21 22 23 24 25 26 27 30 29 29 32 32 31 32 33 35 36 33 33 34 35 37 35 36 37 36 35 32 31 29 29
16 15 16 16 16 17 18 19 19 19 21 22 23 23 24 25 25 26 27 28 28 32 32 30 31 34 36 37 39 41 40 38 40 37 36 35 35 33 34 33 30 29 27
17 17 17 18 18 19 20 20 21 21 22 22 24 25 25 25 26 28 28 29 30 30 32 34 35 35 36 36 37 39 38 28 36 36 38 34 33 34 34 32 31 29 28
19 20 20 20 20 21 21 21 22 22 23 23 24 26 26 25 26 28 29 29 31 33 35 36 37 37 36 35 34 32 30 26 30 28 34 33 33 33 33 32 31 29 26

GFSGL_con_lsi_072.txt.gz
Lid_Strength_Index
10 9 9 9 9 9 8 8 8 8 8 8 8 7 7 7 7 6 5 4 4 5 5 6 6 6 6 6 7 8 8 9 10 8 13 14 14 14 14 13 13 13 12
10 10 9 9 9 9 9 8 8 8 8 8 8 8 8 8 8 8 7 6 6 6 6 6 6 7 7 6 7 8 9 9 9 10 13 16 15 14 14 15 14 13 14
10 10 10 10 10 10 9 9 9 9 9 10 10 10 9 9 8 7 6 6 6 6 6 7 7 8 8 8 8 9 9 9 10 10 11 15 16 15 15 15 15 15 14
11 11 11 11 11 11 11 11 11 11 11 11 11 11 11 10 9 7 7 7 7 7 7 7 8 8 9 9 9 10 10 11 12 12 15 16 16 16 15 16 17 16 16
12 12 12 12 13 13 13 13 13 13 12 12 13 13 13 12 10 9 9 8 9 8 9 10 10 10 10 9 10 11 12 12 14 13 14 16 17 17 17 16 17 17 17
13 14 13 14 14 14 14 14 14 14 13 13 13 13 13 12 10 9 9 11 11 11 10 11 11 12 11 10 9 9 11 12 13 13 14 15 17 16 16 16 17 18 19
14 15 15 15 15 15 15 15 14 14 14 14 14 14 14 14 11 10 9 10 11 11 11 11 12 12 12 12 11 10 10 10 11 13 14 15 16 16 16 17 16 16 16
14 15 16 15 16 16 16 16 15 15 14 15 15 15 16 14 11 10 9 11 11 12 12 12 12 13 13 13 13 13 13 13 13 13 13 14 14 14 14 14 14 15 16
14 14 15 15 16 16 16 16 16 16 16 16 15 16 17 15 10 10 9 11 11 12 13 13 13 13 13 11 13 14 14 14 12 11 11 11 11 11 12 14 15 15 17
14 15 16 16 17 17 16 16 17 18 15 15 15 17 17 13 11 10 10 11 12 13 13 13 13 13 12 11 13 13 14 14 13 13 13 11 11 11 11 13 14 15 16
16 16 16 16 17 17 17 17 17 17 17 18 17 18 17 14 13 11 9 12 12 13 13 13 12 10 11 10 12 13 13 12 12 13 13 13 13 13 13 13 13 14 16
16 16 16 17 15 15 19 18 19 20 20 18 19 16 17 16 12 10 10 11 11 13 13 13 13 11 10 10 12 10 10 12 13 14 14 15 14 15 14 14 14 15 14
17 17 16 16 14 17 20 18 19 22 20 18 18 18 15 14 12 9 10 10 11 12 12 12 11 10 10 11 10 10 13 13 14 15 15 15 16 15 15 17 17 17 17
14 14 15 15 13 15 17 17 18 18 18 16 17 17 14 14 12 12 11 12 11 11 11 11 10 10 10 11 12 12 13 13 13 13 14 15 15 16 17 17 18 18 20
16 14 13 13 14 15 15 15 16 16 15 17 17 17 16 15 12 10 11 11 12 11 11 11 12 12 13 13 13 13 13 14 14 15 15 16 17 17 17 17 18 20 22
17 15 14 13 13 13 14 15 11 9 9 9 9 12 13 10 8 8 8 9 9 9 13 14 13 13 14 14 14 16 18 17 17 17 18 18 18 18 19 20 20 22 21
20 18 16 14 13 12 15 15 12 11 9 8 9 9 9 8 7 8 9 9 9 11 14 15 15 16 17 17 18 19 19 19 20 19 19 19 19 20 23 22 21 20 22
23 21 19 17 15 12 13 14 16 16 15 14 11 8 7 7 7 8 9 11 14 15 17 18 19 19 20 20 20 21 21 21 22 21 22 23 23 24 24 23 22 24 24
22 20 19 16 14 12 12 12 14 14 14 14 14 13 13 9 10 10 11 15 17 20 21 22 23 23 24 24 24 24 24 24 25 27 28 28 29 28 27 26 24 25 26
22 21 19 17 15 12 12 12 13 14 14 14 15 16 18 15 17 19 19 19 21 22 23 24 25 25 25 25 26 27 27 27 28 29 31 30 30 28 29 30 30 31 32
21 19 18 16 14 11 12 12 13 13 14 16 16 16 15 18 20 21 22 23 24 25 26 26 28 29 30 29 28 28 29 30 31 32 34 36 36 33 35 30 34 34 34
20 19 17 16 13 11 11 12 13 14 15 16 16 15 15 19 21 23 25 27 30 30 31 29 30 30 29 29 30 29 30 33 36 37 36 38 38 38 36 34 33 33 34
18 18 17 15 13 12 13 13 14 15 17 18 19 19 20 21 23 24 26 28 28 29 30 29 28 30 32 34 34 32 32 34 35 37 36 38 38 38 37 35 35 34 33
19 17 17 16 15 14 14 15 16 17 18 19 20 21 22 23 24 25 27 28 28 31 30 29 29 29 31 35 38 40 39 39 41 38 36 36 37 37 37 36 34 33 32
19 19 19 17 16 16 17 17 18 19 20 20 22 23 24 24 25 26 27 29 31 29 28 28 29 31 32 34 35 38 39 28 38 38 40 37 36 36 37 35 34 33 32
20 20 19 18 18 18 18 19 20 20 21 22 22 23 23 24 25 26 27 27 26 27 28 29 31 33 33 32 36 34 31 27 32 31 36 35 36 37 37 35 35 33 32

GFSGL_con_lsi_075.txt.gz
Lid_Strength_Index
9 9 8 8 8 8 8 7 7 7 7 7 7 6 6 6 5 5 4 4 4 4 4 5 5 5 5 5 6 6 7 7 9 7 9 11 13 13 12 12 11 11 11
10 10 10 9 9 9 9 9 8 8 8 8 8 8 7 7 7 7 6 6 6 6 5 5 5 5 6 5 5 6 7 7 8 9 8 13 13 13 13 14 13 12 12
11 10 10 10 10 10 10 10 10 10 10 9 9 9 9 9 8 8 7 7 6 6 6 6 6 6 7 7 7 7 8 8 8 9 9 15 14 14 15 14 14 14 13
11 11 11 11 11 11 11 11 11 11 11 11 11 11 11 10 10 9 8 7 7 6 6 6 6 7 7 7 8 8 8 9 9 9 10 14 15 15 14 15 16 15 15
12 12 12 12 13 13 13 13 13 13 12 12 12 12 11 11 11 10 10 9 9 9 8 8 8 8 9 8 9 8 9 10 10 11 11 15 16 16 16 15 15 15 15
13 13 13 13 14 14 14 14 14 13 13 13 13 13 13 12 10 10 10 11 11 11 10 10 10 11 10 9 8 8 8 10 11 11 11 13 14 15 15 15 15 17 18
14 14 14 14 15 15 15 15 14 14 14 14 14 13 13 13 11 10 10 11 11 10 10 10 10 10 11 10 9 9 9 8 8 11 12 13 14 14 14 15 15 15 15
15 15 15 15 15 15 16 15 15 15 15 15 15 14 14 14 11 10 10 10 10 10 10 10 11 10 10 11 11 12 12 12 12 11 12 12 12 12 12 13 13 14 14
14 14 15 16 16 16 17 16 15 15 15 15 14 15 15 14 11 9 9 11 10 10 11 11 11 11 11 10 11 12 12 12 10 10 10 10 10 10 11 12 14 14 15
15 15 15 16 17 17 16 16 16 16 15 15 14 14 15 15 12 11 10 11 11 11 12 12 12 11 10 10 11 11 12 12 11 11 11 10 10 10 10 11 12 13 15
16 16 16 16 17 17 16 17 16 17 16 16 16 15 15 15 14 11 10 11 11 12 12 12 12 10 9 9 10 11 11 11 10 11 12 12 12 12 12 12 12 13 14
17 17 17 18 17 15 15 17 18 18 18 17 16 15 14 14 13 11 9 10 10 12 12 12 11 9 9 9 10 9 9 11 11 12 13 13 13 13 14 14 14 14 13
18 16 14 14 17 14 14 16 16 18 17 16 15 15 14 14 13 10 9 10 11 12 11 11 10 8 8 9 8 9 11 11 11 12 13 14 14 14 15 16 16 16 17
19 17 16 15 13 12 13 14 16 16 16 15 15 15 15 14 13 11 10 12 11 11 10 9 9 8 8 9 10 11 11 11 12 13 13 13 14 14 15 16 17 17 18
19 18 16 14 14 13 12 12 14 13 13 13 13 13 13 14 12 10 10 11 10 10 9 9 10 11 11 11 12 12 12 12 12 13 13 14 15 15 16 16 16 17 17
20 18 17 16 15 14 14 13 11 10 9 8 8 8 11 10 9 7 8 8 8 8 10 11 12 12 12 12 14 15 15 15 15 15 15 15 15 16 16 17 17 17 17
23 21 20 19 18 17 15 14 14 12 9 8 8 8 8 9 7 7 7 7 7 9 12 13 13 13 14 15 15 16 17 17 17 16 16 16 16 17 17 17 17 18 19
25 23 22 21 19 18 16 14 13 13 13 12 11 7 7 7 6 6 6 9 12 13 14 15 16 16 17 17 17 18 18 18 18 18 18 18 18 18 18 18 18 19 19
23 22 21 20 19 18 16 14 13 13 13 13 12 10 12 5 6 7 8 12 15 16 17 19 18 19 19 20 20 20 20 20 20 20 20 20 20 19 21 20 20 22 22
24 23 22 21 19 18 16 14 12 12 12 12 12 12 13 12 13 16 16 16 17 18 19 20 21 21 21 21 21 21 21 21 22 22 22 22 22 20 21 22 22 22 22
24 23 22 21 19 18 16 14 11 12 12 12 12 13 12 14 16 17 18 19 19 20 21 22 23 24 24 24 23 22 22 23 23 23 24 25 25 25 26 23 24 25 25
24 23 21 20 18 17 15 13 11 12 12 13 13 12 12 17 19 20 21 22 23 24 23 23 25 25 24 23 23 23 23 24 25 26 27 28 27 27 26 26 25 26 26
22 21 20 19 17 16 15 13 12 12 13 13 15 17 18 19 21 21 23 24 24 25 25 24 25 26 26 26 25 24 24 25 26 28 27 28 28 27 27 25 27 27 26
22 21 20 19 18 16 15 13 13 13 14 16 17 18 20 21 22 23 24 25 25 26 25 25 25 25 26 28 29 30 30 31 31 30 29 28 28 29 28 28 26 27 26
21 21 20 19 18 16 16 15 16 16 17 18 19 20 22 22 23 24 24 24 25 25 26 26 25 26 26 28 28 30 31 26 32 33 32 29 28 30 29 28 28 27 26
23 22 21 20 19 18 17 18 18 18 19 20 21 21 22 22 23 24 24 24 24 24 25 26 26 27 28 28 29 30 30 27 29 31 30 28 28 29 30 28 29 26 26

GFSGL_con_lsi_078.txt.gz
Lid_Strength_Index
6 6 6 6 6 6 6 6 6 6 6 6 6 5 5 5 4 4 4 4 4 3 3 3 4 3 4 4 4 5 5 6 7 6 5 6 9 9 10 11 10 10 10
7 7 7 7 7 7 8 8 7 7 7 7 7 7 7 6 6 6 6 5 5 5 5 5 5 5 5 4 4 5 6 6 7 8 6 6 11 11 11 12 11 11 11
8 8 8 9 9 9 9 9 9 9 8 8 9 9 9 8 8 8 7 7 6 6 6 6 6 6 6 6 6 6 6 6 6 8 7 9 12 13 13 13 13 12 12
9 9 9 10 10 10 10 10 10 10 10 9 9 9 9 9 9 9 8 8 7 7 7 6 6 7 7 7 7 7 7 7 8 8 8 8 12 13 13 14 14 13 13
9 10 10 10 11 11 11 11 11 10 10 10 10 10 10 10 9 9 9 9 9 9 9 8 8 8 10 8 8 7 8 8 8 8 8 9 13 15 15 14 14 13 13
10 11 11 12 12 12 12 12 12 12 12 12 11 11 11 10 10 10 10 10 10 10 10 9 8 10 9 8 7 7 7 8 9 9 8 10 10 13 13 13 15 15 15
11 12 13 13 13 13 13 13 13 13 13 13 12 12 12 11 10 10 10 10 9 9 9 9 9 9 9 8 8 8 8 7 7 8 9 10 11 12 12 13 13 13 12
12 13 13 13 13 13 14 14 13 13 13 13 13 12 12 11 10 10 10 9 8 8 8 8 9 9 8 9 10 10 10 9 10 10 10 11 10 11 11 10 11 12 12
13 13 13 14 14 14 15 14 14 14 13 13 13 12 12 12 11 10 10 10 10 9 9 8 9 9 10 9 10 11 11 11 10 9 9 9 9 9 9 11 12 12 13
14 14 14 14 15 15 14 14 13 14 14 13 13 12 12 12 12 11 10 10 11 10 9 9 10 10 10 9 10 11 11 11 11 10 10 9 9 9 9 10 10 12 13
15 15 15 14 15 14 14 14 14 14 13 13 13 12 12 12 12 11 10 10 10 11 11 11 10 10 10 9 9 10 10 10 9 10 10 10 10 10 10 10 10 11 12
16 16 15 15 14 14 15 13 13 14 14 13 12 12 10 10 11 11 10 10 9 10 11 10 10 10 8 9 9 9 8 9 9 9 10 10 11 12 12 13 13 14 13
17 17 16 15 14 13 13 12 13 13 13 12 12 12 12 11 11 11 10 8 9 10 10 10 9 8 8 8 8 8 9 9 9 10 11 12 12 13 13 14 14 14 15
18 17 16 16 14 13 12 12 12 12 13 13 12 12 12 12 11 10 9 9 10 10 9 8 8 7 8 8 8 8 8 9 9 10 12 12 12 12 13 13 14 14 15
18 17 16 15 14 14 13 13 13 12 12 13 13 12 12 12 10 9 9 9 9 8 8 8 8 8 9 9 9 10 10 9 10 10 11 11 12 13 13 13 14 14 14
19 17 17 17 16 16 15 15 13 12 11 10 10 9 9 8 8 9 8 7 8 7 8 8 8 9 10 10 11 11 11 11 11 11 11 12 13 13 14 14 13 13 14
21 20 19 19 18 17 17 16 17 14 11 10 9 8 8 7 8 8 7 6 6 7 8 8 9 10 11 11 11 12 13 13 13 12 13 13 13 14 13 14 14 14 15
22 22 21 20 19 19 18 17 16 16 15 13 10 9 8 6 6 6 5 7 8 8 9 10 11 12 12 12 13 13 14 14 14 14 14 14 14 14 14 14 14 15 15
23 22 21 20 20 19 18 18 17 16 15 13 11 9 9 7 6 5 5 7 9 11 12 13 13 13 13 14 14 15 15 16 15 15 15 16 15 15 15 16 17 18 17
22 22 22 21 20 19 18 18 16 15 14 12 10 9 9 9 8 10 10 10 11 13 13 14 15 15 15 15 15 16 16 17 16 16 17 17 16 16 17 17 17 17 18
22 22 22 21 20 19 19 18 16 15 14 12 10 8 9 9 10 12 13 13 14 14 14 15 16 16 17 17 17 17 17 17 18 18 18 19 19 19 19 18 19 20 19
22 22 21 21 20 19 18 17 16 15 14 11 9 9 8 11 13 14 15 17 17 16 16 17 18 18 18 17 17 18 18 19 20 20 20 21 20 21 20 20 20 20 20
20 21 20 20 19 19 18 16 15 14 13 10 9 11 13 14 16 17 18 20 19 19 19 19 20 21 21 21 20 18 19 19 20 20 21 21 21 21 20 20 21 21 21
20 20 20 20 19 19 17 16 15 14 12 11 12 14 15 16 18 19 20 21 20 21 21 21 20 21 22 22 22 22 22 23 23 23 21 21 22 23 21 22 21 22 21
20 20 21 20 20 19 18 17 15 14 14 14 15 16 18 18 20 20 21 21 21 21 22 21 21 22 22 23 23 24 24 24 25 25 24 22 22 23 23 22 22 22 22
21 21 21 20 20 21 20 18 17 16 16 17 17 18 18 19 20 21 21 21 21 21 21 21 22 22 23 23 23 24 26 24 26 27 24 22 23 23 23 23 24 22 22

GFSGL_con_lsi_081.txt.gz
Lid_Strength_Index
6 6 6 6 6 6 6 6 6 6 6 6 7 6 6 6 5 5 5 5 5 5 4 4 4 4 4 4 4 4 4 5 7 6 5 4 7 8 9 9 9 10 10
7 7 7 7 7 8 8 8 7 8 7 8 8 8 7 7 7 7 7 6 6 6 6 5 6 5 6 5 5 5 5 5 6 7 6 6 7 9 9 10 11 10 10
7 8 8 8 8 9 9 9 9 9 9 9 9 9 9 8 8 8 8 8 7 7 6 6 6 6 7 7 7 7 6 6 6 7 7 6 7 11 12 12 12 11 11
8 9 9 9 9 10 10 10 10 10 10 10 10 10 9 9 9 9 9 9 8 8 8 8 8 8 8 8 7 7 7 7 7 7 7 6 6 12 12 12 12 12 12
9 9 10 10 11 11 11 11 11 11 11 11 11 11 10 10 10 10 10 10 10 10 9 9 8 9 10 8 8 8 8 8 7 7 7 7 8 12 12 11 12 12 12
10 11 12 12 12 12 12 12 12 12 11 11 12 12 12 11 10 10 11 11 11 11 10 10 9 9 8 8 7 7 7 8 9 9 9 9 8 10 12 12 12 13 13
12 13 13 13 13 13 13 13 12 12 12 12 12 12 12 12 11 10 11 12 11 11 10 10 10 9 9 9 8 8 8 8 7 8 10 9 10 10 11 12 12 11 11
13 13 13 13 13 13 13 13 13 13 13 13 13 13 13 13 11 11 11 11 11 10 10 10 10 9 9 9 10 10 10 10 9 9 10 10 10 10 10 10 10 11 11
13 13 13 14 14 14 15 14 13 13 14 14 13 13 14 13 11 11 11 12 12 11 11 10 10 10 9 9 11 11 11 10 9 8 7 8 8 8 8 10 11 11 13
15 15 14 14 15 15 14 15 14 14 14 14 14 13 13 14 11 11 11 12 12 11 10 10 11 10 10 10 11 11 11 10 10 9 9 9 8 8 8 9 9 11 12
16 16 16 15 16 15 15 14 15 14 14 15 15 14 13 12 12 10 10 11 11 12 11 11 11 10 10 10 9 10 10 9 9 9 9 9 9 10 10 10 11 11 12
17 17 17 17 16 15 15 15 14 14 14 14 14 13 12 11 11 10 10 10 10 11 11 11 11 10 9 8 9 8 8 9 9 9 9 11 12 12 13 13 13 14 13
20 20 19 17 16 15 15 15 14 13 13 13 13 13 12 11 11 10 10 10 10 10 10 10 9 8 8 8 8 8 9 8 9 10 11 12 13 12 12 13 14 14 15
21 19 17 17 16 15 14 13 13 13 13 13 13 13 13 12 12 11 11 10 10 10 9 9 8 8 7 8 8 8 8 8 9 10 12 11 11 12 13 12 13 13 15
20 18 17 16 16 16 15 14 14 13 13 14 13 13 13 13 12 10 9 9 9 9 9 8 8 8 8 8 9 9 8 9 9 9 10 11 12 12 13 12 12 13 14
21 19 18 18 17 17 17 16 14 13 13 12 12 12 12 10 9 8 8 8 7 7 8 8 7 8 8 9 10 11 10 10 10 10 10 11 12 12 13 13 12 13 15
22 21 20 19 19 19 18 18 19 17 14 14 12 11 10 10 9 8 7 7 6 6 8 7 7 8 9 9 10 11 12 12 11 11 11 12 13 13 13 13 13 14 15
23 22 21 20 19 19 19 19 19 20 20 19 15 13 11 10 9 8 6 6 7 6 7 7 8 9 10 11 11 12 12 13 13 13 13 13 13 13 13 14 14 15 16
23 22 21 21 21 21 21 20 20 20 19 18 16 14 11 9 8 7 6 7 7 8 9 9 10 10 11 12 12 12 13 14 14 14 14 15 15 14 15 16 18 18 18
22 22 22 22 22 21 20 20 20 19 18 17 16 15 13 10 10 8 7 7 8 10 10 11 12 12 13 13 14 15 15 15 15 15 16 16 15 15 17 18 19 20 21
22 22 22 22 21 20 20 20 19 19 18 17 16 14 11 10 9 9 9 9 10 11 12 13 14 15 15 15 15 15 16 16 17 18 18 18 18 20 19 19 23 24 24
22 21 21 20 20 20 19 18 18 18 18 17 16 14 11 10 9 11 12 13 13 13 13 14 15 16 16 16 16 17 17 19 19 19 20 21 21 21 23 23 24 24 25
21 20 20 19 19 19 19 18 18 18 17 16 15 14 11 11 12 13 15 16 16 16 16 17 18 20 19 19 18 17 19 20 20 20 21 21 21 22 24 25 26 26 26
20 20 20 20 19 20 19 19 18 18 16 15 14 13 14 15 16 17 18 18 18 18 18 19 19 20 21 20 21 21 22 22 21 21 21 21 23 24 25 27 26 27 27
20 20 20 20 20 20 20 19 19 18 16 16 16 15 17 17 18 18 19 19 19 19 20 20 19 20 21 21 21 22 21 22 23 23 23 23 24 25 28 27 27 27 27
21 21 21 21 21 20 20 20 20 18 19 18 18 18 18 18 19 19 19 19 20 20 21 20 20 20 21 21 22 22 22 23 25 23 24 25 27 28 29 29 29 28 28

GFSGL_con_lsi_084.txt.gz
Lid_Strength_Index
9 9 9 9 9 9 9 9 9 9 9 9 9 9 9 9 9 9 9 8 8 8 8 8 7 7 6 6 5 5 5 5 7 6 5 4 5 7 7 7 7 7 8
9 10 10 10 10 10 10 10 10 10 10 10 10 10 10 10 10 10 10 10 9 9 9 8 8 7 8 8 7 7 7 6 7 8 6 6 6 5 6 7 8 8 9
10 10 11 11 11 11 11 11 11 11 11 11 11 11 11 10 10 10 10 10 10 9 9 9 9 9 10 10 9 8 8 7 7 7 8 6 6 8 9 10 10 10 9
10 11 12 13 12 12 12 12 12 12 12 12 12 12 12 11 11 10 11 11 11 10 10 10 10 10 11 10 10 10 9 9 8 8 8 7 7 7 11 11 10 11 11
12 13 13 13 12 12 13 13 14 14 13 13 13 13 12 12 11 11 12 12 12 12 12 11 11 11 11 10 10 11 10 10 9 9 9 8 8 8 11 10 11 11 11
13 14 13 14 14 14 15 15 15 15 15 15 14 14 14 12 11 10 11 12 13 13 13 12 12 13 12 10 9 9 8 10 10 10 10 10 10 9 9 10 10 12 12
14 15 15 14 15 15 15 16 16 15 15 15 15 15 15 14 12 11 11 13 13 13 13 13 13 12 12 11 10 9 9 9 8 9 10 10 10 9 9 10 11 11 11
15 15 15 16 16 16 16 16 16 16 16 16 15 16 15 15 12 12 11 13 14 14 13 13 12 11 10 10 10 11 11 11 10 10 10 9 9 9 9 10 10 11 10
15 16 16 16 18 17 18 17 16 17 17 17 16 17 18 15 13 12 12 13 13 13 12 11 11 11 10 9 11 12 12 11 9 8 7 7 7 7 8 10 11 12 12
17 17 17 17 19 19 18 18 18 18 16 16 16 17 17 17 13 12 11 13 13 13 11 11 10 9 10 10 11 11 12 10 10 10 10 9 9 10 9 10 9 11 12
17 18 19 18 20 19 19 19 20 19 17 17 17 16 18 17 15 11 10 11 12 12 12 11 10 10 10 9 8 10 11 9 9 11 10 11 12 12 12 12 12 11 12
20 21 22 24 22 19 23 22 21 20 19 18 20 16 15 17 13 10 9 9 10 11 12 11 11 10 9 8 8 8 8 9 9 10 11 12 13 13 14 14 14 14 13
24 25 25 24 23 23 24 22 22 23 21 17 17 17 16 14 14 11 10 10 9 10 11 10 9 8 8 8 7 8 8 8 10 11 12 12 12 12 12 13 13 14 14
27 25 24 24 23 24 21 20 23 23 19 18 18 17 16 15 14 13 12 11 10 10 10 10 9 8 7 7 8 8 9 9 10 10 11 11 11 12 13 13 14 14 15
25 24 24 23 26 23 21 20 18 18 18 17 16 16 16 16 14 12 11 12 11 9 9 11 9 9 9 9 10 10 9 9 9 9 11 13 12 12 13 13 12 13 15
25 24 25 24 25 22 21 20 16 15 14 13 13 14 14 12 12 11 11 10 9 7 9 12 10 8 8 8 10 10 10 10 9 10 11 11 13 13 13 12 13 15 17
30 27 27 24 24 24 22 22 22 19 16 15 15 14 13 13 12 11 10 9 8 7 8 9 8 8 8 9 9 10 12 12 11 11 13 13 12 13 13 14 15 16 17
31 26 28 27 27 26 26 23 23 23 23 21 18 16 15 14 13 11 10 9 9 8 7 8 8 8 9 10 11 12 13 14 15 15 14 14 14 14 16 16 16 18 19
29 29 29 28 28 27 25 23 23 22 22 22 21 18 17 15 13 11 9 10 9 8 11 10 9 9 10 11 11 13 14 16 17 17 16 16 17 16 17 18 17 18 19
31 26 27 29 28 27 25 24 23 23 22 22 21 20 18 18 17 15 13 10 9 11 10 11 11 11 12 12 13 15 16 17 17 17 18 17 18 16 17 19 20 20 23
30 30 26 28 29 28 25 24 23 22 22 22 21 19 14 15 15 15 12 14 12 11 11 12 12 13 13 14 15 15 17 18 19 19 19 19 20 20 20 20 22 23 24
31 30 29 29 27 24 25 23 23 22 21 20 19 17 13 15 15 13 17 16 15 14 13 13 14 14 14 15 16 17 18 20 20 21 21 21 21 21 22 22 23 27 29
29 29 28 29 28 25 25 25 22 21 20 20 18 17 15 14 16 18 19 18 17 17 16 16 17 17 17 18 17 17 19 20 21 21 21 22 22 22 23 23 25 29 29
29 28 29 29 29 28 26 24 22 21 21 19 19 18 17 18 19 23 22 19 18 18 18 18 18 18 19 20 20 20 20 22 21 21 21 21 22 22 23 27 28 29 29
30 30 30 30 30 28 27 26 23 23 21 21 20 19 19 21 21 24 22 20 19 19 19 19 19 19 21 21 21 21 19 20 22 21 22 22 23 23 26 25 27 29 31
31 31 31 30 30 30 29 26 24 23 22 21 21 20 20 22 22 24 23 21 20 20 20 19 20 20 20 20 21 20 21 21 22 22 22 23 23 25 26 27 27 30 32

GFSGL_con_lsi_087.txt.gz
Lid_Strength_Index
10 10 10 10 10 10 11 11 10 10 10 11 11 11 11 11 10 11 11 11 11 11 10 9 9 8 8 7 7 7 7 7 9 9 7 7 7 7 6 6 5 5 5
10 11 11 11 11 11 12 11 11 12 12 12 12 12 11 11 12 12 12 11 11 11 10 10 10 9 9 9 9 9 9 9 9 10 9 9 8 7 6 7 5 6 6
11 11 12 12 12 12 12 13 13 13 13 13 12 12 12 12 13 12 12 12 12 12 11 12 11 11 11 11 11 11 10 10 10 11 11 9 9 7 7 7 8 7 8
12 12 13 13 13 13 14 14 13 13 13 13 13 13 13 14 13 13 12 13 13 13 12 12 12 12 12 12 12 11 11 12 12 11 11 10 9 8 9 9 9 9 9
13 13 14 14 14 14 15 14 15 15 14 14 14 15 15 14 13 13 14 14 14 14 14 13 13 13 12 11 11 12 11 11 11 11 11 11 10 10 10 8 9 8 10
14 15 15 15 15 15 15 15 15 15 15 16 16 16 16 14 13 12 12 14 14 14 14 14 14 14 12 11 11 10 10 11 11 11 11 11 11 10 9 9 9 10 11
16 16 16 16 15 16 16 16 16 16 16 17 17 16 16 16 13 12 12 14 14 14 14 14 14 13 12 12 11 10 10 9 9 10 11 11 11 10 10 11 10 10 11
16 16 16 16 16 16 16 17 17 17 17 17 17 17 17 16 13 12 12 14 14 15 14 13 13 12 12 12 11 11 11 10 11 11 10 10 9 9 9 9 10 11 10
16 16 16 16 17 18 19 19 18 18 18 19 17 19 20 17 14 12 12 14 14 14 14 12 12 12 10 9 10 11 12 11 9 8 8 8 9 9 8 9 11 11 12
16 16 17 17 20 20 19 20 19 19 18 18 17 19 19 19 15 13 12 15 16 14 13 11 10 10 9 9 11 11 11 11 11 10 12 12 11 11 10 11 9 11 12
17 18 19 19 21 20 20 20 21 22 21 23 20 19 20 19 18 13 12 13 14 13 12 12 11 9 9 9 8 10 10 9 10 13 13 12 12 12 12 12 12 11 12
20 21 22 22 20 20 25 24 25 26 25 22 22 20 20 19 16 13 12 11 11 13 11 11 10 9 9 9 9 8 8 8 12 12 11 11 12 12 13 13 13 13 12
21 22 22 23 23 24 26 25 24 26 26 23 21 20 19 18 18 13 12 12 11 11 11 10 8 8 9 9 9 8 8 10 13 12 11 11 11 10 11 12 12 12 13
22 21 22 23 24 26 23 22 26 27 26 23 23 21 19 18 17 17 15 12 11 11 10 10 9 9 8 8 11 10 11 11 10 10 10 10 10 11 12 12 13 13 14
23 22 23 24 25 25 23 25 22 22 23 25 25 22 19 18 16 13 13 13 12 12 11 10 10 15 12 12 12 11 10 10 10 9 10 12 11 12 12 11 12 15 16
23 24 24 25 26 25 26 26 21 19 17 16 14 15 16 14 13 12 12 11 11 10 11 11 11 12 11 10 11 10 10 9 9 9 12 11 13 13 12 13 14 15 16
27 26 27 25 27 28 28 28 26 23 18 17 16 15 14 14 13 13 12 12 11 10 12 11 10 12 10 9 10 10 10 11 10 10 11 13 12 12 13 14 14 16 17
29 27 30 30 31 31 29 29 29 27 25 24 19 17 16 15 14 13 13 12 15 12 11 11 10 9 9 9 10 10 11 11 12 12 14 14 13 13 15 15 16 17 18
30 31 31 30 29 28 29 28 28 27 25 24 23 20 20 17 15 13 13 17 16 13 12 11 9 8 9 10 10 10 11 12 13 15 18 17 15 15 18 17 16 17 20
33 29 28 30 30 30 29 29 27 27 25 24 24 23 22 20 18 18 17 16 14 13 13 12 10 11 11 11 12 12 13 14 15 16 19 18 17 16 18 19 18 18 21
32 31 27 31 31 31 30 29 28 28 25 25 24 21 16 17 19 18 17 16 17 16 16 14 15 14 12 12 13 13 13 14 16 18 19 19 19 20 20 19 21 21 21
32 32 32 31 30 29 30 29 28 28 25 24 23 22 17 19 18 18 18 19 19 19 17 16 15 15 14 13 13 14 15 16 17 18 19 21 21 20 21 21 21 22 24
29 29 30 30 32 30 31 32 31 30 27 25 24 22 21 20 20 20 21 21 21 21 19 18 17 17 16 16 15 15 16 18 17 18 20 21 21 22 21 22 22 24 24
30 30 30 31 31 31 31 31 30 28 28 26 26 23 22 21 22 22 23 23 23 22 20 19 19 19 18 18 19 21 20 19 18 19 19 20 21 21 22 24 23 24 26
31 31 31 30 32 32 32 32 30 32 30 28 26 24 23 22 22 24 24 24 23 21 21 20 20 20 20 19 20 21 18 19 19 18 19 20 21 22 23 23 24 26 28
31 31 32 32 32 33 33 32 32 30 30 28 27 26 24 23 23 24 23 23 21 20 20 20 20 20 20 21 21 20 20 19 20 19 21 21 22 23 24 24 25 24 26

GFSGL_con_lsi_090.txt.gz
Lid_Strength_Index
11 11 12 12 11 11 11 11 11 12 12 12 12 12 12 13 13 12 12 12 13 13 13 13 12 12 11 11 10 10 10 10 11 11 10 9 10 10 9 8 7 7 6
11 11 12 12 12 12 12 12 12 12 12 13 13 13 13 13 13 13 13 13 14 14 14 13 13 12 12 12 12 12 11 11 12 13 12 12 11 10 9 9 8 7 6
12 12 12 13 13 13 13 13 13 13 14 14 14 14 14 14 14 13 13 14 14 14 14 14 14 14 14 14 13 12 12 11 11 13 13 12 11 10 10 9 8 8 8
12 13 13 14 14 14 14 14 15 15 15 15 15 15 15 15 14 14 14 15 15 14 13 14 14 14 15 14 13 13 13 13 13 13 13 13 11 10 10 10 10 9 9
13 13 14 15 15 15 16 16 16 16 16 15 16 16 15 15 14 15 15 15 15 15 15 14 14 14 13 12 13 13 13 13 13 13 13 12 12 11 11 11 11 10 10
14 14 15 15 16 17 17 17 17 17 16 16 16 16 16 15 14 13 13 15 15 15 15 15 14 14 13 12 11 11 11 12 13 12 12 12 12 12 11 11 11 11 12
15 16 16 16 17 17 17 17 16 16 16 16 16 16 17 17 14 13 13 15 15 15 15 14 14 14 13 14 12 10 10 9 9 10 12 12 12 11 11 10 10 11 11
16 16 17 17 17 17 17 17 17 17 17 17 17 17 17 17 14 13 13 15 15 15 15 15 15 14 13 13 12 12 11 11 11 10 10 10 10 10 10 10 10 10 9
16 17 17 17 18 18 18 18 17 18 18 19 18 20 20 19 14 13 13 15 15 15 14 15 15 13 12 11 12 12 11 10 9 9 9 10 10 10 10 10 10 10 11
16 17 17 18 19 19 18 18 18 20 18 18 18 20 20 20 16 14 13 16 17 15 15 14 13 11 11 10 10 10 11 11 10 16 16 14 12 12 10 11 10 11 11
18 19 19 19 19 19 19 20 22 23 21 25 22 21 21 21 20 14 14 15 16 16 16 15 12 11 10 9 8 10 10 9 10 19 18 16 14 12 12 11 11 11 11
19 20 20 21 19 20 22 22 24 26 26 26 25 23 21 21 17 15 14 14 14 16 15 14 13 10 9 8 8 8 8 9 12 19 18 16 14 11 11 12 12 12 12
21 22 23 21 21 21 22 22 24 27 26 24 22 23 22 20 20 16 16 14 13 14 14 12 10 10 9 9 9 9 10 10 13 17 16 13 11 9 11 11 11 11 12
22 22 22 22 22 23 21 21 24 26 25 24 26 26 24 23 22 20 17 16 14 13 13 13 11 10 9 9 11 11 12 11 11 14 14 11 10 11 13 12 13 11 15
21 21 22 22 23 23 23 23 22 23 23 28 28 27 25 23 22 15 14 14 14 13 12 13 13 13 12 13 16 14 13 12 10 13 14 13 11 12 12 11 12 14 15
21 22 22 22 23 24 25 25 21 20 19 18 18 19 23 17 15 14 13 12 11 11 13 13 13 12 13 13 15 14 13 11 10 10 12 12 11 13 12 12 13 16 17
22 23 24 24 25 26 27 28 28 26 21 20 19 18 17 16 15 14 13 12 12 13 16 14 13 12 12 12 13 14 13 11 10 10 9 10 13 14 13 15 15 16 17
25 25 25 26 27 28 28 28 29 29 31 29 22 19 17 17 15 14 13 15 19 18 17 14 15 14 12 11 12 12 11 11 11 11 10 11 14 14 13 15 15 19 19
27 27 27 27 28 28 28 29 29 30 30 29 27 23 22 17 15 15 14 24 20 18 18 18 16 15 13 12 10 11 11 11 11 11 12 13 16 16 16 16 16 17 20
28 27 28 30 30 30 29 30 29 29 29 30 29 28 26 23 22 23 25 24 21 20 20 19 18 17 15 13 12 11 13 12 12 12 13 14 15 17 17 17 17 19 21
29 29 29 30 32 32 30 30 28 30 30 29 27 24 17 22 24 21 22 23 22 22 21 20 19 18 16 14 14 14 15 13 13 13 14 15 16 19 19 16 17 19 21
28 29 30 30 30 29 31 29 29 30 29 28 26 25 19 26 26 25 23 23 23 23 22 21 20 19 17 16 15 14 14 14 14 15 16 18 19 20 20 19 19 21 22
29 30 31 31 31 29 30 30 29 29 29 30 29 28 28 29 28 26 25 24 24 24 22 22 21 20 20 18 18 17 15 15 16 18 16 18 20 20 20 20 22 23 23
29 29 28 28 28 28 27 29 30 29 30 31 33 31 28 27 27 26 26 26 25 25 25 23 21 20 20 19 19 19 19 19 19 18 17 18 19 19 20 22 22 24 22
29 28 28 27 28 28 29 30 30 32 33 32 31 31 30 28 28 27 27 26 26 25 25 23 23 20 19 20 20 20 19 19 19 17 17 17 18 19 20 22 23 24 24
28 28 28 29 30 32 31 30 30 31 31 31 30 30 29 29 28 27 26 25 25 24 24 24 24 23 20 19 20 19 20 18 19 18 18 19 19 20 22 23 23 23 23

GFSGL_con_lsi_093.txt.gz
Lid_Strength_Index
10 11 12 10 11 11 10 11 12 12 12 12 12 13 13 14 14 13 14 14 14 14 14 14 14 14 14 14 13 13 13 13 14 13 12 11 12 12 11 10 10 10 9
12 12 12 12 13 12 13 13 13 13 13 13 13 14 15 15 15 14 15 14 15 15 14 15 15 14 15 14 14 14 13 12 13 14 13 13 12 11 11 11 10 9 9
12 13 13 14 14 13 13 13 13 14 14 14 15 16 16 15 15 15 15 15 15 15 15 15 15 15 16 16 14 13 13 13 13 14 14 13 12 12 12 12 11 10 10
13 13 14 14 14 14 14 14 14 15 15 16 16 16 16 16 15 15 15 15 15 15 15 15 15 16 15 14 14 14 13 13 13 13 14 14 13 12 11 12 12 11 11
13 13 14 15 14 14 15 15 15 16 17 17 17 17 17 16 14 15 15 15 16 16 15 15 15 15 13 13 13 13 13 13 13 14 14 14 13 13 13 11 12 12 11
14 15 15 15 15 16 16 16 17 17 17 17 17 17 17 16 13 12 13 15 16 16 16 15 15 15 14 12 12 11 11 13 14 14 13 14 13 12 11 13 13 13 13
15 15 15 16 16 16 16 17 17 17 17 18 18 17 17 17 13 13 13 15 15 16 15 15 15 14 14 13 12 12 12 11 10 12 12 12 12 11 12 14 13 12 12
15 15 16 16 16 17 18 18 18 18 18 18 18 17 17 17 14 14 13 15 16 15 15 15 15 15 14 13 13 13 13 12 11 10 10 10 11 11 12 12 11 12 10
15 15 16 17 18 19 19 19 18 19 19 19 18 20 20 20 15 14 14 16 16 16 15 15 15 15 13 12 13 13 13 11 9 9 9 10 10 11 11 16 14 14 14
15 16 17 18 19 19 18 19 19 19 18 18 18 20 21 23 16 15 15 17 20 17 17 15 14 14 13 12 13 12 12 12 11 12 14 15 14 14 12 14 11 16 14
17 18 19 19 19 19 20 20 21 21 20 22 21 20 21 21 20 15 15 17 18 19 19 17 16 14 12 11 10 11 11 9 10 12 14 19 18 16 14 13 12 13 14
18 19 20 20 19 20 21 22 22 22 22 21 21 21 20 21 18 17 16 15 15 22 20 17 17 13 12 11 10 9 9 9 11 12 15 20 18 16 14 13 12 12 12
19 21 22 21 21 22 22 22 22 22 20 21 21 22 22 20 21 18 17 16 15 17 17 15 13 12 11 11 10 9 9 10 11 13 14 17 14 12 12 13 12 12 12
21 21 21 22 22 21 20 21 21 21 22 21 22 22 22 22 22 21 19 20 17 17 16 16 14 12 11 11 13 11 12 13 13 14 14 14 11 11 15 14 15 13 16
21 21 21 21 21 21 21 21 21 21 21 22 22 23 25 26 22 17 17 18 17 16 15 20 19 13 13 13 14 15 13 14 13 15 14 14 12 11 14 13 13 16 18
21 21 21 21 22 22 22 24 21 20 19 19 19 20 22 19 17 16 16 15 14 14 21 23 18 16 15 14 13 13 16 14 13 12 13 11 11 11 13 13 14 19 18
20 21 21 22 22 23 24 24 24 24 22 21 21 20 19 19 18 17 15 15 16 17 26 24 20 18 17 15 14 12 12 14 12 11 11 10 10 11 13 14 14 16 18
20 21 22 22 23 25 25 26 26 26 26 26 24 21 20 20 18 17 16 19 26 23 28 25 21 20 18 16 15 13 12 12 12 12 10 9 10 11 14 15 15 16 18
22 23 23 24 25 25 26 27 27 27 27 28 28 25 24 20 18 18 18 28 29 28 27 26 22 21 20 18 16 15 13 12 12 11 11 11 11 12 14 15 14 16 17
23 24 25 26 26 27 26 27 27 27 28 28 28 27 28 27 29 29 28 30 30 29 27 25 23 22 21 20 18 16 15 14 15 13 12 12 12 12 13 16 16 17 18
25 26 26 26 27 27 28 28 27 28 28 28 28 26 19 28 29 30 30 30 30 28 26 25 24 23 22 20 19 18 16 15 15 15 13 13 13 14 14 15 17 18 19
26 27 28 28 28 28 28 28 28 28 29 29 28 28 20 27 29 30 30 29 27 27 27 26 24 24 22 21 20 20 18 16 15 16 16 15 15 15 16 17 17 20 20
28 28 29 29 28 28 29 29 29 29 28 30 29 28 29 29 29 28 28 28 28 27 27 30 27 25 25 23 21 20 21 19 17 17 17 17 16 17 18 18 18 20 19
27 28 28 28 29 29 29 29 29 28 29 30 32 31 28 27 28 28 28 29 29 29 29 29 27 26 25 25 24 23 21 18 18 18 18 20 20 17 18 18 18 19 20
27 27 26 26 27 29 30 30 29 29 29 28 27 28 28 28 29 29 30 30 30 29 28 27 27 26 25 25 24 24 21 19 18 17 18 18 20 22 20 18 19 20 21
26 25 25 26 28 29 29 28 28 27 27 26 26 27 27 29 30 30 29 29 28 28 27 26 26 25 25 25 24 21 18 17 17 17 18 18 18 19 19 20 20 21 22

GFSGL_con_lsi_096.txt.gz
Lid_Strength_Index
5 6 7 9 10 10 10 11 11 12 12 13 13 14 14 13 13 14 15 15 16 16 15 15 15 15 15 15 15 15 15 14 16 14 13 13 13 13 12 11 11 12 11
7 7 9 11 11 12 11 12 12 12 13 14 14 14 14 14 15 15 16 16 16 16 16 16 16 14 16 16 15 15 15 14 14 16 14 13 13 12 12 12 12 11 12
9 9 11 12 12 12 13 14 13 14 15 15 15 15 15 16 16 16 16 16 16 15 15 16 16 16 17 16 16 16 15 14 13 14 14 13 13 12 13 13 13 13 12
10 11 12 13 13 13 13 15 15 15 15 15 16 16 16 16 16 16 16 16 16 15 15 15 15 16 17 17 16 16 14 14 13 14 14 14 13 13 13 14 14 13 12
11 11 13 14 14 15 15 15 15 15 16 16 16 17 17 16 15 16 15 16 16 16 15 15 15 16 14 14 14 14 14 14 13 14 14 14 14 13 14 13 14 13 14
12 13 14 14 16 15 15 16 16 16 16 17 17 17 18 16 13 13 15 15 15 15 15 16 16 17 15 13 13 12 12 14 14 14 14 14 13 13 13 13 14 13 15
14 15 15 15 15 16 16 16 16 17 17 17 17 18 18 17 13 13 13 15 15 15 16 15 15 15 16 15 13 12 12 12 11 13 14 13 13 13 13 13 15 15 15
15 15 16 16 16 16 17 17 17 18 18 18 18 18 18 16 14 14 13 15 15 15 16 16 16 16 16 15 14 14 14 13 12 12 12 12 12 11 11 12 13 13 15
15 15 16 15 16 17 17 18 18 18 19 19 18 20 20 19 15 13 14 16 16 16 16 16 16 16 15 13 15 18 16 13 12 10 10 10 10 11 10 17 19 19 19
15 15 15 16 16 17 18 18 18 19 19 19 19 21 21 20 15 14 15 16 18 17 17 16 16 15 14 13 16 18 17 14 14 12 12 12 14 14 12 16 14 14 15
15 16 16 17 17 17 18 19 19 20 21 22 21 21 20 19 18 15 15 16 17 18 19 18 17 15 14 13 12 17 16 12 11 12 13 13 18 17 16 16 16 14 15
16 16 17 17 17 18 19 20 21 21 21 22 21 21 20 19 18 17 16 15 15 19 19 18 18 14 13 13 13 12 11 11 12 12 13 13 18 16 14 15 14 13 12
16 18 19 19 19 19 21 21 21 21 20 21 20 21 20 19 19 18 17 16 15 17 17 16 14 14 14 14 13 12 13 11 11 12 12 12 13 13 13 14 14 13 13
17 19 19 20 21 21 20 20 21 20 20 20 20 20 21 21 21 20 19 18 17 17 16 18 17 15 14 13 15 14 14 15 13 12 12 13 13 13 13 13 15 14 17
18 20 20 20 21 21 20 20 20 20 19 20 20 21 22 22 21 17 17 18 19 18 20 23 22 20 18 17 17 15 16 17 16 15 12 14 13 13 13 12 13 16 19
20 20 20 21 21 21 21 22 18 18 18 18 18 19 20 19 17 17 16 16 15 16 24 24 24 21 21 20 18 16 14 14 16 13 13 13 14 12 12 13 13 16 17
19 20 20 20 21 21 22 22 23 22 20 19 19 20 19 19 18 17 16 16 18 19 26 27 27 25 23 20 20 17 16 14 12 13 12 12 12 11 12 13 14 15 16
19 20 20 20 21 21 22 22 21 22 24 25 22 21 20 20 19 18 18 21 25 26 29 29 29 27 24 23 21 19 17 15 14 13 12 12 11 11 14 14 14 16 16
20 20 20 21 21 22 22 23 24 24 24 25 26 24 23 21 20 20 21 28 29 30 30 30 31 29 25 24 23 21 19 18 16 15 13 13 11 12 13 12 13 14 16
20 21 21 22 23 23 24 24 25 25 25 25 26 26 26 27 28 29 30 31 33 32 32 32 29 28 26 25 24 22 21 20 18 16 15 13 12 13 13 13 14 16 17
22 23 22 23 24 24 24 24 25 25 25 26 26 25 23 27 27 28 29 31 31 31 30 29 28 28 26 26 24 24 23 21 19 17 15 14 14 15 13 13 15 17 17
24 24 24 24 25 25 25 25 25 25 25 26 26 27 20 26 28 29 30 30 29 30 28 28 27 27 26 26 25 24 24 23 21 19 17 16 16 15 15 15 16 18 18
25 25 25 26 26 26 26 26 26 26 26 26 26 27 27 29 30 30 30 30 29 29 29 30 29 29 29 29 27 24 23 23 22 20 19 17 16 16 16 16 17 20 19
25 25 26 27 27 27 26 26 26 26 27 27 28 29 28 29 29 28 28 28 29 30 30 30 31 30 28 28 30 29 26 23 21 20 20 18 17 17 17 17 18 20 20
25 25 25 25 25 25 25 25 25 25 26 27 28 28 29 28 28 28 28 30 30 30 29 30 29 29 28 27 27 27 26 22 22 21 20 19 19 18 18 18 18 18 19
27 25 24 24 24 24 25 25 25 26 26 26 27 27 27 27 27 28 29 30 30 30 29 29 28 28 27 26 26 23 21 18 18 18 19 20 19 18 18 18 19 19 19

GFSGL_con_lsi_102.txt.gz
Lid_Strength_Index
1 1 1 1 1 1 2 3 4 8 9 10 10 10 11 10 10 10 10 11 11 11 11 10 11 12 12 12 12 12 12 12 13 12 11 11 11 11 10 10 10 10 10
1 1 1 1 3 4 4 6 8 9 11 11 12 12 12 11 11 11 12 11 11 11 11 12 13 13 12 12 12 12 12 12 13 13 12 12 12 11 10 11 11 11 11
4 1 3 4 4 5 6 8 9 11 12 13 13 12 12 11 11 11 12 12 11 11 12 13 13 12 13 13 12 13 13 12 12 13 13 12 11 11 11 11 11 11 10
4 4 3 4 4 5 7 8 10 12 12 14 13 13 12 11 12 12 12 12 12 11 12 13 13 13 13 13 13 13 13 12 12 12 13 12 12 11 12 13 13 11 11
5 5 5 6 6 7 9 10 12 13 13 14 14 13 12 12 12 12 12 12 12 12 13 13 13 14 14 13 13 13 13 13 13 13 13 13 13 13 14 14 14 13 11
6 6 6 9 11 11 11 12 13 15 15 14 14 14 13 13 12 12 12 12 13 14 14 13 14 15 14 14 13 13 13 13 13 13 13 14 14 13 13 14 14 14 14
8 10 11 11 12 12 13 14 14 16 15 15 14 13 13 12 12 12 12 13 14 14 14 14 14 14 15 13 13 13 13 12 12 12 13 13 13 12 13 14 14 14 14
10 11 12 13 13 14 14 15 17 16 16 16 15 13 13 12 11 11 13 14 14 14 14 14 14 15 14 14 13 13 13 13 12 12 12 12 12 11 12 13 13 14 13
13 12 12 12 14 15 15 15 15 16 17 15 16 14 13 12 11 12 14 14 15 15 15 15 15 15 14 14 13 14 13 13 12 12 11 10 10 12 12 13 14 15 13
13 13 13 14 14 14 15 15 16 16 15 17 15 14 14 13 12 13 14 14 15 15 15 16 16 15 14 13 13 13 14 13 13 12 12 11 11 12 13 13 13 14 13
12 13 13 13 13 13 15 15 15 16 16 15 16 16 15 14 13 12 13 14 15 16 16 16 15 15 14 13 12 12 13 12 13 12 11 11 11 12 13 13 12 12 11
14 14 14 13 14 15 15 16 15 15 16 16 16 16 16 15 14 13 14 15 15 16 16 16 15 15 14 13 13 12 12 12 12 12 13 12 12 12 11 11 12 11 10
14 14 14 14 14 15 16 16 16 15 16 17 17 18 18 17 16 15 15 15 15 16 16 15 14 13 14 14 14 14 14 14 14 14 13 12 12 11 11 11 11 11 12
14 14 15 15 16 15 15 15 15 16 16 17 17 18 18 19 18 17 17 15 15 16 15 15 15 15 15 14 16 16 16 15 15 14 13 13 12 11 11 10 11 11 12
13 14 14 14 15 15 15 15 16 15 15 17 16 17 18 19 18 17 17 17 16 15 15 16 17 17 17 17 17 17 17 16 15 15 15 14 13 11 11 10 10 10 11
15 16 15 16 16 16 17 17 16 16 15 15 15 15 17 16 16 16 15 15 14 14 17 18 18 18 19 19 19 19 18 17 16 16 15 14 14 13 11 9 10 10 10
15 16 16 17 17 18 18 18 19 17 16 16 15 16 16 16 15 14 14 15 15 16 18 18 19 19 20 20 20 20 19 18 18 17 16 15 14 13 12 11 9 10 10
15 16 16 17 17 17 17 17 18 19 19 18 16 16 16 15 15 15 15 15 18 19 19 19 20 21 22 22 22 21 21 20 19 18 17 16 15 14 13 12 10 10 10
16 17 17 17 17 17 17 18 18 19 18 19 21 18 17 16 16 15 15 18 19 19 21 22 22 23 23 23 23 22 22 21 20 20 18 17 16 15 14 13 11 11 10
17 17 17 17 17 18 18 18 18 18 18 19 21 20 20 19 18 19 20 21 21 21 22 22 23 24 24 23 23 23 22 21 20 19 19 18 17 16 15 14 13 12 10
17 18 18 17 17 17 17 17 17 17 17 18 18 19 20 21 20 20 21 22 22 22 23 23 23 24 23 23 23 22 22 21 20 21 20 18 18 18 16 15 14 12 11
18 19 18 18 19 19 18 18 19 18 19 19 20 20 17 20 20 20 21 21 22 22 22 23 23 23 23 23 22 22 22 21 20 20 20 20 19 17 16 15 14 13 12
20 20 20 20 19 20 19 19 19 20 20 20 20 21 21 19 20 21 21 21 22 23 23 23 23 23 22 23 22 22 21 21 20 20 20 20 19 18 17 16 15 14 14
21 20 20 20 20 20 20 20 21 22 21 21 21 21 21 21 21 21 21 22 22 23 23 24 24 23 23 23 22 21 22 22 21 20 20 20 19 18 17 16 16 15 15
22 22 22 21 21 21 21 21 21 21 21 21 21 21 21 21 21 22 22 22 23 23 23 23 23 23 23 23 23 22 22 21 22 21 20 20 19 19 18 17 17 16 16
24 23 23 22 22 22 21 21 21 21 21 21 20 20 21 21 21 21 21 22 23 23 23 22 22 23 23 23 22 22 22 21 21 21 19 18 18 17 17 17 17 17 16

GFSGL_con_lsi_105.txt.gz
Lid_Strength_Index
1 1 1 1 1 1 1 1 1 2 4 5 7 8 8 9 9 9 9 9 10 10 10 10 11 10 11 10 10 11 11 12 13 12 12 11 11 11 11 11 11 11 11
1 1 1 1 1 1 1 1 2 3 5 6 8 10 11 10 10 10 11 10 11 11 11 11 12 11 11 11 11 11 12 12 13 14 12 12 12 11 11 12 12 11 11
3 1 1 2 1 1 1 3 5 6 7 9 11 11 12 11 11 11 11 11 11 11 11 12 12 12 12 11 12 12 12 13 12 13 13 12 12 12 12 12 12 12 11
6 4 2 2 2 2 3 5 7 8 10 11 11 12 12 12 12 11 12 11 11 11 11 11 12 11 11 12 12 12 12 13 13 14 13 13 13 12 13 13 14 13 13
6 6 5 4 4 5 8 8 10 11 10 11 12 13 13 13 13 12 12 12 12 12 12 12 12 12 12 12 12 13 13 13 14 14 14 13 13 14 14 14 14 14 13
6 7 6 7 9 10 10 10 12 13 13 12 14 14 15 14 12 12 13 12 13 13 13 13 12 14 13 13 13 13 12 14 15 14 13 14 14 14 13 14 14 15 16
7 10 10 12 13 12 12 13 13 13 14 14 13 15 14 15 12 12 13 13 13 12 13 13 13 14 14 14 13 13 13 12 12 13 14 14 14 14 15 14 14 14 15
9 11 12 12 13 14 14 13 13 14 14 14 14 15 15 15 12 13 12 13 13 13 13 13 14 15 14 14 14 14 13 13 13 13 13 13 12 12 12 13 14 14 14
11 11 12 13 14 15 14 15 15 15 15 15 15 15 15 13 13 12 13 13 13 14 14 14 14 14 14 14 14 14 14 13 12 11 11 11 10 10 11 13 14 15 16
11 11 12 13 14 14 15 15 15 14 15 16 16 15 14 14 11 13 12 13 15 15 15 15 15 14 14 14 15 14 15 14 13 13 13 12 11 11 11 12 13 15 15
12 13 13 13 14 13 13 14 15 15 16 15 15 15 14 13 13 12 13 14 14 15 15 16 15 15 14 14 13 13 13 12 13 14 13 12 12 12 13 13 13 14 14
13 14 14 14 14 14 14 14 14 15 16 16 16 17 15 14 13 12 12 13 13 14 15 15 15 15 14 14 13 12 12 12 13 13 13 13 13 12 12 12 12 13 12
14 15 14 14 14 14 15 15 15 15 15 16 17 17 17 16 14 12 13 13 13 15 15 15 15 14 13 13 13 13 14 15 15 15 15 14 13 12 12 13 12 13 13
14 14 14 14 14 14 14 15 15 16 16 16 17 17 17 17 16 15 14 14 14 15 15 15 15 14 14 14 15 15 16 16 15 15 15 14 13 13 13 12 13 13 13
13 14 14 14 14 15 15 15 15 14 14 15 15 15 17 18 16 15 15 16 16 16 16 15 16 17 17 16 16 17 17 17 17 16 15 15 15 14 13 12 12 12 12
14 14 14 14 15 15 15 16 15 14 14 13 13 14 15 15 15 15 15 15 15 14 16 17 17 17 17 17 17 18 18 18 17 17 17 16 16 15 14 13 12 11 12
14 14 15 16 16 16 16 17 18 16 15 15 14 14 15 15 14 15 14 14 14 14 17 17 17 17 18 18 19 19 19 19 20 19 18 17 17 15 15 15 13 12 11
15 16 15 15 15 16 16 16 16 17 18 17 15 15 15 14 14 14 13 13 15 14 17 17 18 18 19 20 20 20 20 20 20 20 20 19 19 18 16 16 14 13 12
15 15 15 15 15 15 15 16 16 17 17 17 18 17 16 14 13 13 13 16 18 19 19 20 19 20 20 21 21 22 22 22 21 22 22 21 19 18 17 16 15 14 14
16 17 16 15 16 16 16 17 17 17 17 18 19 18 18 17 17 17 16 17 19 19 19 20 21 21 21 22 22 22 22 22 21 21 21 20 21 19 18 18 17 15 14
17 17 19 16 16 16 16 16 16 16 16 17 17 18 18 19 18 18 18 20 20 20 20 21 21 22 22 22 22 22 22 21 21 22 22 22 22 22 22 18 17 16 15
18 18 18 18 18 17 17 17 17 17 17 18 19 19 17 19 19 19 19 20 20 21 20 21 21 21 21 22 22 22 21 21 21 21 21 22 22 21 22 20 19 17 16
19 19 19 19 19 20 19 18 18 18 18 19 19 20 20 18 19 19 19 20 20 21 22 22 22 21 21 22 21 21 21 21 20 20 21 21 21 20 20 21 20 20 19
20 20 20 20 20 19 19 19 19 21 20 19 19 20 20 20 19 20 20 20 21 21 21 22 22 21 21 21 21 21 21 21 20 21 21 21 21 20 20 19 20 21 19
22 22 21 21 22 21 21 21 21 21 20 20 20 20 20 20 20 20 20 20 21 21 21 22 22 22 22 22 22 22 21 20 20 20 21 21 21 21 20 20 20 20 20
24 23 23 23 22 22 22 21 21 21 21 21 21 21 21 21 20 20 21 21 21 21 21 21 21 21 21 21 21 21 21 20 21 21 22 21 21 20 19 19 19 19 20

GFSGL_con_lsi_108.txt.gz
Lid_Strength_Index
2 2 2 2 1 1 1 1 1 2 3 4 5 7 7 8 8 9 10 10 10 11 11 12 12 12 13 12 12 12 12 12 13 13 13 13 13 14 13 13 13 13 13
3 3 3 2 2 2 2 2 3 3 4 5 7 8 8 9 10 11 11 11 11 12 12 12 13 12 13 13 13 12 12 12 13 14 13 14 14 14 14 14 13 12 13
8 5 4 4 3 3 3 4 5 6 6 7 7 8 10 10 11 11 12 13 12 12 12 13 13 13 14 14 13 13 12 12 13 14 14 14 14 15 15 15 15 14 12
8 7 6 5 4 4 3 5 6 7 8 9 8 9 9 10 12 12 12 13 13 12 13 13 13 13 14 14 13 13 13 13 13 14 15 15 16 15 16 16 17 16 16
8 8 7 6 5 5 6 7 8 9 9 9 10 10 11 12 12 13 13 14 13 14 13 15 13 13 12 12 13 13 13 14 14 15 15 16 17 16 16 15 15 14 16
8 9 8 8 8 9 10 11 12 12 12 12 12 12 13 12 13 12 14 14 14 14 14 15 15 14 12 10 10 11 12 13 15 15 15 15 15 16 16 16 15 16 17
10 11 12 12 13 12 12 13 13 13 14 13 13 14 14 14 12 12 13 13 14 15 15 15 16 14 14 14 12 11 12 12 13 14 15 15 16 15 16 18 15 15 15
11 12 12 13 13 14 14 14 14 14 14 14 14 14 14 15 11 12 12 14 15 15 15 15 15 15 14 14 14 15 14 14 14 14 14 15 13 13 14 14 14 15 15
12 12 13 13 15 14 14 15 15 15 15 15 15 15 15 14 12 12 13 15 15 14 15 15 14 14 13 13 15 15 15 14 13 12 12 11 11 11 11 14 16 16 17
12 12 13 14 14 13 14 15 16 16 15 15 15 15 14 13 12 12 13 15 15 15 15 15 14 14 13 13 15 15 16 15 14 15 14 13 12 13 10 13 15 16 16
13 14 15 16 15 13 14 16 15 16 16 15 15 14 14 13 13 13 13 15 15 16 16 16 15 13 13 13 13 15 15 14 13 14 15 14 15 13 15 14 14 14 15
16 17 17 17 16 14 14 15 15 16 16 16 16 16 15 14 13 12 13 13 14 16 17 16 15 13 13 13 13 13 13 12 14 15 15 15 15 14 13 13 13 13 12
18 19 19 18 14 14 14 15 16 15 16 16 16 16 16 15 13 12 13 13 13 15 15 15 14 13 13 13 13 13 13 15 16 17 16 15 15 14 13 13 13 13 13
18 19 18 18 18 16 15 15 15 15 15 16 16 16 17 16 15 14 14 14 14 15 14 15 14 14 14 15 15 14 15 16 16 17 16 16 15 15 15 14 14 14 14
18 18 18 18 18 18 16 15 15 15 14 15 15 15 16 17 15 14 14 15 15 16 16 16 17 17 17 17 16 16 17 17 18 18 18 17 16 16 15 15 13 13 14
19 19 19 19 19 19 19 20 14 14 13 13 13 14 15 15 14 13 13 13 13 14 17 18 18 17 17 17 17 18 18 19 19 18 18 19 18 18 17 17 14 14 14
19 19 20 19 20 21 21 20 20 17 14 14 13 13 14 14 14 13 13 13 13 14 17 17 16 17 17 17 18 19 19 19 20 21 21 20 20 20 19 19 18 16 14
21 20 20 21 21 21 21 21 21 21 21 18 14 14 14 14 13 13 13 13 15 14 16 17 17 17 18 19 19 20 20 20 22 22 22 23 23 23 23 22 20 18 16
22 22 22 22 22 21 22 22 22 21 21 20 17 16 15 13 13 13 12 14 15 16 17 18 18 19 19 20 20 20 20 21 22 23 24 24 24 23 23 21 19 17 17
23 21 22 23 23 23 23 23 23 22 22 22 22 21 19 16 15 14 14 15 17 17 18 19 19 20 20 20 21 21 22 22 22 23 23 22 22 23 21 22 23 20 19
25 25 23 24 24 25 24 24 18 22 22 22 22 21 17 19 19 19 18 19 19 19 19 19 20 21 22 22 22 22 22 21 21 21 21 21 21 21 21 20 21 21 19
26 27 26 26 25 24 25 25 25 24 23 24 25 23 15 23 21 20 19 19 19 19 19 20 21 21 21 21 21 21 21 21 21 20 20 21 21 21 21 21 20 19 19
26 25 25 26 26 26 26 27 26 26 26 26 26 25 25 22 23 22 21 21 21 21 21 21 21 21 21 20 20 20 20 20 20 19 20 21 21 21 20 20 20 20 20
28 27 28 28 29 28 27 27 27 25 25 23 23 23 23 23 22 23 23 23 23 23 23 22 21 21 21 21 21 21 20 20 20 20 20 20 21 20 20 20 20 20 19
32 31 30 30 30 31 31 30 29 30 29 27 27 25 24 24 23 24 24 24 25 25 25 24 23 22 21 21 22 21 20 19 20 20 20 20 21 20 20 20 19 20 19
31 31 32 32 32 32 32 31 31 30 29 29 29 29 28 28 29 29 28 27 26 25 25 25 24 22 23 22 21 20 20 19 19 19 20 20 20 20 20 20 19 19 19

GFSGL_con_lsi_111.txt.gz
Lid_Strength_Index
2 2 2 2 2 2 2 1 1 2 2 3 3 3 4 5 6 6 6 8 8 10 12 10 12 12 12 13 13 13 13 13 14 14 13 13 13 12 12 13 13 14 14
4 3 3 3 3 2 2 2 2 3 2 3 3 4 5 6 7 7 9 9 9 12 12 13 12 15 14 13 13 13 13 13 13 14 13 13 13 12 12 14 14 13 14
7 5 4 4 3 3 2 2 3 3 3 3 4 5 7 8 8 8 8 10 10 11 11 13 14 14 15 14 13 13 13 12 13 14 14 13 13 13 14 15 15 15 13
9 9 7 6 5 4 4 5 6 6 6 6 5 6 7 8 8 8 9 11 11 11 12 13 13 13 13 14 15 14 13 14 14 14 15 14 14 14 15 15 17 16 16
8 8 8 8 6 5 6 6 7 7 7 8 8 9 9 9 9 9 10 11 12 13 13 13 14 14 13 13 14 14 15 15 14 15 15 15 14 15 15 15 17 15 15
8 8 9 9 8 9 9 10 9 10 10 10 10 10 10 9 10 11 11 12 14 14 14 15 14 15 13 12 12 12 13 14 14 15 14 14 14 15 15 16 17 17 18
9 11 11 11 10 11 12 11 11 11 12 12 12 13 13 12 11 11 12 13 14 14 14 15 15 15 14 13 12 11 12 11 11 13 14 14 15 14 16 19 17 16 16
12 12 12 12 12 12 11 11 12 12 12 13 13 13 13 14 11 11 12 14 14 14 14 15 15 15 14 14 15 14 14 14 13 13 14 14 14 14 15 15 16 16 15
12 12 12 12 15 13 13 13 12 13 14 13 14 13 14 14 11 11 12 14 15 14 14 14 14 15 14 14 15 15 15 15 12 12 12 12 12 11 12 14 18 19 19
12 12 13 14 15 13 13 14 15 15 14 14 14 14 14 14 11 11 13 14 14 15 15 15 14 15 14 13 15 15 16 16 15 15 14 13 12 12 11 12 14 17 18
14 14 15 16 14 13 13 15 14 15 15 14 15 15 14 14 13 11 12 14 14 15 15 16 15 14 13 12 13 15 15 15 14 15 15 15 15 15 14 13 13 14 16
17 17 17 15 14 13 13 14 14 14 15 15 15 15 15 15 13 12 11 13 13 16 15 16 15 13 12 12 13 13 13 14 14 15 15 15 15 15 13 14 14 13 12
18 19 15 17 13 14 13 14 15 14 15 16 16 16 16 15 14 12 12 12 13 15 15 15 14 13 12 13 12 13 14 14 15 15 15 15 15 14 14 14 14 13 13
19 19 19 19 19 17 14 14 14 14 15 15 15 15 16 15 14 13 13 13 13 14 14 14 14 13 13 14 14 13 14 15 15 15 15 16 15 15 15 15 15 15 15
19 19 19 20 21 20 18 16 15 15 14 15 15 15 16 16 14 13 13 14 14 14 15 15 15 15 15 15 16 16 15 16 16 16 17 17 17 16 16 16 15 15 16
19 19 20 20 21 20 21 21 14 14 13 12 12 14 15 14 13 12 12 12 13 13 16 16 17 16 17 17 17 17 17 17 17 17 17 18 17 17 17 17 16 16 16
21 21 22 21 22 22 23 23 22 19 13 13 12 13 13 13 12 12 11 11 11 12 17 17 17 17 17 16 17 17 18 18 18 18 18 19 19 19 18 18 17 17 17
23 22 23 23 23 23 23 23 24 24 23 17 14 14 13 13 13 12 12 12 14 13 15 19 17 16 16 17 18 18 19 19 20 19 20 20 20 20 20 19 19 19 18
22 23 24 25 24 24 24 24 24 24 24 22 18 16 16 13 13 12 12 14 15 15 15 16 19 18 17 18 18 19 19 20 20 20 20 21 21 21 21 20 20 19 18
24 22 24 24 24 24 24 24 24 25 25 26 25 24 24 21 15 14 14 14 15 16 19 19 19 18 18 18 19 20 21 21 21 21 21 21 21 21 21 21 20 20 20
27 27 26 26 26 28 28 26 18 21 25 26 26 25 16 23 24 24 22 21 21 21 20 19 21 21 21 21 21 21 21 21 21 21 21 21 21 22 21 20 20 20 19
29 29 29 30 30 28 29 29 28 26 23 22 22 25 16 18 23 24 23 23 22 21 23 22 22 22 22 22 22 22 22 21 21 20 20 20 20 20 20 20 20 20 19
29 29 29 31 31 29 29 30 30 30 29 29 29 28 28 27 25 25 23 23 24 24 23 24 24 25 25 25 23 22 22 21 20 19 20 20 20 20 20 20 20 20 19
32 32 32 33 32 32 33 32 32 30 30 29 28 27 26 26 26 25 26 26 27 27 28 27 26 26 26 26 24 23 23 22 22 22 21 21 21 20 20 20 20 19 19
34 33 33 33 35 34 34 34 32 33 33 32 31 31 31 31 30 31 31 30 29 30 29 29 28 26 25 25 25 25 22 19 22 21 22 22 22 22 21 20 20 19 18
34 35 35 36 36 36 35 35 35 35 35 33 32 33 32 32 32 33 32 32 30 29 28 27 27 25 25 24 23 21 20 18 19 18 20 20 22 22 20 20 20 20 19

GFSGL_con_lsi_114.txt.gz
Lid_Strength_Index
2 2 2 2 2 2 2 2 2 1 1 2 2 2 2 2 2 3 3 4 5 4 8 8 8 12 12 14 13 14 14 14 15 16 15 14 14 13 13 13 12 12 12
4 3 3 2 2 3 3 3 2 2 2 2 2 2 3 3 3 4 4 5 6 7 9 10 11 13 14 13 13 14 13 14 14 16 15 15 14 13 13 14 13 13 13
6 5 5 5 3 3 3 3 3 3 3 3 3 3 3 3 4 5 4 6 7 7 8 11 12 13 14 14 13 14 14 14 14 16 17 16 14 14 14 14 14 14 13
10 9 8 7 5 5 4 4 4 3 3 3 3 3 4 5 6 6 6 7 8 8 9 9 10 12 12 13 14 14 14 15 15 16 17 16 16 15 15 15 16 15 15
9 10 10 9 8 7 6 5 5 6 6 6 6 7 7 7 7 7 7 7 8 9 10 11 11 12 12 13 14 14 14 15 15 16 16 16 17 16 15 15 15 15 16
10 10 10 10 10 9 9 9 9 9 10 11 11 11 10 8 9 10 9 9 11 11 13 13 14 15 13 12 12 12 14 14 15 16 16 15 16 16 16 15 16 17 18
10 11 11 12 11 11 11 11 11 11 11 11 11 11 11 10 10 10 11 11 12 13 13 14 14 15 13 14 12 12 13 12 13 14 14 15 16 15 15 17 16 17 17
12 12 12 12 13 13 11 12 12 12 12 12 11 11 11 12 10 9 11 12 12 13 13 13 15 14 13 14 14 14 14 14 14 14 14 15 14 14 14 15 15 16 16
13 13 13 13 16 13 13 12 12 13 13 13 14 13 13 13 11 10 11 13 14 14 14 13 13 14 13 12 13 14 14 15 13 12 13 12 12 12 13 15 17 18 18
14 13 13 14 15 13 13 14 14 14 14 14 14 14 13 13 11 10 12 13 14 15 14 14 14 13 12 12 14 14 15 15 15 16 15 13 12 13 12 13 14 17 18
15 15 15 15 13 13 13 14 14 14 14 14 14 14 14 13 13 10 11 13 14 14 15 15 14 12 12 13 13 15 14 15 14 15 15 15 15 14 13 12 13 14 16
17 16 14 13 13 13 13 13 13 13 14 14 14 14 15 14 12 10 11 12 12 14 14 14 14 12 12 12 13 13 13 14 15 15 15 15 15 15 14 14 13 13 13
17 15 15 14 13 13 13 14 14 14 14 15 15 15 15 15 14 11 11 12 12 14 14 14 13 12 12 12 12 12 14 15 15 15 15 15 15 14 14 14 14 14 13
19 19 19 19 20 15 14 14 14 14 15 15 15 15 15 15 14 13 13 12 13 13 13 13 13 12 12 12 13 12 13 14 14 15 15 15 15 15 15 14 15 14 15
19 20 20 20 21 21 19 18 15 15 14 14 14 14 15 15 14 12 13 13 13 13 14 14 14 14 14 14 14 14 14 14 15 14 16 16 16 15 15 15 15 16 16
20 20 20 20 21 21 21 20 14 13 12 12 12 14 18 13 12 11 11 12 12 12 17 17 16 15 16 15 15 16 15 16 15 15 16 16 16 16 16 16 15 15 16
21 21 21 21 21 23 23 23 22 19 14 12 12 12 12 12 12 11 11 11 11 11 17 17 18 19 19 19 19 18 17 16 16 16 16 17 16 17 17 16 16 16 17
24 24 24 25 25 25 25 25 26 25 24 18 15 14 13 13 13 12 12 11 13 12 14 17 21 21 21 20 19 17 16 17 17 17 17 17 18 18 18 18 18 17 18
24 25 27 27 26 26 26 25 26 26 26 20 18 19 19 14 13 13 12 15 15 15 15 15 16 19 21 20 19 18 17 17 18 19 19 19 20 20 20 19 18 18 18
27 24 26 28 26 26 25 26 25 26 27 28 27 26 25 22 17 15 15 15 15 15 15 15 17 19 19 19 19 19 20 21 20 20 20 20 20 20 20 20 19 19 19
28 28 28 27 28 30 30 27 26 28 28 28 28 26 15 18 20 25 23 22 22 22 21 21 21 22 22 22 22 22 21 21 20 20 21 21 20 21 20 19 19 19 19
31 31 31 32 31 29 31 30 31 30 26 26 25 25 18 20 20 26 27 25 24 24 24 23 23 23 23 23 23 23 23 23 22 21 21 21 20 20 20 20 20 19 19
31 31 31 33 33 32 31 32 32 33 32 32 31 29 29 31 29 29 29 28 28 27 26 25 25 25 24 24 24 23 23 23 22 22 22 22 22 21 21 21 21 21 20
32 32 31 31 31 32 33 34 33 32 33 33 34 33 32 33 33 32 31 29 29 30 29 28 27 25 26 26 25 25 24 23 23 22 21 22 22 22 22 23 22 21 21
33 33 32 34 34 36 35 36 35 37 36 35 34 34 34 33 33 33 33 34 33 32 30 30 30 28 26 25 24 24 22 19 21 21 23 22 21 21 20 20 20 20 20
33 34 34 35 36 37 37 37 36 36 36 34 34 35 35 33 32 33 33 33 31 29 29 28 28 27 26 25 23 21 21 19 19 18 21 21 22 22 21 21 20 20 20

GFSGL_con_lsi_117.txt.gz
Lid_Strength_Index
3 4 4 3 2 2 2 2 2 2 2 2 2 2 2 2 2 2 2 2 3 3 3 4 4 4 6 9 11 11 13 14 12 16 15 15 15 14 14 14 14 13 13
3 3 4 4 4 3 3 3 3 3 3 3 3 3 3 2 2 2 3 3 3 4 4 6 6 7 8 10 10 11 11 13 14 16 16 16 16 14 15 15 14 13 14
5 5 4 4 4 3 3 4 4 4 3 2 2 3 3 2 2 2 2 3 4 4 4 6 6 8 9 9 11 11 12 13 15 15 16 16 16 16 15 15 15 14 13
10 8 7 7 6 6 5 4 3 3 2 3 3 2 2 2 3 3 3 4 4 5 5 5 6 9 9 10 11 12 13 14 15 15 16 16 16 15 15 16 16 15 15
10 10 10 10 9 9 8 8 7 6 5 5 5 5 6 6 6 6 6 6 7 8 9 9 10 11 12 11 12 13 13 15 15 15 17 16 16 16 16 16 15 15 15
9 10 10 10 11 9 9 10 10 10 9 9 10 10 9 8 10 9 9 9 9 10 11 12 12 14 13 12 11 12 12 14 15 15 16 15 15 15 16 16 16 17 17
10 12 12 12 12 12 12 12 12 11 11 11 11 11 11 10 10 9 10 10 11 10 12 13 14 14 14 13 11 12 12 12 11 13 14 15 14 15 15 17 16 17 17
12 13 13 13 13 13 12 12 12 12 13 12 12 12 11 12 10 9 10 11 11 11 12 12 13 13 13 13 13 13 13 13 12 13 14 14 13 13 13 14 15 16 17
14 14 14 14 15 14 13 12 13 13 14 13 14 14 14 13 11 10 10 13 12 13 13 13 13 13 12 11 13 13 13 13 12 12 12 12 12 12 13 15 18 17 19
15 15 15 15 15 14 14 14 15 14 14 14 13 13 14 13 11 10 11 13 13 14 14 14 13 13 11 11 13 13 14 14 14 14 14 13 12 13 12 15 16 17 18
16 16 15 15 14 14 14 14 14 14 14 13 13 13 13 13 12 10 11 13 13 14 14 14 13 11 11 10 11 12 12 13 12 13 14 15 16 16 14 13 14 15 18
16 15 14 14 14 13 13 13 13 13 13 15 14 14 14 14 12 11 11 12 12 13 13 14 13 11 10 10 11 11 11 13 14 14 16 15 15 15 14 14 13 13 13
15 16 15 14 13 13 13 13 13 13 14 15 15 14 15 14 14 11 11 11 11 13 14 13 12 11 10 11 10 11 12 13 14 14 15 15 15 14 14 16 14 14 13
18 18 19 19 16 14 14 14 14 14 14 14 14 14 15 15 14 13 13 13 13 13 13 13 12 11 11 12 13 11 13 13 15 16 18 17 15 14 14 15 14 15 15
19 19 19 20 21 20 19 17 16 15 14 15 15 15 16 15 15 12 12 13 15 14 16 16 14 14 14 14 14 13 13 13 14 14 14 18 15 15 15 15 14 14 15
20 20 20 21 22 22 22 21 14 13 12 12 12 15 20 13 12 12 11 11 12 12 15 15 15 15 15 15 15 14 14 14 14 14 15 15 15 15 16 15 14 15 15
22 22 23 22 23 24 24 22 22 20 14 13 13 13 13 13 13 12 11 11 11 13 19 20 21 20 20 20 19 15 17 18 17 15 15 15 16 16 16 16 16 16 16
25 25 26 26 25 25 24 26 26 25 24 20 16 15 14 13 13 13 13 12 14 13 15 16 17 17 18 23 24 23 23 22 19 18 16 16 17 17 18 18 17 17 17
25 26 28 27 27 26 25 24 25 26 25 20 21 20 22 15 13 13 13 15 15 16 16 16 16 16 17 17 18 18 18 20 21 21 21 20 20 19 20 19 18 18 18
29 26 28 28 27 26 26 25 25 26 27 27 27 27 26 23 22 23 18 18 17 16 16 16 21 22 21 22 22 22 23 24 23 22 22 22 21 20 20 20 20 19 19
31 29 28 27 28 29 30 29 29 28 29 30 29 25 16 19 19 22 27 26 25 26 25 25 26 26 26 25 26 25 25 25 23 22 22 22 22 22 21 20 21 20 20
30 31 31 32 31 30 31 31 31 31 31 31 30 29 20 29 29 29 31 31 29 27 27 27 27 27 27 26 26 26 26 25 24 23 24 23 22 22 22 21 22 22 22
29 30 31 31 31 31 31 33 33 34 34 35 34 31 32 34 33 33 33 34 33 31 30 30 30 30 30 29 27 25 25 26 25 24 24 24 24 23 22 22 22 22 22
30 30 30 32 31 32 34 36 36 35 36 36 37 36 34 35 36 35 35 35 34 34 35 34 33 32 32 32 31 30 30 28 27 24 23 23 23 23 23 22 22 22 22
32 31 32 32 34 35 35 34 32 35 35 36 34 35 35 34 33 34 34 34 35 35 31 32 33 31 30 30 31 31 29 23 24 24 25 24 23 22 22 22 22 21 20
32 32 34 35 34 35 36 34 33 33 34 33 34 33 34 34 33 33 32 33 31 31 30 30 30 29 29 29 29 27 25 21 22 20 21 22 21 22 22 21 20 21 21

GFSGL_con_lsi_120.txt.gz
Lid_Strength_Index
3 2 2 2 2 2 2 2 2 2 3 3 3 3 3 3 3 2 2 2 3 3 2 3 3 3 3 4 6 7 8 8 8 15 16 14 15 15 14 15 14 13 13
4 4 3 2 3 3 3 3 3 3 3 3 3 3 3 3 3 3 3 2 3 3 3 3 3 4 4 4 7 7 8 10 11 14 15 16 15 14 14 14 15 14 14
5 5 5 5 4 4 4 4 4 4 4 4 3 3 3 2 2 2 2 2 3 3 3 3 4 5 6 6 9 9 10 12 13 14 15 14 15 14 15 15 15 15 13
9 7 7 6 6 5 4 4 4 4 4 3 3 2 2 2 2 2 3 3 3 3 4 5 6 7 8 7 10 11 13 13 14 14 15 15 14 15 14 15 16 16 15
10 10 10 10 10 9 9 8 8 8 6 5 5 5 5 5 6 6 6 7 7 7 8 9 10 12 12 10 10 12 13 14 14 14 15 15 16 15 16 15 15 15 15
10 10 10 11 10 9 9 10 10 10 9 10 10 10 10 9 11 10 9 8 9 11 12 12 11 13 11 10 10 10 11 13 13 13 13 15 15 14 14 15 15 16 17
11 12 13 12 12 12 12 12 12 12 12 12 12 12 12 12 10 10 10 10 10 10 11 12 12 13 12 11 10 10 10 9 10 12 13 13 14 14 14 15 16 16 18
13 13 13 13 13 12 12 12 12 13 13 14 14 14 14 14 11 10 11 11 11 12 12 12 12 12 12 12 12 12 13 12 12 12 12 12 12 13 13 14 15 18 18
14 14 13 13 14 13 13 13 13 14 15 14 15 15 15 14 11 10 12 13 13 13 13 12 12 12 12 11 13 13 13 13 11 10 10 10 10 10 12 14 16 17 19
14 14 13 13 13 14 14 14 15 15 15 15 14 14 14 14 11 10 12 13 13 13 13 13 13 13 11 10 13 13 13 13 12 12 12 11 11 11 11 13 15 20 22
14 14 15 14 14 14 14 15 14 14 14 14 14 14 14 13 12 10 11 14 15 15 16 16 15 11 11 10 11 12 13 13 12 13 13 13 13 15 14 15 16 17 19
16 15 15 14 14 14 14 14 14 14 14 14 14 14 14 13 11 10 11 11 12 16 16 15 14 11 10 10 12 10 10 12 12 13 14 14 14 13 13 13 13 13 13
15 15 15 15 15 14 14 14 14 14 14 14 14 14 15 14 13 10 11 11 12 14 14 13 12 11 10 10 11 11 12 14 14 14 14 14 16 16 15 15 13 13 13
19 18 18 16 16 15 15 15 14 14 14 14 14 15 15 14 14 14 13 13 13 13 13 13 12 12 11 12 13 12 13 13 14 15 15 16 17 18 18 15 14 14 15
19 20 19 19 20 19 18 16 16 15 14 15 16 16 17 18 16 13 12 13 18 15 16 16 15 14 14 14 14 14 14 14 14 14 15 15 15 15 16 15 14 16 15
20 20 21 20 21 21 20 19 13 12 13 13 13 16 19 13 12 11 11 11 12 13 20 22 16 16 16 16 15 15 15 15 15 15 15 15 15 15 19 18 17 16 17
21 21 21 21 21 22 23 22 21 19 14 14 14 13 13 13 13 12 11 11 11 13 16 17 17 17 17 17 18 17 16 17 18 15 15 15 15 16 18 19 18 17 17
23 23 23 23 23 23 23 25 25 23 21 19 17 16 14 13 13 13 13 12 13 14 16 16 16 17 17 18 19 22 23 21 18 17 16 16 17 19 21 20 19 18 18
23 24 25 25 25 24 24 24 25 23 22 21 24 20 22 16 15 14 14 15 16 16 16 16 16 17 17 17 17 20 20 21 23 24 24 23 23 22 22 20 20 18 18
26 25 26 26 25 25 25 25 26 27 27 28 28 21 19 20 23 27 23 21 20 20 20 20 21 27 26 26 26 26 27 27 27 27 27 26 23 22 21 22 21 21 21
28 28 27 27 28 29 29 28 28 30 31 32 30 26 19 29 28 28 31 31 30 30 28 29 29 30 30 30 30 30 30 29 30 29 28 26 25 24 23 21 22 23 21
28 29 29 30 30 30 30 29 29 30 32 32 31 30 22 31 32 32 32 33 33 32 31 31 31 32 31 31 31 31 31 30 31 29 28 28 27 26 26 24 23 24 23
27 27 28 29 29 28 29 29 30 30 30 34 33 31 33 35 34 33 32 34 35 33 34 34 33 33 34 33 33 31 30 31 31 30 29 29 27 25 25 25 26 26 23
28 28 28 28 29 29 30 30 31 31 31 32 33 34 32 34 34 33 33 34 35 35 36 37 36 34 35 35 36 35 34 32 31 29 26 24 24 25 24 24 23 22 22
29 29 29 30 30 30 30 30 30 32 33 34 34 32 33 36 35 35 35 35 35 35 33 33 35 34 33 32 32 32 32 25 26 27 27 25 24 25 25 23 23 22 21
29 29 29 30 30 30 31 31 31 32 32 33 34 34 34 34 33 33 33 34 33 32 33 32 32 31 30 29 29 27 25 22 24 23 22 23 23 25 23 22 22 22 22

GFSGL_con_lsi_123.txt.gz
Lid_Strength_Index
2 2 2 2 1 1 1 1 1 2 2 3 3 3 2 2 2 2 2 2 3 3 2 3 3 2 3 3 3 3 5 5 7 13 14 14 14 14 13 12 13 12 11
3 2 2 2 1 1 2 1 2 2 2 2 3 3 3 2 2 3 3 3 3 3 3 3 3 3 3 3 4 5 6 7 8 11 15 15 15 13 14 13 13 12 12
4 4 4 3 2 2 2 2 2 2 3 3 3 3 3 3 3 3 2 2 2 3 3 3 3 3 5 4 7 8 9 11 11 12 14 14 14 14 13 13 13 13 12
7 5 5 5 4 4 4 4 4 3 3 3 3 3 3 3 2 2 2 2 2 3 4 6 7 7 7 7 8 9 11 12 12 13 14 14 15 14 13 14 15 13 13
10 10 10 9 9 8 8 7 8 8 7 6 5 5 6 7 8 6 5 6 6 7 8 9 9 11 10 9 10 11 11 12 12 13 14 14 14 15 14 13 13 14 14
10 10 10 10 9 8 9 9 9 9 10 10 10 10 10 10 10 10 8 8 9 9 10 11 11 13 11 9 9 9 9 11 12 12 12 13 13 13 13 13 14 15 15
11 12 12 11 11 11 11 11 11 11 11 11 11 11 11 11 10 10 10 9 10 10 11 11 12 12 11 10 9 9 9 9 10 10 12 12 12 12 12 13 13 13 12
13 13 12 12 12 12 11 12 12 12 12 12 12 12 12 12 11 10 11 10 11 11 11 11 11 11 11 11 11 12 12 12 11 12 11 12 11 11 11 12 12 13 14
13 13 13 12 13 12 12 12 12 13 13 13 13 14 14 14 11 10 12 13 13 13 13 12 11 11 11 11 12 13 13 13 11 10 10 10 10 10 11 12 13 14 14
13 13 13 13 13 13 13 13 14 14 14 14 15 15 15 14 10 11 13 14 14 13 13 13 12 12 11 10 12 13 13 13 12 12 12 11 10 10 11 11 12 13 15
14 14 14 14 14 13 14 14 14 14 14 14 15 15 14 14 13 12 12 13 13 14 14 14 13 11 11 10 11 12 12 12 11 12 12 12 12 12 11 12 12 13 14
15 14 14 14 14 14 14 14 14 14 14 14 14 15 15 14 12 11 10 11 12 13 13 13 13 10 10 10 11 10 10 12 12 12 13 13 13 13 13 13 13 13 12
14 14 14 14 14 14 14 14 14 14 14 15 15 14 15 14 12 11 11 11 12 13 13 12 11 10 10 10 10 10 12 12 13 13 13 13 14 13 13 13 13 12 12
15 15 15 15 15 15 14 14 14 14 14 14 14 15 15 14 14 13 13 13 13 13 12 12 11 11 11 12 12 12 12 13 13 14 15 15 14 14 14 14 14 13 13
17 17 17 17 16 17 16 15 15 15 14 15 15 15 15 15 14 12 12 14 14 14 15 15 13 13 14 14 14 13 13 13 14 14 14 15 15 15 14 14 13 13 14
20 19 19 19 19 17 16 15 13 13 13 13 13 15 14 12 11 11 11 12 12 13 17 16 16 16 16 16 15 15 15 15 14 14 14 14 15 15 15 15 14 14 15
20 20 20 20 20 20 18 17 17 16 14 14 13 13 13 13 12 11 11 11 12 13 15 16 16 16 17 17 17 17 16 16 16 15 15 15 15 14 14 15 15 15 16
21 21 21 21 21 21 21 21 20 20 19 19 17 15 13 13 13 12 12 12 13 14 15 15 16 16 16 16 17 17 18 17 17 16 16 16 16 16 17 17 17 17 17
23 23 23 22 22 22 22 22 21 20 21 21 22 18 19 15 15 15 15 16 15 16 16 16 16 17 17 16 16 18 19 19 19 19 19 20 19 19 19 18 18 19 18
24 24 24 24 23 23 23 23 23 24 24 24 23 22 22 20 21 24 24 22 21 21 21 22 22 22 22 22 21 22 21 21 21 21 21 21 21 20 20 20 20 19 19
25 25 24 25 26 25 25 25 25 25 26 26 27 25 20 26 27 27 28 28 27 27 26 25 25 25 25 24 24 23 24 23 24 24 23 23 22 22 21 20 20 20 20
25 26 26 26 26 26 27 27 27 27 27 27 28 27 23 29 29 29 29 30 30 30 28 28 26 26 26 25 25 25 25 25 25 25 25 24 24 22 22 21 21 20 20
26 26 26 26 27 26 26 27 27 28 28 28 29 28 29 29 29 29 29 30 30 29 29 30 29 27 27 29 29 27 27 26 26 26 25 25 24 22 22 21 21 21 20
27 27 27 27 27 27 28 28 28 28 28 28 29 29 29 30 31 31 32 31 31 31 31 31 31 30 30 30 30 30 30 29 28 26 25 24 23 22 22 22 21 20 20
28 28 28 28 28 28 29 28 28 29 29 29 30 30 30 32 33 33 32 32 33 33 32 32 32 32 31 31 30 30 30 27 27 27 25 24 23 23 23 21 21 20 20
28 28 28 28 28 29 29 29 30 30 30 30 30 31 31 32 32 32 32 33 33 32 32 32 32 31 31 29 29 28 27 24 24 25 24 23 22 23 23 22 22 21 20

GFSGL_con_lsi_129.txt.gz
Lid_Strength_Index
2 1 1 1 1 1 1 1 1 1 1 1 1 1 1 1 1 1 1 2 2 2 2 3 3 2 2 2 2 3 3 3 5 7 12 12 13 13 12 11 11 10 9
4 3 2 1 1 1 1 1 1 1 1 1 1 1 2 1 1 1 2 2 2 3 3 3 4 3 3 3 3 3 3 4 4 6 13 14 13 13 12 13 12 11 10
3 2 2 1 1 1 1 1 1 1 1 1 1 1 2 2 1 1 2 2 2 3 3 3 3 3 3 3 3 3 4 5 6 8 12 13 14 13 13 13 13 12 11
6 2 2 2 1 1 1 1 1 1 2 2 1 1 1 1 1 1 2 2 2 2 3 3 3 3 3 3 4 5 7 9 10 12 14 14 14 14 14 14 14 13 13
5 5 3 2 1 1 1 1 2 2 2 2 3 2 2 2 2 2 2 2 3 3 5 6 6 8 10 7 7 8 9 11 14 13 14 14 14 14 14 13 13 13 13
5 5 5 5 5 4 3 5 6 7 7 7 7 7 5 7 11 10 7 6 6 7 8 9 10 13 10 10 10 9 8 10 13 13 14 13 13 13 13 13 13 14 15
5 5 7 7 7 6 7 8 9 8 8 10 9 9 10 10 9 10 10 7 8 8 9 11 12 12 12 12 9 9 10 10 10 12 13 12 12 12 12 13 13 13 13
6 6 9 9 9 9 9 10 10 10 10 10 11 10 11 11 10 10 10 9 10 11 11 11 11 12 12 12 11 12 12 13 13 12 12 12 12 12 12 12 12 13 13
7 8 10 10 10 10 11 9 9 11 12 12 12 12 12 12 10 10 11 12 13 13 13 12 12 12 11 11 12 13 14 14 11 10 10 9 10 9 10 12 13 13 13
8 9 10 10 11 10 10 11 12 13 13 13 14 13 14 13 11 11 11 13 13 13 13 13 13 12 11 11 13 13 14 13 12 12 12 11 11 10 10 11 11 12 12
11 11 12 12 12 10 12 13 13 13 13 14 14 14 13 13 12 12 12 13 13 13 13 13 13 11 11 11 12 13 12 12 12 12 12 12 12 12 11 11 12 11 12
12 12 12 12 13 12 13 13 13 13 14 14 14 14 14 13 12 12 12 12 12 13 14 13 12 11 11 12 12 10 11 12 12 12 12 13 12 12 12 12 12 12 12
13 13 13 13 13 13 13 13 13 13 13 14 14 14 14 14 13 12 12 12 12 13 13 12 11 11 11 11 11 11 12 12 12 13 13 13 13 13 13 13 13 13 13
13 13 14 14 13 13 13 13 13 13 13 14 14 14 14 14 14 13 13 13 13 13 13 13 12 12 12 13 13 12 12 12 13 13 14 14 14 14 14 14 14 14 14
14 15 14 14 14 15 15 14 15 14 13 14 14 14 14 15 14 13 13 14 14 13 14 13 14 14 14 14 13 13 12 13 13 13 13 14 14 14 15 14 14 14 15
16 16 16 16 15 15 15 15 13 13 13 13 13 13 14 13 12 13 13 13 13 13 14 15 15 15 15 14 14 14 14 14 14 13 14 14 15 15 15 15 15 17 16
15 17 17 17 16 16 16 16 18 16 14 13 13 13 13 12 12 12 12 13 13 13 14 14 15 15 15 16 15 15 15 15 15 15 15 15 15 15 16 16 15 15 15
17 17 18 17 17 17 16 17 17 17 18 19 16 16 14 14 13 12 12 12 14 13 14 15 15 15 15 15 16 16 16 15 16 15 15 15 16 16 16 16 16 16 16
20 20 19 19 19 18 18 18 18 18 19 20 19 18 19 16 15 15 15 15 15 15 16 16 16 16 16 16 16 16 16 16 17 17 16 17 17 17 17 17 17 18 19
22 22 22 22 22 21 21 21 21 21 21 22 23 22 21 19 20 20 20 20 20 20 20 19 19 19 19 19 18 18 18 17 17 18 18 18 18 18 19 19 19 19 19
23 23 23 23 24 24 24 24 23 23 23 24 24 22 20 22 22 22 22 22 23 23 23 22 21 21 20 20 20 20 20 20 20 21 22 21 21 22 21 20 20 20 21
24 24 24 25 24 25 25 24 24 24 24 24 24 23 21 23 23 23 23 23 24 24 23 24 24 23 23 23 23 23 23 23 23 23 23 24 25 24 23 23 22 22 22
25 25 25 25 25 25 25 25 25 25 25 25 24 24 24 24 25 25 25 25 25 25 24 25 25 25 24 24 24 24 25 25 25 25 27 27 26 25 24 23 24 25 25
25 26 26 26 26 25 25 25 25 25 25 25 25 25 26 25 26 26 25 25 25 25 25 25 26 26 26 27 26 25 26 27 28 27 29 28 27 26 26 26 25 26 25
26 26 26 26 26 27 26 26 26 26 26 26 26 26 26 26 26 26 26 26 26 27 27 27 27 27 27 28 28 28 28 27 29 28 29 28 28 28 26 26 26 25 24
26 26 26 26 26 27 27 27 27 27 27 27 27 26 26 27 26 26 26 27 27 28 28 27 27 28 28 28 28 27 26 25 27 28 29 27 26 26 25 25 26 24 24

GFSGL_con_lsi_132.txt.gz
Lid_Strength_Index
6 5 4 2 2 2 2 1 1 1 2 2 2 2 2 2 1 2 1 1 2 2 2 2 2 2 2 2 3 3 3 4 5 5 8 11 12 12 12 12 11 11 11
7 5 5 4 3 2 2 2 2 2 2 2 2 2 2 1 1 1 1 1 2 3 3 3 3 3 3 3 3 3 4 3 5 5 12 14 13 13 13 13 12 12 11
7 7 4 4 3 3 2 2 2 2 2 2 2 2 2 2 2 2 2 2 2 3 3 4 3 3 4 4 4 4 4 4 4 5 10 14 13 13 14 13 14 13 11
7 7 7 3 3 2 2 2 2 2 2 1 1 2 2 2 2 2 2 2 3 3 3 3 3 4 4 4 4 4 5 5 8 10 14 15 15 15 15 15 15 14 13
6 7 7 6 3 3 5 4 4 4 5 5 3 3 2 3 3 3 2 2 3 3 5 5 5 7 10 7 6 6 8 10 14 13 14 15 14 15 15 15 15 14 13
7 6 6 7 7 6 6 7 7 7 7 7 7 8 7 7 10 10 8 5 5 6 7 9 11 13 11 11 10 9 8 9 13 13 14 13 14 14 14 15 15 15 15
8 6 8 8 9 9 9 9 9 8 8 9 9 9 9 9 9 9 10 7 7 8 9 11 12 12 11 11 10 10 11 9 9 11 12 12 13 13 14 14 14 13 13
9 8 9 10 11 11 11 10 10 10 10 10 10 10 10 11 10 9 10 9 10 10 11 11 12 12 12 11 12 13 13 13 12 12 12 12 13 13 13 12 12 13 13
11 11 11 11 11 11 11 11 10 11 11 11 12 13 13 12 10 10 11 12 13 13 13 12 12 12 11 10 13 14 14 14 11 10 10 10 10 11 11 12 13 13 14
12 12 12 11 11 11 10 11 13 13 13 13 13 14 14 13 11 10 11 13 14 14 14 13 13 13 11 11 13 13 14 14 14 14 14 12 12 11 11 12 12 13 13
14 13 12 12 12 11 11 13 13 13 13 13 13 14 13 13 12 11 11 13 13 14 14 14 14 11 11 11 11 13 13 13 13 13 13 13 13 13 13 12 12 12 13
15 15 13 12 12 12 12 12 13 13 13 13 14 14 14 14 13 11 11 12 12 13 14 14 13 11 11 11 12 11 11 13 13 13 13 14 14 14 13 13 13 12 12
17 16 13 12 12 13 13 13 13 12 12 13 14 14 14 14 14 12 12 11 12 13 13 12 11 11 11 11 11 11 13 13 13 14 14 15 15 14 13 13 13 13 13
20 17 14 12 12 12 13 13 13 13 13 13 14 14 15 14 14 14 14 14 13 13 13 13 12 12 12 13 14 14 14 14 14 14 15 15 14 16 15 14 14 14 15
20 18 15 13 12 14 14 14 15 14 13 13 13 14 14 15 14 13 14 14 14 14 14 14 14 14 15 15 14 14 15 15 16 17 16 15 15 15 15 14 14 15 16
20 17 14 14 14 14 15 14 12 13 12 12 12 13 14 13 12 13 13 12 13 13 15 15 16 16 16 15 16 16 16 15 15 14 15 15 15 15 16 15 16 18 18
20 17 15 15 15 15 15 16 17 15 12 12 12 12 12 12 12 13 13 13 13 14 16 16 16 16 16 17 17 16 17 17 16 16 16 16 16 16 16 16 16 16 16
20 19 17 17 16 15 15 16 16 18 19 19 16 16 14 13 12 12 13 14 16 15 16 17 17 16 16 17 17 17 17 16 16 16 16 16 16 16 16 16 16 17 17
20 20 19 19 18 18 17 18 18 19 21 22 21 20 19 16 16 17 17 20 20 21 20 20 20 19 19 19 18 18 18 18 18 18 18 17 17 17 18 18 17 18 20
21 21 21 21 21 21 20 20 21 22 23 23 23 22 22 21 23 23 23 23 23 23 23 23 22 22 22 21 21 20 20 20 20 20 20 21 21 20 20 20 20 20 21
22 22 22 22 23 23 23 23 23 23 24 24 25 21 20 24 24 24 24 24 24 24 24 24 24 23 22 23 22 22 22 22 22 22 22 23 23 24 23 22 22 22 24
23 23 24 24 24 24 24 23 24 24 25 25 25 24 21 24 25 24 24 25 24 24 24 25 25 24 24 24 24 24 24 24 23 23 23 23 24 25 25 25 26 26 26
24 24 24 24 24 24 25 25 26 26 26 26 25 25 25 25 25 25 25 25 25 25 25 25 26 26 25 25 24 25 25 25 25 25 26 27 28 27 28 28 27 28 28
24 24 24 24 24 25 25 25 25 25 25 25 26 26 25 25 26 25 25 25 25 26 26 26 26 26 26 26 26 26 26 26 26 26 27 28 28 29 30 30 28 29 27
24 24 25 25 25 25 25 25 25 25 25 25 25 26 25 26 26 26 26 26 26 27 27 27 27 27 27 27 28 28 27 26 27 27 30 29 29 29 29 29 28 29 28
24 25 25 25 25 26 26 26 26 26 27 26 26 26 26 27 27 27 27 28 28 28 28 27 27 27 28 28 27 26 25 24 25 26 29 30 30 29 29 28 29 28 28

GFSGL_con_lsi_135.txt.gz
Lid_Strength_Index
7 7 6 5 4 3 2 1 1 1 2 2 2 2 2 2 1 2 2 2 1 1 1 1 2 2 2 3 3 3 4 3 4 3 6 10 11 12 12 11 12 11 10
7 7 7 5 4 3 3 2 1 2 2 2 2 2 2 2 2 2 2 2 2 2 2 2 2 2 3 3 3 3 3 3 4 4 9 13 12 13 12 12 13 11 11
8 7 7 6 5 3 2 2 2 2 3 2 2 2 1 2 2 2 2 2 2 2 2 2 3 3 3 3 3 3 4 4 4 4 8 14 14 14 14 14 14 13 12
9 8 8 7 6 4 2 2 3 3 2 2 2 1 2 2 2 2 2 2 2 2 2 2 2 3 3 3 4 4 4 4 5 7 15 15 15 15 15 15 15 14 14
10 10 9 7 6 6 6 5 4 5 5 5 4 4 4 3 3 3 2 2 2 3 4 3 3 5 8 5 4 4 5 6 13 13 14 15 15 15 14 15 14 14 15
11 11 9 9 9 7 7 8 8 7 6 6 6 7 6 6 10 10 9 5 5 5 4 5 9 13 10 10 9 8 7 7 11 12 13 13 13 14 15 14 15 15 14
12 11 10 12 12 11 10 10 9 9 8 8 8 8 8 8 9 9 9 8 7 6 7 10 12 12 12 11 11 11 12 9 9 10 13 13 13 13 13 14 14 14 14
13 12 12 12 12 12 12 11 11 9 10 10 9 9 9 10 9 9 10 8 9 10 10 10 11 12 12 12 12 13 13 13 12 12 12 13 13 13 13 13 13 14 14
14 14 14 13 13 12 12 11 10 10 10 11 11 12 12 11 9 9 10 11 12 12 12 11 11 12 11 10 13 13 14 14 11 11 11 10 11 11 12 13 14 14 15
16 16 15 14 14 13 11 11 10 11 11 12 13 13 13 13 11 10 10 13 13 13 13 13 13 12 11 10 13 13 14 14 14 13 13 12 12 11 11 13 13 13 14
18 17 16 15 14 13 11 11 11 11 13 12 12 13 13 13 12 10 9 12 13 13 13 14 13 11 11 11 11 13 13 13 13 14 14 14 14 14 14 13 13 13 14
19 19 19 17 15 13 12 11 11 12 12 13 13 13 13 13 12 11 10 11 11 13 13 14 13 11 11 11 12 11 11 13 13 14 14 14 14 15 14 14 14 13 13
21 22 21 18 16 13 12 12 11 12 12 13 13 13 14 13 12 11 10 10 11 13 13 12 11 11 11 11 11 11 13 13 13 14 15 15 15 14 14 14 14 14 13
23 22 21 19 17 13 11 11 11 11 12 12 13 13 14 14 14 14 13 13 12 13 12 12 12 13 12 13 14 14 14 13 14 15 15 15 15 15 15 15 15 15 15
22 22 20 17 15 13 12 13 13 12 12 12 12 12 14 15 14 13 13 13 13 13 13 14 14 15 15 15 15 15 15 15 15 15 16 16 15 15 15 15 15 15 16
23 21 20 18 15 14 13 13 11 11 11 11 11 12 13 12 12 12 12 12 12 13 14 15 16 16 16 16 17 17 16 16 15 15 15 15 16 16 16 16 16 16 16
21 21 20 18 16 15 14 15 16 15 13 14 13 11 12 12 12 12 12 12 12 13 16 16 17 17 18 18 18 18 18 18 17 16 16 16 16 16 16 16 16 17 17
21 20 19 18 18 17 16 16 17 19 19 19 16 15 13 13 13 13 14 16 18 18 19 19 18 18 18 18 18 18 18 17 17 17 17 17 17 16 16 16 16 17 17
21 21 20 20 19 18 18 19 19 20 21 20 19 18 18 16 16 17 18 21 22 22 22 22 22 22 22 21 21 20 19 19 19 19 19 18 18 17 18 18 18 18 20
22 21 21 21 21 21 21 21 21 21 22 22 20 21 21 21 22 23 23 23 24 24 24 24 23 23 23 22 22 21 21 21 21 21 21 21 21 21 21 22 22 22 22
23 23 22 22 22 22 22 23 22 23 23 23 24 20 18 23 24 24 24 25 25 25 25 25 24 24 24 24 24 24 23 23 23 22 22 22 22 22 22 21 21 23 23
23 23 23 23 23 23 23 24 24 24 24 25 24 24 21 24 25 25 25 26 25 25 25 25 25 25 25 25 25 25 25 25 24 24 24 24 24 24 24 23 23 23 24
23 23 23 23 23 23 23 24 24 24 24 25 25 25 25 25 25 26 26 25 25 25 25 25 26 26 25 25 25 26 26 26 26 26 26 26 26 26 25 25 25 25 26
23 23 23 23 23 24 24 24 24 24 24 25 25 24 25 25 25 25 25 25 25 25 26 26 26 26 26 26 26 26 26 26 26 26 26 26 27 26 27 27 26 26 26
23 24 24 24 24 25 24 25 25 25 25 25 25 25 25 25 25 25 25 25 26 26 26 26 26 26 27 27 27 27 27 26 26 26 27 27 28 27 28 28 27 27 27
24 25 25 25 25 25 26 26 26 26 26 26 26 26 26 26 26 26 26 27 27 28 28 27 28 28 28 28 27 26 26 25 25 24 24 27 28 28 28 28 28 28 28

GFSGL_con_lsi_138.txt.gz
Lid_Strength_Index
9 9 9 8 7 6 5 3 3 1 1 1 1 1 1 1 1 1 1 1 2 2 2 2 2 2 2 2 1 2 2 3 4 3 3 6 9 10 11 11 11 11 10
10 10 9 8 8 7 7 4 3 3 2 1 1 1 2 2 1 1 2 2 2 2 2 2 2 2 2 2 2 2 2 2 4 5 4 11 10 11 12 12 12 12 11
11 10 10 9 8 8 7 6 5 4 2 2 2 2 2 2 1 1 1 2 2 2 2 2 2 2 2 2 2 3 2 3 3 3 4 13 14 13 15 14 14 13 12
12 11 11 10 10 10 9 8 7 6 4 2 3 3 2 2 2 2 2 2 2 2 2 2 2 2 2 2 3 3 3 3 3 5 9 13 14 15 15 15 15 14 14
13 12 12 10 11 11 11 10 10 9 7 6 4 4 4 4 3 6 3 2 2 2 3 2 2 4 8 5 3 3 3 4 6 10 13 14 15 16 16 14 14 14 14
14 13 13 12 12 12 11 11 11 10 9 8 8 7 7 5 7 8 9 7 6 5 4 4 4 11 9 10 9 8 5 5 10 10 13 13 14 14 14 14 14 15 14
15 14 15 14 15 14 13 12 11 10 9 9 9 8 8 8 8 8 9 8 7 5 6 7 9 11 11 10 11 11 11 10 9 9 12 12 13 13 13 14 14 14 14
17 16 17 17 17 16 15 13 12 11 10 9 9 8 9 9 8 8 9 9 8 8 8 8 9 10 11 11 12 13 13 13 12 12 12 12 12 12 12 13 13 14 15
18 19 19 18 18 18 17 15 13 11 11 10 9 10 10 10 9 9 9 11 11 11 11 11 10 11 10 10 12 13 14 14 11 10 10 10 10 11 12 13 14 14 16
19 19 19 19 18 18 17 16 13 11 11 11 10 10 11 12 10 9 10 12 12 13 13 12 13 11 10 10 12 13 13 13 13 13 13 12 12 12 11 13 13 13 15
20 20 20 19 19 19 18 15 14 12 11 11 11 11 11 12 11 10 9 11 12 12 13 13 13 10 10 10 11 13 12 13 12 13 14 14 14 14 14 13 13 13 14
21 21 21 21 20 18 18 16 14 12 11 11 11 11 11 12 12 11 10 9 10 12 13 13 13 10 10 10 11 11 11 13 13 14 14 14 15 15 14 14 14 14 14
22 22 22 21 20 19 18 16 13 11 11 11 11 11 11 12 12 11 10 9 9 11 12 12 11 10 10 11 11 11 13 13 14 14 15 15 15 15 15 15 14 14 14
23 22 21 20 19 18 16 14 13 12 11 11 11 11 11 12 12 12 13 12 12 12 11 11 11 12 12 12 13 13 13 13 14 15 16 16 15 15 15 15 16 15 16
22 21 20 19 19 18 16 14 12 12 12 12 11 11 11 12 11 11 12 12 13 13 13 13 14 14 14 15 15 15 15 15 15 16 16 16 16 16 16 15 16 16 16
22 20 20 19 18 17 16 12 11 11 12 12 12 10 11 10 10 11 11 11 11 12 14 15 15 15 16 16 16 16 16 16 16 15 16 16 17 17 17 16 16 17 17
22 20 20 19 19 18 17 17 18 16 14 13 13 13 12 10 10 10 12 13 12 14 16 17 18 18 18 18 17 18 18 18 16 16 16 16 16 16 17 17 17 17 17
21 20 21 20 20 20 20 19 20 20 20 18 16 16 14 14 14 14 14 16 19 19 21 21 21 21 21 20 19 18 18 18 18 17 17 17 17 17 17 17 17 18 18
21 21 21 21 21 21 21 21 21 21 22 21 19 18 19 16 16 17 18 22 22 23 23 24 23 23 23 22 22 21 21 20 20 20 20 19 19 18 18 18 18 18 18
22 21 21 21 21 22 22 22 23 23 23 23 22 21 22 22 23 24 23 23 24 24 24 24 24 24 24 24 24 23 23 23 23 22 22 21 21 21 21 21 20 20 20
21 21 21 22 22 21 22 23 23 24 24 24 24 21 19 24 24 25 25 25 25 25 25 25 25 25 25 25 25 25 25 24 24 24 23 23 23 23 22 22 22 22 22
21 21 21 22 22 22 22 22 23 23 24 24 24 23 20 24 25 25 26 25 26 26 26 26 26 26 26 26 26 26 26 26 25 25 25 25 24 24 24 24 23 23 23
22 22 22 22 22 22 23 23 23 23 24 24 24 24 24 25 25 25 25 25 25 26 26 26 26 27 26 26 26 26 27 27 27 26 26 26 26 25 25 26 25 25 24
24 24 24 24 24 24 24 24 24 24 24 24 24 24 25 25 25 25 25 25 25 26 25 25 26 26 27 27 27 26 26 26 25 26 26 27 26 26 26 26 26 26 25
26 25 25 25 25 25 25 25 25 26 26 25 26 25 25 25 25 25 25 25 26 26 26 26 26 27 27 28 27 27 26 26 25 25 25 25 26 26 26 27 27 26 26
28 28 28 26 26 26 26 27 27 27 27 27 27 27 27 27 26 26 26 27 27 27 27 27 27 28 28 27 27 26 26 24 24 23 23 25 26 27 27 27 27 27 27

GFSGL_con_lsi_144.txt.gz
Lid_Strength_Index
14 13 12 12 12 11 12 12 11 10 10 9 9 8 7 5 3 1 1 1 1 1 1 2 2 1 2 2 2 2 2 3 5 3 2 3 5 5 7 8 9 9 9
15 14 13 13 13 13 12 13 12 12 11 10 9 8 7 6 5 4 3 2 2 2 2 2 2 1 2 1 2 2 3 2 3 5 3 4 5 6 7 9 11 10 9
16 15 15 14 15 15 15 14 13 13 12 11 10 9 8 8 7 6 4 3 4 3 2 2 2 2 2 2 2 2 2 2 3 3 4 6 10 12 12 14 13 13 12
17 17 17 16 17 17 16 16 15 15 14 13 11 10 9 9 8 7 7 6 6 5 5 4 3 2 2 2 2 2 2 3 3 3 4 5 12 14 14 14 14 15 14
18 18 18 18 18 18 17 17 16 16 15 14 13 12 10 9 9 9 8 8 8 7 6 5 4 6 9 8 4 2 2 3 4 6 8 13 14 15 14 13 11 15 15
19 18 19 19 18 18 18 18 18 17 17 16 15 13 12 10 9 9 8 8 8 8 8 7 6 8 6 8 8 9 8 5 6 9 11 11 11 12 12 13 13 14 14
20 20 20 20 20 19 18 18 18 18 17 17 16 14 13 12 9 9 9 9 9 8 8 8 7 7 8 7 7 8 8 8 7 5 8 10 12 10 11 14 13 13 13
19 20 20 20 20 19 19 19 19 18 17 17 16 14 13 11 9 9 9 9 9 8 8 8 8 8 8 8 8 9 9 10 10 9 8 9 8 9 9 11 12 14 15
20 20 19 20 20 20 20 19 18 18 18 17 15 14 13 12 9 9 8 9 10 9 9 9 9 9 9 8 9 10 10 11 11 10 9 9 8 8 10 12 13 13 14
21 21 20 20 20 20 19 19 18 18 16 15 15 13 12 11 9 9 8 9 10 10 9 9 10 10 9 9 10 11 11 11 12 13 13 11 10 10 10 11 11 12 14
21 21 21 21 20 19 19 19 18 17 16 16 14 13 13 12 11 9 8 9 9 10 10 10 9 9 8 8 8 11 11 11 11 12 13 13 13 13 13 13 12 11 13
22 22 22 21 20 19 20 19 18 16 16 16 17 16 15 14 12 10 9 8 8 10 10 9 9 8 8 8 8 8 9 10 12 12 12 13 14 14 14 14 13 13 13
24 24 22 21 20 19 20 19 18 17 16 16 17 17 16 14 13 10 8 8 8 10 10 9 8 8 8 8 8 8 11 12 12 12 12 13 14 14 14 14 14 14 14
25 23 21 21 21 20 19 18 18 18 16 16 16 17 16 15 14 12 12 11 9 8 8 9 9 9 9 11 11 12 12 12 12 12 13 14 14 14 15 14 15 15 15
24 23 22 21 21 21 20 19 17 16 15 16 16 16 16 16 14 12 12 13 12 11 12 13 14 13 13 13 13 13 14 13 14 14 15 15 15 15 15 14 15 15 16
25 23 23 22 22 21 21 21 16 15 13 13 12 13 14 13 13 13 14 14 14 14 19 20 20 19 19 18 17 16 15 15 14 14 15 15 16 16 16 16 15 16 16
28 25 24 23 22 22 22 22 22 18 14 14 13 13 13 14 14 14 15 16 16 19 22 23 23 22 22 21 20 20 20 18 18 17 16 16 16 16 16 17 16 17 17
29 26 25 24 24 23 22 22 21 22 22 21 17 14 15 14 15 15 16 20 24 23 24 25 25 24 24 23 22 22 21 21 21 20 20 20 18 17 17 17 17 17 17
28 26 26 26 26 24 24 23 23 22 23 22 22 20 18 16 16 17 18 24 25 26 26 26 26 25 25 24 24 23 23 23 23 23 23 22 21 21 21 21 19 19 18
31 26 27 30 27 26 25 24 23 23 24 24 24 24 20 22 23 23 23 24 25 26 26 26 26 26 26 26 26 25 25 25 25 25 24 24 23 23 23 23 22 22 21
33 31 28 31 30 30 31 29 27 27 25 25 25 23 17 24 24 24 24 24 25 25 25 25 26 26 27 27 27 27 26 26 26 26 25 25 25 25 24 24 23 23 23
35 35 34 35 33 29 30 30 30 28 26 25 24 24 19 24 25 25 25 25 25 25 25 25 25 26 26 27 27 27 27 27 26 26 26 26 25 25 25 25 25 25 24
36 36 35 36 35 32 32 32 32 29 26 26 25 25 25 26 26 26 26 26 26 26 26 26 26 27 26 26 26 26 27 26 26 26 26 25 25 25 25 25 25 26 25
37 37 36 36 36 35 35 33 31 29 28 28 28 27 26 26 27 27 26 26 26 27 27 27 27 27 28 28 27 27 27 25 25 25 25 24 24 24 25 25 25 25 25
38 37 37 36 37 37 36 35 32 33 30 28 28 28 28 28 28 28 27 27 27 28 28 27 27 28 28 29 29 29 27 25 25 24 24 25 26 26 26 26 26 26 26
37 36 36 34 29 31 31 30 29 30 30 29 29 30 30 29 29 29 29 28 28 28 29 28 28 29 29 28 28 25 25 23 22 21 25 28 29 29 29 29 29 28 28